<?xml version="1.0" encoding="UTF-8" standalone="no" ?>
<gpx xmlns="http://www.topografix.com/GPX/1/1" xmlns:xsi="http://www.w3.org/2001/XMLSchema-instance" xsi:schemaLocation="http://www.topografix.com/GPX/1/1 http://www.topografix.com/GPX/1/1/gpx.xsd" version="1.1" creator="VisuGPX - https://www.visugpx.com">
  <metadata>
    <name>Les cinq châteaux et les herbes de Chaudry_R1</name>
    <desc><![CDATA[Randonnée en boucle de 20 km à partir de l'église de Maudétour-en-Vexin]]></desc>
  </metadata>
  <trk>
    <name><![CDATA[Les cinq châteaux et les herbes de Chaudry_R1]]></name>
    <trkseg>
      <trkpt lat="49.09993" lon="1.77588">
        <ele>143.7</ele>
        <time>2022-04-10T07:27:51Z</time>
      </trkpt>
      <trkpt lat="49.09982" lon="1.77586">
        <ele>144.6</ele>
        <time>2022-04-10T07:28:06Z</time>
      </trkpt>
      <trkpt lat="49.09979" lon="1.77587">
        <ele>144.42</ele>
        <time>2022-04-10T07:28:15Z</time>
      </trkpt>
      <trkpt lat="49.09972" lon="1.77593">
        <ele>145.07</ele>
        <time>2022-04-10T07:29:08Z</time>
      </trkpt>
      <trkpt lat="49.09973" lon="1.77594">
        <ele>145.09</ele>
        <time>2022-04-10T07:29:09Z</time>
      </trkpt>
      <trkpt lat="49.0998" lon="1.77605">
        <ele>144.79</ele>
        <time>2022-04-10T07:29:19Z</time>
      </trkpt>
      <trkpt lat="49.09979" lon="1.77628">
        <ele>144.55</ele>
        <time>2022-04-10T07:29:33Z</time>
      </trkpt>
      <trkpt lat="49.09976" lon="1.77646">
        <ele>143.71</ele>
        <time>2022-04-10T07:29:43Z</time>
      </trkpt>
      <trkpt lat="49.09975" lon="1.77657">
        <ele>144.21</ele>
        <time>2022-04-10T07:29:50Z</time>
      </trkpt>
      <trkpt lat="49.09974" lon="1.77664">
        <ele>143.97</ele>
        <time>2022-04-10T07:29:54Z</time>
      </trkpt>
      <trkpt lat="49.09971" lon="1.77686">
        <ele>142.51</ele>
        <time>2022-04-10T07:30:07Z</time>
      </trkpt>
      <trkpt lat="49.09967" lon="1.77709">
        <ele>142.27</ele>
        <time>2022-04-10T07:30:20Z</time>
      </trkpt>
      <trkpt lat="49.09966" lon="1.77718">
        <ele>141.74</ele>
        <time>2022-04-10T07:30:26Z</time>
      </trkpt>
      <trkpt lat="49.09965" lon="1.77722">
        <ele>140.99</ele>
        <time>2022-04-10T07:30:30Z</time>
      </trkpt>
      <trkpt lat="49.09963" lon="1.77734">
        <ele>140.19</ele>
        <time>2022-04-10T07:30:37Z</time>
      </trkpt>
      <trkpt lat="49.0996" lon="1.7775">
        <ele>140.06</ele>
        <time>2022-04-10T07:30:47Z</time>
      </trkpt>
      <trkpt lat="49.09959" lon="1.77759">
        <ele>139.38</ele>
        <time>2022-04-10T07:30:52Z</time>
      </trkpt>
      <trkpt lat="49.09955" lon="1.77787">
        <ele>139.28</ele>
        <time>2022-04-10T07:31:07Z</time>
      </trkpt>
      <trkpt lat="49.09954" lon="1.77789">
        <ele>138.92</ele>
        <time>2022-04-10T07:31:08Z</time>
      </trkpt>
      <trkpt lat="49.09955" lon="1.77804">
        <ele>138.47</ele>
        <time>2022-04-10T07:31:19Z</time>
      </trkpt>
      <trkpt lat="49.09955" lon="1.77805">
        <ele>138.76</ele>
        <time>2022-04-10T07:31:33Z</time>
      </trkpt>
      <trkpt lat="49.09953" lon="1.77813">
        <ele>138.11</ele>
        <time>2022-04-10T07:31:45Z</time>
      </trkpt>
      <trkpt lat="49.09951" lon="1.77814">
        <ele>138.7</ele>
        <time>2022-04-10T07:32:03Z</time>
      </trkpt>
      <trkpt lat="49.09947" lon="1.77816">
        <ele>138.74</ele>
        <time>2022-04-10T07:32:20Z</time>
      </trkpt>
      <trkpt lat="49.09947" lon="1.77815">
        <ele>138.9</ele>
        <time>2022-04-10T07:32:42Z</time>
      </trkpt>
      <trkpt lat="49.0994" lon="1.77822">
        <ele>138.2</ele>
        <time>2022-04-10T07:32:54Z</time>
      </trkpt>
      <trkpt lat="49.09932" lon="1.77829">
        <ele>138.56</ele>
        <time>2022-04-10T07:33:01Z</time>
      </trkpt>
      <trkpt lat="49.09915" lon="1.77848">
        <ele>138.2</ele>
        <time>2022-04-10T07:33:17Z</time>
      </trkpt>
      <trkpt lat="49.09902" lon="1.77864">
        <ele>137.72</ele>
        <time>2022-04-10T07:33:30Z</time>
      </trkpt>
      <trkpt lat="49.09892" lon="1.77886">
        <ele>137.63</ele>
        <time>2022-04-10T07:33:44Z</time>
      </trkpt>
      <trkpt lat="49.09888" lon="1.77908">
        <ele>136.25</ele>
        <time>2022-04-10T07:33:57Z</time>
      </trkpt>
      <trkpt lat="49.09885" lon="1.7794">
        <ele>135.34</ele>
        <time>2022-04-10T07:34:14Z</time>
      </trkpt>
      <trkpt lat="49.09883" lon="1.7797">
        <ele>134.14</ele>
        <time>2022-04-10T07:34:28Z</time>
      </trkpt>
      <trkpt lat="49.0988" lon="1.77995">
        <ele>133.66</ele>
        <time>2022-04-10T07:34:41Z</time>
      </trkpt>
      <trkpt lat="49.09877" lon="1.78023">
        <ele>132.65</ele>
        <time>2022-04-10T07:34:54Z</time>
      </trkpt>
      <trkpt lat="49.09874" lon="1.78055">
        <ele>132.03</ele>
        <time>2022-04-10T07:35:11Z</time>
      </trkpt>
      <trkpt lat="49.09873" lon="1.78082">
        <ele>131.84</ele>
        <time>2022-04-10T07:35:25Z</time>
      </trkpt>
      <trkpt lat="49.09871" lon="1.78119">
        <ele>130.64</ele>
        <time>2022-04-10T07:35:43Z</time>
      </trkpt>
      <trkpt lat="49.0987" lon="1.78147">
        <ele>130.66</ele>
        <time>2022-04-10T07:35:57Z</time>
      </trkpt>
      <trkpt lat="49.09868" lon="1.78173">
        <ele>129.68</ele>
        <time>2022-04-10T07:36:11Z</time>
      </trkpt>
      <trkpt lat="49.09866" lon="1.78206">
        <ele>128.6</ele>
        <time>2022-04-10T07:36:28Z</time>
      </trkpt>
      <trkpt lat="49.09863" lon="1.78233">
        <ele>128.35</ele>
        <time>2022-04-10T07:36:41Z</time>
      </trkpt>
      <trkpt lat="49.09856" lon="1.7827">
        <ele>126.62</ele>
        <time>2022-04-10T07:37:00Z</time>
      </trkpt>
      <trkpt lat="49.09851" lon="1.78292">
        <ele>125.75</ele>
        <time>2022-04-10T07:37:12Z</time>
      </trkpt>
      <trkpt lat="49.09847" lon="1.78311">
        <ele>125.2</ele>
        <time>2022-04-10T07:37:22Z</time>
      </trkpt>
      <trkpt lat="49.09846" lon="1.78313">
        <ele>125.14</ele>
        <time>2022-04-10T07:37:23Z</time>
      </trkpt>
      <trkpt lat="49.09845" lon="1.78319">
        <ele>124.43</ele>
        <time>2022-04-10T07:37:26Z</time>
      </trkpt>
      <trkpt lat="49.09841" lon="1.78332">
        <ele>124.31</ele>
        <time>2022-04-10T07:37:33Z</time>
      </trkpt>
      <trkpt lat="49.09837" lon="1.78348">
        <ele>123.27</ele>
        <time>2022-04-10T07:37:46Z</time>
      </trkpt>
      <trkpt lat="49.09836" lon="1.78352">
        <ele>123.05</ele>
        <time>2022-04-10T07:37:50Z</time>
      </trkpt>
      <trkpt lat="49.09836" lon="1.78353">
        <ele>123.01</ele>
        <time>2022-04-10T07:37:51Z</time>
      </trkpt>
      <trkpt lat="49.09835" lon="1.78355">
        <ele>123.34</ele>
        <time>2022-04-10T07:37:52Z</time>
      </trkpt>
      <trkpt lat="49.09835" lon="1.78357">
        <ele>122.63</ele>
        <time>2022-04-10T07:37:53Z</time>
      </trkpt>
      <trkpt lat="49.09834" lon="1.78359">
        <ele>122.9</ele>
        <time>2022-04-10T07:37:54Z</time>
      </trkpt>
      <trkpt lat="49.09834" lon="1.78362">
        <ele>122.84</ele>
        <time>2022-04-10T07:37:55Z</time>
      </trkpt>
      <trkpt lat="49.09833" lon="1.78363">
        <ele>123</ele>
        <time>2022-04-10T07:37:56Z</time>
      </trkpt>
      <trkpt lat="49.09833" lon="1.78365">
        <ele>122.5</ele>
        <time>2022-04-10T07:37:57Z</time>
      </trkpt>
      <trkpt lat="49.09832" lon="1.78366">
        <ele>123.14</ele>
        <time>2022-04-10T07:37:58Z</time>
      </trkpt>
      <trkpt lat="49.09826" lon="1.78387">
        <ele>121.45</ele>
        <time>2022-04-10T07:38:10Z</time>
      </trkpt>
      <trkpt lat="49.09822" lon="1.78407">
        <ele>121.43</ele>
        <time>2022-04-10T07:38:22Z</time>
      </trkpt>
      <trkpt lat="49.09816" lon="1.7843">
        <ele>121.37</ele>
        <time>2022-04-10T07:38:35Z</time>
      </trkpt>
      <trkpt lat="49.09813" lon="1.7844">
        <ele>121.61</ele>
        <time>2022-04-10T07:38:41Z</time>
      </trkpt>
      <trkpt lat="49.09812" lon="1.78441">
        <ele>121.75</ele>
        <time>2022-04-10T07:38:42Z</time>
      </trkpt>
      <trkpt lat="49.09812" lon="1.78443">
        <ele>121.45</ele>
        <time>2022-04-10T07:38:43Z</time>
      </trkpt>
      <trkpt lat="49.09812" lon="1.78445">
        <ele>121.92</ele>
        <time>2022-04-10T07:38:44Z</time>
      </trkpt>
      <trkpt lat="49.09811" lon="1.78447">
        <ele>121.79</ele>
        <time>2022-04-10T07:38:45Z</time>
      </trkpt>
      <trkpt lat="49.09806" lon="1.78475">
        <ele>121.64</ele>
        <time>2022-04-10T07:39:00Z</time>
      </trkpt>
      <trkpt lat="49.09801" lon="1.78496">
        <ele>121.91</ele>
        <time>2022-04-10T07:39:13Z</time>
      </trkpt>
      <trkpt lat="49.09797" lon="1.78521">
        <ele>121.43</ele>
        <time>2022-04-10T07:39:26Z</time>
      </trkpt>
      <trkpt lat="49.09797" lon="1.78523">
        <ele>121.78</ele>
        <time>2022-04-10T07:39:27Z</time>
      </trkpt>
      <trkpt lat="49.09795" lon="1.78548">
        <ele>122.21</ele>
        <time>2022-04-10T07:39:41Z</time>
      </trkpt>
      <trkpt lat="49.09793" lon="1.78574">
        <ele>122.44</ele>
        <time>2022-04-10T07:39:54Z</time>
      </trkpt>
      <trkpt lat="49.09792" lon="1.78585">
        <ele>122.16</ele>
        <time>2022-04-10T07:40:00Z</time>
      </trkpt>
      <trkpt lat="49.09792" lon="1.78587">
        <ele>122.81</ele>
        <time>2022-04-10T07:40:01Z</time>
      </trkpt>
      <trkpt lat="49.09791" lon="1.78607">
        <ele>123.7</ele>
        <time>2022-04-10T07:40:13Z</time>
      </trkpt>
      <trkpt lat="49.0979" lon="1.78618">
        <ele>123.91</ele>
        <time>2022-04-10T07:40:21Z</time>
      </trkpt>
      <trkpt lat="49.09789" lon="1.78619">
        <ele>123.89</ele>
        <time>2022-04-10T07:40:22Z</time>
      </trkpt>
      <trkpt lat="49.09788" lon="1.7862">
        <ele>123.9</ele>
        <time>2022-04-10T07:40:23Z</time>
      </trkpt>
      <trkpt lat="49.09787" lon="1.78621">
        <ele>124.39</ele>
        <time>2022-04-10T07:40:24Z</time>
      </trkpt>
      <trkpt lat="49.09786" lon="1.78621">
        <ele>124.25</ele>
        <time>2022-04-10T07:40:25Z</time>
      </trkpt>
      <trkpt lat="49.09784" lon="1.78622">
        <ele>124.16</ele>
        <time>2022-04-10T07:40:26Z</time>
      </trkpt>
      <trkpt lat="49.09777" lon="1.78629">
        <ele>124.83</ele>
        <time>2022-04-10T07:40:36Z</time>
      </trkpt>
      <trkpt lat="49.09769" lon="1.78639">
        <ele>126.14</ele>
        <time>2022-04-10T07:40:47Z</time>
      </trkpt>
      <trkpt lat="49.09764" lon="1.78643">
        <ele>125.7</ele>
        <time>2022-04-10T07:40:53Z</time>
      </trkpt>
      <trkpt lat="49.09763" lon="1.78644">
        <ele>126.5</ele>
        <time>2022-04-10T07:40:54Z</time>
      </trkpt>
      <trkpt lat="49.09759" lon="1.78648">
        <ele>126.83</ele>
        <time>2022-04-10T07:41:01Z</time>
      </trkpt>
      <trkpt lat="49.09751" lon="1.78659">
        <ele>128.39</ele>
        <time>2022-04-10T07:41:14Z</time>
      </trkpt>
      <trkpt lat="49.09743" lon="1.78666">
        <ele>129.17</ele>
        <time>2022-04-10T07:41:23Z</time>
      </trkpt>
      <trkpt lat="49.09736" lon="1.78674">
        <ele>130</ele>
        <time>2022-04-10T07:41:31Z</time>
      </trkpt>
      <trkpt lat="49.09728" lon="1.78681">
        <ele>130.96</ele>
        <time>2022-04-10T07:41:41Z</time>
      </trkpt>
      <trkpt lat="49.0972" lon="1.78692">
        <ele>131.66</ele>
        <time>2022-04-10T07:41:54Z</time>
      </trkpt>
      <trkpt lat="49.09709" lon="1.78701">
        <ele>132.7</ele>
        <time>2022-04-10T07:42:04Z</time>
      </trkpt>
      <trkpt lat="49.09699" lon="1.78711">
        <ele>134.43</ele>
        <time>2022-04-10T07:42:17Z</time>
      </trkpt>
      <trkpt lat="49.09693" lon="1.78717">
        <ele>134.77</ele>
        <time>2022-04-10T07:42:25Z</time>
      </trkpt>
      <trkpt lat="49.09685" lon="1.78721">
        <ele>135.97</ele>
        <time>2022-04-10T07:42:34Z</time>
      </trkpt>
      <trkpt lat="49.09683" lon="1.78722">
        <ele>135.38</ele>
        <time>2022-04-10T07:42:35Z</time>
      </trkpt>
      <trkpt lat="49.09672" lon="1.78729">
        <ele>136.92</ele>
        <time>2022-04-10T07:42:48Z</time>
      </trkpt>
      <trkpt lat="49.09662" lon="1.78731">
        <ele>137.48</ele>
        <time>2022-04-10T07:42:59Z</time>
      </trkpt>
      <trkpt lat="49.09652" lon="1.78732">
        <ele>138.07</ele>
        <time>2022-04-10T07:43:09Z</time>
      </trkpt>
      <trkpt lat="49.09651" lon="1.78732">
        <ele>138.57</ele>
        <time>2022-04-10T07:43:10Z</time>
      </trkpt>
      <trkpt lat="49.0964" lon="1.78736">
        <ele>139.22</ele>
        <time>2022-04-10T07:43:22Z</time>
      </trkpt>
      <trkpt lat="49.09629" lon="1.78738">
        <ele>140.05</ele>
        <time>2022-04-10T07:43:33Z</time>
      </trkpt>
      <trkpt lat="49.09617" lon="1.78739">
        <ele>139.95</ele>
        <time>2022-04-10T07:43:45Z</time>
      </trkpt>
      <trkpt lat="49.09615" lon="1.78739">
        <ele>139.98</ele>
        <time>2022-04-10T07:43:46Z</time>
      </trkpt>
      <trkpt lat="49.09614" lon="1.7874">
        <ele>140.29</ele>
        <time>2022-04-10T07:43:47Z</time>
      </trkpt>
      <trkpt lat="49.09612" lon="1.78741">
        <ele>140.65</ele>
        <time>2022-04-10T07:43:48Z</time>
      </trkpt>
      <trkpt lat="49.09602" lon="1.78742">
        <ele>141.69</ele>
        <time>2022-04-10T07:44:00Z</time>
      </trkpt>
      <trkpt lat="49.09591" lon="1.78745">
        <ele>142.81</ele>
        <time>2022-04-10T07:44:12Z</time>
      </trkpt>
      <trkpt lat="49.0958" lon="1.78747">
        <ele>144.26</ele>
        <time>2022-04-10T07:44:23Z</time>
      </trkpt>
      <trkpt lat="49.09575" lon="1.78748">
        <ele>144.39</ele>
        <time>2022-04-10T07:44:28Z</time>
      </trkpt>
      <trkpt lat="49.09564" lon="1.7875">
        <ele>145.8</ele>
        <time>2022-04-10T07:44:41Z</time>
      </trkpt>
      <trkpt lat="49.09562" lon="1.78751">
        <ele>145.9</ele>
        <time>2022-04-10T07:44:42Z</time>
      </trkpt>
      <trkpt lat="49.0955" lon="1.78756">
        <ele>147.56</ele>
        <time>2022-04-10T07:44:55Z</time>
      </trkpt>
      <trkpt lat="49.09549" lon="1.78756">
        <ele>147.76</ele>
        <time>2022-04-10T07:44:56Z</time>
      </trkpt>
      <trkpt lat="49.09538" lon="1.78761">
        <ele>148.63</ele>
        <time>2022-04-10T07:45:06Z</time>
      </trkpt>
      <trkpt lat="49.09532" lon="1.78764">
        <ele>148.65</ele>
        <time>2022-04-10T07:45:11Z</time>
      </trkpt>
      <trkpt lat="49.09521" lon="1.78771">
        <ele>150.15</ele>
        <time>2022-04-10T07:45:23Z</time>
      </trkpt>
      <trkpt lat="49.0952" lon="1.78773">
        <ele>150.39</ele>
        <time>2022-04-10T07:45:25Z</time>
      </trkpt>
      <trkpt lat="49.09509" lon="1.78783">
        <ele>151.54</ele>
        <time>2022-04-10T07:45:37Z</time>
      </trkpt>
      <trkpt lat="49.09507" lon="1.78784">
        <ele>152</ele>
        <time>2022-04-10T07:45:38Z</time>
      </trkpt>
      <trkpt lat="49.09498" lon="1.78791">
        <ele>153.29</ele>
        <time>2022-04-10T07:45:48Z</time>
      </trkpt>
      <trkpt lat="49.09486" lon="1.78796">
        <ele>154.2</ele>
        <time>2022-04-10T07:46:01Z</time>
      </trkpt>
      <trkpt lat="49.09476" lon="1.78806">
        <ele>155.36</ele>
        <time>2022-04-10T07:46:11Z</time>
      </trkpt>
      <trkpt lat="49.09467" lon="1.78822">
        <ele>156.72</ele>
        <time>2022-04-10T07:46:24Z</time>
      </trkpt>
      <trkpt lat="49.09459" lon="1.78834">
        <ele>157.38</ele>
        <time>2022-04-10T07:46:35Z</time>
      </trkpt>
      <trkpt lat="49.09452" lon="1.78845">
        <ele>158.32</ele>
        <time>2022-04-10T07:46:45Z</time>
      </trkpt>
      <trkpt lat="49.09443" lon="1.78863">
        <ele>159.06</ele>
        <time>2022-04-10T07:46:58Z</time>
      </trkpt>
      <trkpt lat="49.09438" lon="1.78878">
        <ele>159.38</ele>
        <time>2022-04-10T07:47:08Z</time>
      </trkpt>
      <trkpt lat="49.09434" lon="1.78889">
        <ele>158.83</ele>
        <time>2022-04-10T07:47:16Z</time>
      </trkpt>
      <trkpt lat="49.09428" lon="1.78902">
        <ele>158.05</ele>
        <time>2022-04-10T07:47:27Z</time>
      </trkpt>
      <trkpt lat="49.09425" lon="1.78912">
        <ele>157.31</ele>
        <time>2022-04-10T07:47:35Z</time>
      </trkpt>
      <trkpt lat="49.09424" lon="1.78915">
        <ele>157.01</ele>
        <time>2022-04-10T07:47:37Z</time>
      </trkpt>
      <trkpt lat="49.09417" lon="1.78937">
        <ele>156.01</ele>
        <time>2022-04-10T07:47:53Z</time>
      </trkpt>
      <trkpt lat="49.09409" lon="1.78953">
        <ele>154.49</ele>
        <time>2022-04-10T07:48:06Z</time>
      </trkpt>
      <trkpt lat="49.09405" lon="1.78968">
        <ele>154.49</ele>
        <time>2022-04-10T07:48:15Z</time>
      </trkpt>
      <trkpt lat="49.09402" lon="1.7897">
        <ele>154.48</ele>
        <time>2022-04-10T07:48:18Z</time>
      </trkpt>
      <trkpt lat="49.09389" lon="1.78972">
        <ele>154.62</ele>
        <time>2022-04-10T07:48:30Z</time>
      </trkpt>
      <trkpt lat="49.09378" lon="1.7897">
        <ele>156.08</ele>
        <time>2022-04-10T07:48:44Z</time>
      </trkpt>
      <trkpt lat="49.09375" lon="1.78971">
        <ele>156.63</ele>
        <time>2022-04-10T07:48:56Z</time>
      </trkpt>
      <trkpt lat="49.09374" lon="1.78973">
        <ele>156.2</ele>
        <time>2022-04-10T07:49:15Z</time>
      </trkpt>
      <trkpt lat="49.09373" lon="1.78977">
        <ele>155.41</ele>
        <time>2022-04-10T07:49:38Z</time>
      </trkpt>
      <trkpt lat="49.09372" lon="1.78979">
        <ele>156.18</ele>
        <time>2022-04-10T07:49:58Z</time>
      </trkpt>
      <trkpt lat="49.09372" lon="1.78978">
        <ele>155.76</ele>
        <time>2022-04-10T07:50:16Z</time>
      </trkpt>
      <trkpt lat="49.09371" lon="1.78974">
        <ele>155.68</ele>
        <time>2022-04-10T07:50:38Z</time>
      </trkpt>
      <trkpt lat="49.09369" lon="1.78971">
        <ele>155.24</ele>
        <time>2022-04-10T07:50:58Z</time>
      </trkpt>
      <trkpt lat="49.09362" lon="1.78967">
        <ele>157.28</ele>
        <time>2022-04-10T07:51:11Z</time>
      </trkpt>
      <trkpt lat="49.09354" lon="1.78971">
        <ele>158.54</ele>
        <time>2022-04-10T07:51:23Z</time>
      </trkpt>
      <trkpt lat="49.09352" lon="1.78978">
        <ele>158.6</ele>
        <time>2022-04-10T07:51:35Z</time>
      </trkpt>
      <trkpt lat="49.09347" lon="1.78976">
        <ele>158.78</ele>
        <time>2022-04-10T07:51:47Z</time>
      </trkpt>
      <trkpt lat="49.0934" lon="1.78971">
        <ele>158.91</ele>
        <time>2022-04-10T07:51:58Z</time>
      </trkpt>
      <trkpt lat="49.09333" lon="1.78975">
        <ele>159.22</ele>
        <time>2022-04-10T07:52:11Z</time>
      </trkpt>
      <trkpt lat="49.09326" lon="1.78983">
        <ele>160.41</ele>
        <time>2022-04-10T07:52:24Z</time>
      </trkpt>
      <trkpt lat="49.09318" lon="1.78991">
        <ele>161.87</ele>
        <time>2022-04-10T07:52:44Z</time>
      </trkpt>
      <trkpt lat="49.09318" lon="1.79003">
        <ele>164.98</ele>
        <time>2022-04-10T07:53:03Z</time>
      </trkpt>
      <trkpt lat="49.09317" lon="1.79019">
        <ele>165.83</ele>
        <time>2022-04-10T07:53:18Z</time>
      </trkpt>
      <trkpt lat="49.09316" lon="1.79028">
        <ele>166.85</ele>
        <time>2022-04-10T07:53:25Z</time>
      </trkpt>
      <trkpt lat="49.09314" lon="1.79047">
        <ele>167.4</ele>
        <time>2022-04-10T07:53:41Z</time>
      </trkpt>
      <trkpt lat="49.09311" lon="1.79075">
        <ele>168.91</ele>
        <time>2022-04-10T07:53:58Z</time>
      </trkpt>
      <trkpt lat="49.09307" lon="1.79104">
        <ele>169.01</ele>
        <time>2022-04-10T07:54:14Z</time>
      </trkpt>
      <trkpt lat="49.09301" lon="1.79122">
        <ele>169.23</ele>
        <time>2022-04-10T07:54:26Z</time>
      </trkpt>
      <trkpt lat="49.093" lon="1.79122">
        <ele>169.57</ele>
        <time>2022-04-10T07:54:30Z</time>
      </trkpt>
      <trkpt lat="49.09292" lon="1.79132">
        <ele>169.57</ele>
        <time>2022-04-10T07:54:50Z</time>
      </trkpt>
      <trkpt lat="49.0929" lon="1.79141">
        <ele>169.95</ele>
        <time>2022-04-10T07:55:06Z</time>
      </trkpt>
      <trkpt lat="49.09285" lon="1.79155">
        <ele>171.14</ele>
        <time>2022-04-10T07:55:22Z</time>
      </trkpt>
      <trkpt lat="49.09283" lon="1.79158">
        <ele>171.08</ele>
        <time>2022-04-10T07:55:25Z</time>
      </trkpt>
      <trkpt lat="49.09284" lon="1.79159">
        <ele>171.22</ele>
        <time>2022-04-10T07:55:40Z</time>
      </trkpt>
      <trkpt lat="49.09283" lon="1.79159">
        <ele>170.48</ele>
        <time>2022-04-10T07:55:57Z</time>
      </trkpt>
      <trkpt lat="49.09281" lon="1.79164">
        <ele>170.75</ele>
        <time>2022-04-10T07:56:13Z</time>
      </trkpt>
      <trkpt lat="49.09279" lon="1.79174">
        <ele>170.32</ele>
        <time>2022-04-10T07:56:26Z</time>
      </trkpt>
      <trkpt lat="49.09278" lon="1.79191">
        <ele>169.94</ele>
        <time>2022-04-10T07:56:40Z</time>
      </trkpt>
      <trkpt lat="49.09276" lon="1.79198">
        <ele>170.1</ele>
        <time>2022-04-10T07:56:53Z</time>
      </trkpt>
      <trkpt lat="49.09273" lon="1.79202">
        <ele>169.73</ele>
        <time>2022-04-10T07:57:09Z</time>
      </trkpt>
      <trkpt lat="49.09272" lon="1.79212">
        <ele>169.37</ele>
        <time>2022-04-10T07:57:25Z</time>
      </trkpt>
      <trkpt lat="49.09271" lon="1.79222">
        <ele>167.88</ele>
        <time>2022-04-10T07:57:39Z</time>
      </trkpt>
      <trkpt lat="49.09263" lon="1.79233">
        <ele>168.2</ele>
        <time>2022-04-10T07:57:53Z</time>
      </trkpt>
      <trkpt lat="49.09251" lon="1.79246">
        <ele>168.62</ele>
        <time>2022-04-10T07:58:10Z</time>
      </trkpt>
      <trkpt lat="49.09243" lon="1.79253">
        <ele>168.67</ele>
        <time>2022-04-10T07:58:27Z</time>
      </trkpt>
      <trkpt lat="49.0923" lon="1.7926">
        <ele>168.5</ele>
        <time>2022-04-10T07:58:43Z</time>
      </trkpt>
      <trkpt lat="49.09221" lon="1.7927">
        <ele>168.61</ele>
        <time>2022-04-10T07:59:02Z</time>
      </trkpt>
      <trkpt lat="49.09215" lon="1.79277">
        <ele>168.43</ele>
        <time>2022-04-10T07:59:19Z</time>
      </trkpt>
      <trkpt lat="49.09209" lon="1.79283">
        <ele>168.46</ele>
        <time>2022-04-10T07:59:39Z</time>
      </trkpt>
      <trkpt lat="49.0921" lon="1.79279">
        <ele>168.46</ele>
        <time>2022-04-10T07:59:55Z</time>
      </trkpt>
      <trkpt lat="49.09211" lon="1.79285">
        <ele>168.86</ele>
        <time>2022-04-10T08:00:16Z</time>
      </trkpt>
      <trkpt lat="49.09216" lon="1.79288">
        <ele>168.91</ele>
        <time>2022-04-10T08:00:37Z</time>
      </trkpt>
      <trkpt lat="49.09213" lon="1.79288">
        <ele>168.79</ele>
        <time>2022-04-10T08:00:59Z</time>
      </trkpt>
      <trkpt lat="49.09209" lon="1.79291">
        <ele>168.9</ele>
        <time>2022-04-10T08:01:19Z</time>
      </trkpt>
      <trkpt lat="49.09212" lon="1.79291">
        <ele>168.78</ele>
        <time>2022-04-10T08:01:35Z</time>
      </trkpt>
      <trkpt lat="49.09211" lon="1.79292">
        <ele>169.16</ele>
        <time>2022-04-10T08:01:55Z</time>
      </trkpt>
      <trkpt lat="49.09202" lon="1.79285">
        <ele>168.8</ele>
        <time>2022-04-10T08:02:08Z</time>
      </trkpt>
      <trkpt lat="49.09185" lon="1.79273">
        <ele>169.92</ele>
        <time>2022-04-10T08:02:23Z</time>
      </trkpt>
      <trkpt lat="49.09185" lon="1.79273">
        <ele>170.36</ele>
        <time>2022-04-10T08:02:24Z</time>
      </trkpt>
      <trkpt lat="49.0917" lon="1.79258">
        <ele>173.17</ele>
        <time>2022-04-10T08:02:41Z</time>
      </trkpt>
      <trkpt lat="49.09157" lon="1.79253">
        <ele>175.23</ele>
        <time>2022-04-10T08:02:55Z</time>
      </trkpt>
      <trkpt lat="49.09145" lon="1.79239">
        <ele>176.42</ele>
        <time>2022-04-10T08:03:11Z</time>
      </trkpt>
      <trkpt lat="49.09136" lon="1.79229">
        <ele>177.81</ele>
        <time>2022-04-10T08:03:24Z</time>
      </trkpt>
      <trkpt lat="49.09125" lon="1.79217">
        <ele>178.49</ele>
        <time>2022-04-10T08:03:39Z</time>
      </trkpt>
      <trkpt lat="49.09111" lon="1.792">
        <ele>179.02</ele>
        <time>2022-04-10T08:03:54Z</time>
      </trkpt>
      <trkpt lat="49.09104" lon="1.79184">
        <ele>178.78</ele>
        <time>2022-04-10T08:04:04Z</time>
      </trkpt>
      <trkpt lat="49.09097" lon="1.7916">
        <ele>179.1</ele>
        <time>2022-04-10T08:04:19Z</time>
      </trkpt>
      <trkpt lat="49.09095" lon="1.79137">
        <ele>179.15</ele>
        <time>2022-04-10T08:04:34Z</time>
      </trkpt>
      <trkpt lat="49.09092" lon="1.79113">
        <ele>180.23</ele>
        <time>2022-04-10T08:04:51Z</time>
      </trkpt>
      <trkpt lat="49.0909" lon="1.79085">
        <ele>180.32</ele>
        <time>2022-04-10T08:05:09Z</time>
      </trkpt>
      <trkpt lat="49.09089" lon="1.79065">
        <ele>181.01</ele>
        <time>2022-04-10T08:05:25Z</time>
      </trkpt>
      <trkpt lat="49.09086" lon="1.79048">
        <ele>181.73</ele>
        <time>2022-04-10T08:05:40Z</time>
      </trkpt>
      <trkpt lat="49.09083" lon="1.79025">
        <ele>181.75</ele>
        <time>2022-04-10T08:05:58Z</time>
      </trkpt>
      <trkpt lat="49.0908" lon="1.79004">
        <ele>181.85</ele>
        <time>2022-04-10T08:06:12Z</time>
      </trkpt>
      <trkpt lat="49.09078" lon="1.78986">
        <ele>181.78</ele>
        <time>2022-04-10T08:06:25Z</time>
      </trkpt>
      <trkpt lat="49.09074" lon="1.7896">
        <ele>181.54</ele>
        <time>2022-04-10T08:06:43Z</time>
      </trkpt>
      <trkpt lat="49.09072" lon="1.78937">
        <ele>181.89</ele>
        <time>2022-04-10T08:06:59Z</time>
      </trkpt>
      <trkpt lat="49.0907" lon="1.78916">
        <ele>181.42</ele>
        <time>2022-04-10T08:07:14Z</time>
      </trkpt>
      <trkpt lat="49.09067" lon="1.78888">
        <ele>182.08</ele>
        <time>2022-04-10T08:07:30Z</time>
      </trkpt>
      <trkpt lat="49.09069" lon="1.78862">
        <ele>181.99</ele>
        <time>2022-04-10T08:07:46Z</time>
      </trkpt>
      <trkpt lat="49.09062" lon="1.78827">
        <ele>181.67</ele>
        <time>2022-04-10T08:08:02Z</time>
      </trkpt>
      <trkpt lat="49.09059" lon="1.78795">
        <ele>182.48</ele>
        <time>2022-04-10T08:08:18Z</time>
      </trkpt>
      <trkpt lat="49.09059" lon="1.78787">
        <ele>182.51</ele>
        <time>2022-04-10T08:08:25Z</time>
      </trkpt>
      <trkpt lat="49.09052" lon="1.78752">
        <ele>183.02</ele>
        <time>2022-04-10T08:08:45Z</time>
      </trkpt>
      <trkpt lat="49.0905" lon="1.78726">
        <ele>183.23</ele>
        <time>2022-04-10T08:09:00Z</time>
      </trkpt>
      <trkpt lat="49.09051" lon="1.78697">
        <ele>183.41</ele>
        <time>2022-04-10T08:09:19Z</time>
      </trkpt>
      <trkpt lat="49.09047" lon="1.78662">
        <ele>183.28</ele>
        <time>2022-04-10T08:09:34Z</time>
      </trkpt>
      <trkpt lat="49.09044" lon="1.78641">
        <ele>183.43</ele>
        <time>2022-04-10T08:09:47Z</time>
      </trkpt>
      <trkpt lat="49.09045" lon="1.7862">
        <ele>182.84</ele>
        <time>2022-04-10T08:10:01Z</time>
      </trkpt>
      <trkpt lat="49.09041" lon="1.78589">
        <ele>182.83</ele>
        <time>2022-04-10T08:10:19Z</time>
      </trkpt>
      <trkpt lat="49.09041" lon="1.78562">
        <ele>182.54</ele>
        <time>2022-04-10T08:10:35Z</time>
      </trkpt>
      <trkpt lat="49.09037" lon="1.78534">
        <ele>182.12</ele>
        <time>2022-04-10T08:10:52Z</time>
      </trkpt>
      <trkpt lat="49.09032" lon="1.78508">
        <ele>182.15</ele>
        <time>2022-04-10T08:11:04Z</time>
      </trkpt>
      <trkpt lat="49.09032" lon="1.78493">
        <ele>182.62</ele>
        <time>2022-04-10T08:11:24Z</time>
      </trkpt>
      <trkpt lat="49.09033" lon="1.78489">
        <ele>181.95</ele>
        <time>2022-04-10T08:11:32Z</time>
      </trkpt>
      <trkpt lat="49.09033" lon="1.7847">
        <ele>182.39</ele>
        <time>2022-04-10T08:11:48Z</time>
      </trkpt>
      <trkpt lat="49.09033" lon="1.78446">
        <ele>182.4</ele>
        <time>2022-04-10T08:12:03Z</time>
      </trkpt>
      <trkpt lat="49.09028" lon="1.78413">
        <ele>181.97</ele>
        <time>2022-04-10T08:12:17Z</time>
      </trkpt>
      <trkpt lat="49.09027" lon="1.78388">
        <ele>182.11</ele>
        <time>2022-04-10T08:12:34Z</time>
      </trkpt>
      <trkpt lat="49.09025" lon="1.78359">
        <ele>182.34</ele>
        <time>2022-04-10T08:12:50Z</time>
      </trkpt>
      <trkpt lat="49.09022" lon="1.78348">
        <ele>181.95</ele>
        <time>2022-04-10T08:12:57Z</time>
      </trkpt>
      <trkpt lat="49.09017" lon="1.78326">
        <ele>182.38</ele>
        <time>2022-04-10T08:13:15Z</time>
      </trkpt>
      <trkpt lat="49.09014" lon="1.78317">
        <ele>182.45</ele>
        <time>2022-04-10T08:13:23Z</time>
      </trkpt>
      <trkpt lat="49.09014" lon="1.78296">
        <ele>182.47</ele>
        <time>2022-04-10T08:13:38Z</time>
      </trkpt>
      <trkpt lat="49.09013" lon="1.78275">
        <ele>182.69</ele>
        <time>2022-04-10T08:13:52Z</time>
      </trkpt>
      <trkpt lat="49.09013" lon="1.78274">
        <ele>182.86</ele>
        <time>2022-04-10T08:13:53Z</time>
      </trkpt>
      <trkpt lat="49.09014" lon="1.7825">
        <ele>182.61</ele>
        <time>2022-04-10T08:14:09Z</time>
      </trkpt>
      <trkpt lat="49.09015" lon="1.78229">
        <ele>183.65</ele>
        <time>2022-04-10T08:14:23Z</time>
      </trkpt>
      <trkpt lat="49.0901" lon="1.78209">
        <ele>183.7</ele>
        <time>2022-04-10T08:14:36Z</time>
      </trkpt>
      <trkpt lat="49.09008" lon="1.78202">
        <ele>183.87</ele>
        <time>2022-04-10T08:14:42Z</time>
      </trkpt>
      <trkpt lat="49.09003" lon="1.78189">
        <ele>183.96</ele>
        <time>2022-04-10T08:14:57Z</time>
      </trkpt>
      <trkpt lat="49.08999" lon="1.78167">
        <ele>183.7</ele>
        <time>2022-04-10T08:15:14Z</time>
      </trkpt>
      <trkpt lat="49.08998" lon="1.78162">
        <ele>184.28</ele>
        <time>2022-04-10T08:15:17Z</time>
      </trkpt>
      <trkpt lat="49.08998" lon="1.78144">
        <ele>184.09</ele>
        <time>2022-04-10T08:15:32Z</time>
      </trkpt>
      <trkpt lat="49.08998" lon="1.78142">
        <ele>184.02</ele>
        <time>2022-04-10T08:15:34Z</time>
      </trkpt>
      <trkpt lat="49.08997" lon="1.7812">
        <ele>183.56</ele>
        <time>2022-04-10T08:15:49Z</time>
      </trkpt>
      <trkpt lat="49.08997" lon="1.78108">
        <ele>184.02</ele>
        <time>2022-04-10T08:16:02Z</time>
      </trkpt>
      <trkpt lat="49.08997" lon="1.78092">
        <ele>184.4</ele>
        <time>2022-04-10T08:16:17Z</time>
      </trkpt>
      <trkpt lat="49.08998" lon="1.78077">
        <ele>183.86</ele>
        <time>2022-04-10T08:16:35Z</time>
      </trkpt>
      <trkpt lat="49.08997" lon="1.78052">
        <ele>184.29</ele>
        <time>2022-04-10T08:16:52Z</time>
      </trkpt>
      <trkpt lat="49.08995" lon="1.78041">
        <ele>184.1</ele>
        <time>2022-04-10T08:16:59Z</time>
      </trkpt>
      <trkpt lat="49.08998" lon="1.7803">
        <ele>183.92</ele>
        <time>2022-04-10T08:17:07Z</time>
      </trkpt>
      <trkpt lat="49.08998" lon="1.7801">
        <ele>183.95</ele>
        <time>2022-04-10T08:17:24Z</time>
      </trkpt>
      <trkpt lat="49.08999" lon="1.78003">
        <ele>184.38</ele>
        <time>2022-04-10T08:17:30Z</time>
      </trkpt>
      <trkpt lat="49.08995" lon="1.77974">
        <ele>184.61</ele>
        <time>2022-04-10T08:17:45Z</time>
      </trkpt>
      <trkpt lat="49.08997" lon="1.77964">
        <ele>184.17</ele>
        <time>2022-04-10T08:17:50Z</time>
      </trkpt>
      <trkpt lat="49.09" lon="1.77956">
        <ele>183.82</ele>
        <time>2022-04-10T08:17:58Z</time>
      </trkpt>
      <trkpt lat="49.09" lon="1.77952">
        <ele>184.72</ele>
        <time>2022-04-10T08:18:02Z</time>
      </trkpt>
      <trkpt lat="49.08999" lon="1.77947">
        <ele>184.21</ele>
        <time>2022-04-10T08:18:08Z</time>
      </trkpt>
      <trkpt lat="49.09002" lon="1.77942">
        <ele>184.7</ele>
        <time>2022-04-10T08:18:29Z</time>
      </trkpt>
      <trkpt lat="49.09001" lon="1.77928">
        <ele>184.33</ele>
        <time>2022-04-10T08:18:43Z</time>
      </trkpt>
      <trkpt lat="49.09" lon="1.77907">
        <ele>184.49</ele>
        <time>2022-04-10T08:19:01Z</time>
      </trkpt>
      <trkpt lat="49.08995" lon="1.77884">
        <ele>184.56</ele>
        <time>2022-04-10T08:19:16Z</time>
      </trkpt>
      <trkpt lat="49.08994" lon="1.77869">
        <ele>184.61</ele>
        <time>2022-04-10T08:19:29Z</time>
      </trkpt>
      <trkpt lat="49.08993" lon="1.77852">
        <ele>183.82</ele>
        <time>2022-04-10T08:19:43Z</time>
      </trkpt>
      <trkpt lat="49.08993" lon="1.77847">
        <ele>183.82</ele>
        <time>2022-04-10T08:19:48Z</time>
      </trkpt>
      <trkpt lat="49.0899" lon="1.77825">
        <ele>183.79</ele>
        <time>2022-04-10T08:20:05Z</time>
      </trkpt>
      <trkpt lat="49.08987" lon="1.77798">
        <ele>182.54</ele>
        <time>2022-04-10T08:20:21Z</time>
      </trkpt>
      <trkpt lat="49.08984" lon="1.7778">
        <ele>183.37</ele>
        <time>2022-04-10T08:20:35Z</time>
      </trkpt>
      <trkpt lat="49.08982" lon="1.77757">
        <ele>183.43</ele>
        <time>2022-04-10T08:20:49Z</time>
      </trkpt>
      <trkpt lat="49.08981" lon="1.77752">
        <ele>184.32</ele>
        <time>2022-04-10T08:20:56Z</time>
      </trkpt>
      <trkpt lat="49.08984" lon="1.77736">
        <ele>182.99</ele>
        <time>2022-04-10T08:21:14Z</time>
      </trkpt>
      <trkpt lat="49.08982" lon="1.77729">
        <ele>183.08</ele>
        <time>2022-04-10T08:21:20Z</time>
      </trkpt>
      <trkpt lat="49.08977" lon="1.77713">
        <ele>183.21</ele>
        <time>2022-04-10T08:21:33Z</time>
      </trkpt>
      <trkpt lat="49.08977" lon="1.77694">
        <ele>182.7</ele>
        <time>2022-04-10T08:21:46Z</time>
      </trkpt>
      <trkpt lat="49.08978" lon="1.77678">
        <ele>183.16</ele>
        <time>2022-04-10T08:21:57Z</time>
      </trkpt>
      <trkpt lat="49.08981" lon="1.77664">
        <ele>183.59</ele>
        <time>2022-04-10T08:22:12Z</time>
      </trkpt>
      <trkpt lat="49.08981" lon="1.77657">
        <ele>183.06</ele>
        <time>2022-04-10T08:22:18Z</time>
      </trkpt>
      <trkpt lat="49.08984" lon="1.77642">
        <ele>183.41</ele>
        <time>2022-04-10T08:22:31Z</time>
      </trkpt>
      <trkpt lat="49.08988" lon="1.77636">
        <ele>183.16</ele>
        <time>2022-04-10T08:22:43Z</time>
      </trkpt>
      <trkpt lat="49.08988" lon="1.77624">
        <ele>183.25</ele>
        <time>2022-04-10T08:22:55Z</time>
      </trkpt>
      <trkpt lat="49.08988" lon="1.77604">
        <ele>182.98</ele>
        <time>2022-04-10T08:23:10Z</time>
      </trkpt>
      <trkpt lat="49.08989" lon="1.77586">
        <ele>183.33</ele>
        <time>2022-04-10T08:23:27Z</time>
      </trkpt>
      <trkpt lat="49.0899" lon="1.7757">
        <ele>183.84</ele>
        <time>2022-04-10T08:23:41Z</time>
      </trkpt>
      <trkpt lat="49.0899" lon="1.77557">
        <ele>183.71</ele>
        <time>2022-04-10T08:23:55Z</time>
      </trkpt>
      <trkpt lat="49.08991" lon="1.77544">
        <ele>183.75</ele>
        <time>2022-04-10T08:24:13Z</time>
      </trkpt>
      <trkpt lat="49.08989" lon="1.77531">
        <ele>183.7</ele>
        <time>2022-04-10T08:24:25Z</time>
      </trkpt>
      <trkpt lat="49.08989" lon="1.77517">
        <ele>183.87</ele>
        <time>2022-04-10T08:24:37Z</time>
      </trkpt>
      <trkpt lat="49.08988" lon="1.77507">
        <ele>184.76</ele>
        <time>2022-04-10T08:24:46Z</time>
      </trkpt>
      <trkpt lat="49.08994" lon="1.77491">
        <ele>184.16</ele>
        <time>2022-04-10T08:24:59Z</time>
      </trkpt>
      <trkpt lat="49.08993" lon="1.77482">
        <ele>184.5</ele>
        <time>2022-04-10T08:25:06Z</time>
      </trkpt>
      <trkpt lat="49.08996" lon="1.77469">
        <ele>184.56</ele>
        <time>2022-04-10T08:25:19Z</time>
      </trkpt>
      <trkpt lat="49.08996" lon="1.77461">
        <ele>184.86</ele>
        <time>2022-04-10T08:25:32Z</time>
      </trkpt>
      <trkpt lat="49.08997" lon="1.77453">
        <ele>185.13</ele>
        <time>2022-04-10T08:25:38Z</time>
      </trkpt>
      <trkpt lat="49.09004" lon="1.77441">
        <ele>185.42</ele>
        <time>2022-04-10T08:25:53Z</time>
      </trkpt>
      <trkpt lat="49.09005" lon="1.77423">
        <ele>184.56</ele>
        <time>2022-04-10T08:26:07Z</time>
      </trkpt>
      <trkpt lat="49.09007" lon="1.7741">
        <ele>185.34</ele>
        <time>2022-04-10T08:26:19Z</time>
      </trkpt>
      <trkpt lat="49.09004" lon="1.77405">
        <ele>185.84</ele>
        <time>2022-04-10T08:26:38Z</time>
      </trkpt>
      <trkpt lat="49.09002" lon="1.774">
        <ele>185.98</ele>
        <time>2022-04-10T08:26:48Z</time>
      </trkpt>
      <trkpt lat="49.08998" lon="1.77382">
        <ele>185.37</ele>
        <time>2022-04-10T08:27:03Z</time>
      </trkpt>
      <trkpt lat="49.08997" lon="1.7738">
        <ele>185.9</ele>
        <time>2022-04-10T08:27:06Z</time>
      </trkpt>
      <trkpt lat="49.0899" lon="1.7736">
        <ele>186.25</ele>
        <time>2022-04-10T08:27:21Z</time>
      </trkpt>
      <trkpt lat="49.08986" lon="1.77346">
        <ele>186.45</ele>
        <time>2022-04-10T08:27:36Z</time>
      </trkpt>
      <trkpt lat="49.08981" lon="1.77331">
        <ele>185.74</ele>
        <time>2022-04-10T08:27:49Z</time>
      </trkpt>
      <trkpt lat="49.0898" lon="1.77315">
        <ele>186.21</ele>
        <time>2022-04-10T08:28:02Z</time>
      </trkpt>
      <trkpt lat="49.08978" lon="1.77301">
        <ele>186.2</ele>
        <time>2022-04-10T08:28:14Z</time>
      </trkpt>
      <trkpt lat="49.08978" lon="1.77284">
        <ele>185.83</ele>
        <time>2022-04-10T08:28:27Z</time>
      </trkpt>
      <trkpt lat="49.08973" lon="1.77281">
        <ele>185.55</ele>
        <time>2022-04-10T08:28:37Z</time>
      </trkpt>
      <trkpt lat="49.08962" lon="1.77276">
        <ele>185.93</ele>
        <time>2022-04-10T08:28:55Z</time>
      </trkpt>
      <trkpt lat="49.08948" lon="1.77274">
        <ele>185.63</ele>
        <time>2022-04-10T08:29:10Z</time>
      </trkpt>
      <trkpt lat="49.08937" lon="1.77271">
        <ele>185.1</ele>
        <time>2022-04-10T08:29:25Z</time>
      </trkpt>
      <trkpt lat="49.08936" lon="1.77271">
        <ele>185.26</ele>
        <time>2022-04-10T08:29:27Z</time>
      </trkpt>
      <trkpt lat="49.08931" lon="1.77272">
        <ele>185.47</ele>
        <time>2022-04-10T08:29:33Z</time>
      </trkpt>
      <trkpt lat="49.08916" lon="1.77264">
        <ele>184.84</ele>
        <time>2022-04-10T08:29:50Z</time>
      </trkpt>
      <trkpt lat="49.08898" lon="1.77248">
        <ele>184.44</ele>
        <time>2022-04-10T08:30:05Z</time>
      </trkpt>
      <trkpt lat="49.08888" lon="1.77226">
        <ele>182.99</ele>
        <time>2022-04-10T08:30:19Z</time>
      </trkpt>
      <trkpt lat="49.08879" lon="1.77206">
        <ele>182.66</ele>
        <time>2022-04-10T08:30:36Z</time>
      </trkpt>
      <trkpt lat="49.0887" lon="1.77186">
        <ele>183</ele>
        <time>2022-04-10T08:30:52Z</time>
      </trkpt>
      <trkpt lat="49.08859" lon="1.77179">
        <ele>182.07</ele>
        <time>2022-04-10T08:31:01Z</time>
      </trkpt>
      <trkpt lat="49.08857" lon="1.77174">
        <ele>182.68</ele>
        <time>2022-04-10T08:31:07Z</time>
      </trkpt>
      <trkpt lat="49.08856" lon="1.77173">
        <ele>182.63</ele>
        <time>2022-04-10T08:31:09Z</time>
      </trkpt>
      <trkpt lat="49.08853" lon="1.77172">
        <ele>183.01</ele>
        <time>2022-04-10T08:31:11Z</time>
      </trkpt>
      <trkpt lat="49.08851" lon="1.7717">
        <ele>182.2</ele>
        <time>2022-04-10T08:31:34Z</time>
      </trkpt>
      <trkpt lat="49.08856" lon="1.7717">
        <ele>182.55</ele>
        <time>2022-04-10T08:31:54Z</time>
      </trkpt>
      <trkpt lat="49.08855" lon="1.77167">
        <ele>182.35</ele>
        <time>2022-04-10T08:32:15Z</time>
      </trkpt>
      <trkpt lat="49.08856" lon="1.77164">
        <ele>182.15</ele>
        <time>2022-04-10T08:32:38Z</time>
      </trkpt>
      <trkpt lat="49.08857" lon="1.77163">
        <ele>183.02</ele>
        <time>2022-04-10T08:32:57Z</time>
      </trkpt>
      <trkpt lat="49.08852" lon="1.77163">
        <ele>182.82</ele>
        <time>2022-04-10T08:33:16Z</time>
      </trkpt>
      <trkpt lat="49.08845" lon="1.77164">
        <ele>182.91</ele>
        <time>2022-04-10T08:33:36Z</time>
      </trkpt>
      <trkpt lat="49.0885" lon="1.77171">
        <ele>183.24</ele>
        <time>2022-04-10T08:33:51Z</time>
      </trkpt>
      <trkpt lat="49.08851" lon="1.77171">
        <ele>182.92</ele>
        <time>2022-04-10T08:34:10Z</time>
      </trkpt>
      <trkpt lat="49.08851" lon="1.77168">
        <ele>183.49</ele>
        <time>2022-04-10T08:34:31Z</time>
      </trkpt>
      <trkpt lat="49.08853" lon="1.77168">
        <ele>183.8</ele>
        <time>2022-04-10T08:34:50Z</time>
      </trkpt>
      <trkpt lat="49.08854" lon="1.77168">
        <ele>183.72</ele>
        <time>2022-04-10T08:35:11Z</time>
      </trkpt>
      <trkpt lat="49.08854" lon="1.77163">
        <ele>184.3</ele>
        <time>2022-04-10T08:35:31Z</time>
      </trkpt>
      <trkpt lat="49.08852" lon="1.77158">
        <ele>184.62</ele>
        <time>2022-04-10T08:35:45Z</time>
      </trkpt>
      <trkpt lat="49.08855" lon="1.77158">
        <ele>184.47</ele>
        <time>2022-04-10T08:36:05Z</time>
      </trkpt>
      <trkpt lat="49.08854" lon="1.77157">
        <ele>184.36</ele>
        <time>2022-04-10T08:36:26Z</time>
      </trkpt>
      <trkpt lat="49.08857" lon="1.77155">
        <ele>184.78</ele>
        <time>2022-04-10T08:36:48Z</time>
      </trkpt>
      <trkpt lat="49.08855" lon="1.77145">
        <ele>184.72</ele>
        <time>2022-04-10T08:37:09Z</time>
      </trkpt>
      <trkpt lat="49.08849" lon="1.77132">
        <ele>185.28</ele>
        <time>2022-04-10T08:37:25Z</time>
      </trkpt>
      <trkpt lat="49.08841" lon="1.77114">
        <ele>185.06</ele>
        <time>2022-04-10T08:37:42Z</time>
      </trkpt>
      <trkpt lat="49.08841" lon="1.77113">
        <ele>185.83</ele>
        <time>2022-04-10T08:37:43Z</time>
      </trkpt>
      <trkpt lat="49.08836" lon="1.77099">
        <ele>186.33</ele>
        <time>2022-04-10T08:37:56Z</time>
      </trkpt>
      <trkpt lat="49.08826" lon="1.77083">
        <ele>187</ele>
        <time>2022-04-10T08:38:15Z</time>
      </trkpt>
      <trkpt lat="49.08818" lon="1.77066">
        <ele>187.09</ele>
        <time>2022-04-10T08:38:32Z</time>
      </trkpt>
      <trkpt lat="49.08809" lon="1.77055">
        <ele>187.5</ele>
        <time>2022-04-10T08:38:44Z</time>
      </trkpt>
      <trkpt lat="49.08795" lon="1.77038">
        <ele>187.5</ele>
        <time>2022-04-10T08:39:03Z</time>
      </trkpt>
      <trkpt lat="49.08781" lon="1.77013">
        <ele>187.8</ele>
        <time>2022-04-10T08:39:20Z</time>
      </trkpt>
      <trkpt lat="49.08774" lon="1.76993">
        <ele>187.64</ele>
        <time>2022-04-10T08:39:34Z</time>
      </trkpt>
      <trkpt lat="49.0877" lon="1.76974">
        <ele>187.95</ele>
        <time>2022-04-10T08:39:52Z</time>
      </trkpt>
      <trkpt lat="49.0876" lon="1.76956">
        <ele>188.41</ele>
        <time>2022-04-10T08:40:06Z</time>
      </trkpt>
      <trkpt lat="49.08747" lon="1.7693">
        <ele>188.62</ele>
        <time>2022-04-10T08:40:25Z</time>
      </trkpt>
      <trkpt lat="49.08738" lon="1.76912">
        <ele>188.59</ele>
        <time>2022-04-10T08:40:40Z</time>
      </trkpt>
      <trkpt lat="49.08731" lon="1.76895">
        <ele>188.38</ele>
        <time>2022-04-10T08:40:56Z</time>
      </trkpt>
      <trkpt lat="49.0872" lon="1.76874">
        <ele>188.96</ele>
        <time>2022-04-10T08:41:13Z</time>
      </trkpt>
      <trkpt lat="49.08712" lon="1.76848">
        <ele>188.78</ele>
        <time>2022-04-10T08:41:31Z</time>
      </trkpt>
      <trkpt lat="49.0871" lon="1.7682">
        <ele>188.67</ele>
        <time>2022-04-10T08:41:47Z</time>
      </trkpt>
      <trkpt lat="49.08712" lon="1.76797">
        <ele>188.83</ele>
        <time>2022-04-10T08:42:03Z</time>
      </trkpt>
      <trkpt lat="49.08713" lon="1.76772">
        <ele>188.88</ele>
        <time>2022-04-10T08:42:19Z</time>
      </trkpt>
      <trkpt lat="49.08713" lon="1.7675">
        <ele>187.54</ele>
        <time>2022-04-10T08:42:33Z</time>
      </trkpt>
      <trkpt lat="49.08713" lon="1.76726">
        <ele>187.92</ele>
        <time>2022-04-10T08:42:50Z</time>
      </trkpt>
      <trkpt lat="49.08712" lon="1.76718">
        <ele>188.43</ele>
        <time>2022-04-10T08:42:58Z</time>
      </trkpt>
      <trkpt lat="49.08713" lon="1.76713">
        <ele>189.02</ele>
        <time>2022-04-10T08:43:04Z</time>
      </trkpt>
      <trkpt lat="49.08716" lon="1.76697">
        <ele>189.08</ele>
        <time>2022-04-10T08:43:20Z</time>
      </trkpt>
      <trkpt lat="49.08719" lon="1.76685">
        <ele>189.61</ele>
        <time>2022-04-10T08:43:33Z</time>
      </trkpt>
      <trkpt lat="49.08719" lon="1.76676">
        <ele>189.34</ele>
        <time>2022-04-10T08:43:50Z</time>
      </trkpt>
      <trkpt lat="49.0872" lon="1.76664">
        <ele>189.27</ele>
        <time>2022-04-10T08:44:03Z</time>
      </trkpt>
      <trkpt lat="49.0872" lon="1.76664">
        <ele>189.51</ele>
        <time>2022-04-10T08:44:15Z</time>
      </trkpt>
      <trkpt lat="49.08719" lon="1.7666">
        <ele>189.71</ele>
        <time>2022-04-10T08:44:30Z</time>
      </trkpt>
      <trkpt lat="49.0872" lon="1.76648">
        <ele>189.83</ele>
        <time>2022-04-10T08:44:45Z</time>
      </trkpt>
      <trkpt lat="49.08718" lon="1.76638">
        <ele>189.9</ele>
        <time>2022-04-10T08:45:02Z</time>
      </trkpt>
      <trkpt lat="49.0872" lon="1.76627">
        <ele>189.43</ele>
        <time>2022-04-10T08:45:18Z</time>
      </trkpt>
      <trkpt lat="49.08719" lon="1.7662">
        <ele>189.7</ele>
        <time>2022-04-10T08:45:34Z</time>
      </trkpt>
      <trkpt lat="49.08721" lon="1.76608">
        <ele>190.08</ele>
        <time>2022-04-10T08:45:49Z</time>
      </trkpt>
      <trkpt lat="49.08721" lon="1.76602">
        <ele>190.9</ele>
        <time>2022-04-10T08:46:04Z</time>
      </trkpt>
      <trkpt lat="49.0872" lon="1.76599">
        <ele>189.97</ele>
        <time>2022-04-10T08:46:08Z</time>
      </trkpt>
      <trkpt lat="49.0872" lon="1.76588">
        <ele>190.1</ele>
        <time>2022-04-10T08:46:22Z</time>
      </trkpt>
      <trkpt lat="49.08721" lon="1.76576">
        <ele>190.63</ele>
        <time>2022-04-10T08:46:40Z</time>
      </trkpt>
      <trkpt lat="49.08723" lon="1.76558">
        <ele>190.47</ele>
        <time>2022-04-10T08:46:54Z</time>
      </trkpt>
      <trkpt lat="49.0872" lon="1.76539">
        <ele>190.41</ele>
        <time>2022-04-10T08:47:10Z</time>
      </trkpt>
      <trkpt lat="49.08715" lon="1.7652">
        <ele>190.21</ele>
        <time>2022-04-10T08:47:25Z</time>
      </trkpt>
      <trkpt lat="49.08713" lon="1.76503">
        <ele>188.6</ele>
        <time>2022-04-10T08:47:35Z</time>
      </trkpt>
      <trkpt lat="49.0871" lon="1.76495">
        <ele>190.19</ele>
        <time>2022-04-10T08:47:41Z</time>
      </trkpt>
      <trkpt lat="49.08703" lon="1.76479">
        <ele>189.73</ele>
        <time>2022-04-10T08:47:57Z</time>
      </trkpt>
      <trkpt lat="49.08701" lon="1.76469">
        <ele>189.54</ele>
        <time>2022-04-10T08:48:08Z</time>
      </trkpt>
      <trkpt lat="49.08699" lon="1.76463">
        <ele>189.75</ele>
        <time>2022-04-10T08:48:13Z</time>
      </trkpt>
      <trkpt lat="49.08693" lon="1.76447">
        <ele>189.83</ele>
        <time>2022-04-10T08:48:27Z</time>
      </trkpt>
      <trkpt lat="49.08691" lon="1.76432">
        <ele>189.49</ele>
        <time>2022-04-10T08:48:40Z</time>
      </trkpt>
      <trkpt lat="49.08688" lon="1.76416">
        <ele>189.58</ele>
        <time>2022-04-10T08:48:53Z</time>
      </trkpt>
      <trkpt lat="49.08684" lon="1.764">
        <ele>188.93</ele>
        <time>2022-04-10T08:49:07Z</time>
      </trkpt>
      <trkpt lat="49.08684" lon="1.76387">
        <ele>189.44</ele>
        <time>2022-04-10T08:49:21Z</time>
      </trkpt>
      <trkpt lat="49.08684" lon="1.76384">
        <ele>189.53</ele>
        <time>2022-04-10T08:49:24Z</time>
      </trkpt>
      <trkpt lat="49.08681" lon="1.76376">
        <ele>188.9</ele>
        <time>2022-04-10T08:49:43Z</time>
      </trkpt>
      <trkpt lat="49.08683" lon="1.76362">
        <ele>189.01</ele>
        <time>2022-04-10T08:49:58Z</time>
      </trkpt>
      <trkpt lat="49.08682" lon="1.76347">
        <ele>189.34</ele>
        <time>2022-04-10T08:50:11Z</time>
      </trkpt>
      <trkpt lat="49.08684" lon="1.76337">
        <ele>189.61</ele>
        <time>2022-04-10T08:50:25Z</time>
      </trkpt>
      <trkpt lat="49.08685" lon="1.76334">
        <ele>189.3</ele>
        <time>2022-04-10T08:50:43Z</time>
      </trkpt>
      <trkpt lat="49.08682" lon="1.76336">
        <ele>189.56</ele>
        <time>2022-04-10T08:50:54Z</time>
      </trkpt>
      <trkpt lat="49.08676" lon="1.76331">
        <ele>189.56</ele>
        <time>2022-04-10T08:51:13Z</time>
      </trkpt>
      <trkpt lat="49.08673" lon="1.76329">
        <ele>189.56</ele>
        <time>2022-04-10T08:51:29Z</time>
      </trkpt>
      <trkpt lat="49.08672" lon="1.76327">
        <ele>189.63</ele>
        <time>2022-04-10T08:51:51Z</time>
      </trkpt>
      <trkpt lat="49.08676" lon="1.76329">
        <ele>189.52</ele>
        <time>2022-04-10T08:52:12Z</time>
      </trkpt>
      <trkpt lat="49.08677" lon="1.76326">
        <ele>189.47</ele>
        <time>2022-04-10T08:52:29Z</time>
      </trkpt>
      <trkpt lat="49.08681" lon="1.76314">
        <ele>189.68</ele>
        <time>2022-04-10T08:52:46Z</time>
      </trkpt>
      <trkpt lat="49.08686" lon="1.76292">
        <ele>190.88</ele>
        <time>2022-04-10T08:52:59Z</time>
      </trkpt>
      <trkpt lat="49.08686" lon="1.76284">
        <ele>189.96</ele>
        <time>2022-04-10T08:53:11Z</time>
      </trkpt>
      <trkpt lat="49.08684" lon="1.76276">
        <ele>190.15</ele>
        <time>2022-04-10T08:53:27Z</time>
      </trkpt>
      <trkpt lat="49.08692" lon="1.7626">
        <ele>190.76</ele>
        <time>2022-04-10T08:53:40Z</time>
      </trkpt>
      <trkpt lat="49.08697" lon="1.76239">
        <ele>191.9</ele>
        <time>2022-04-10T08:53:54Z</time>
      </trkpt>
      <trkpt lat="49.087" lon="1.7623">
        <ele>191.59</ele>
        <time>2022-04-10T08:53:59Z</time>
      </trkpt>
      <trkpt lat="49.08705" lon="1.76214">
        <ele>192.07</ele>
        <time>2022-04-10T08:54:09Z</time>
      </trkpt>
      <trkpt lat="49.08706" lon="1.76196">
        <ele>192.01</ele>
        <time>2022-04-10T08:54:20Z</time>
      </trkpt>
      <trkpt lat="49.0871" lon="1.76176">
        <ele>192.56</ele>
        <time>2022-04-10T08:54:36Z</time>
      </trkpt>
      <trkpt lat="49.08713" lon="1.76161">
        <ele>192.58</ele>
        <time>2022-04-10T08:54:49Z</time>
      </trkpt>
      <trkpt lat="49.08718" lon="1.7615">
        <ele>192.43</ele>
        <time>2022-04-10T08:55:00Z</time>
      </trkpt>
      <trkpt lat="49.08723" lon="1.76127">
        <ele>193.17</ele>
        <time>2022-04-10T08:55:14Z</time>
      </trkpt>
      <trkpt lat="49.08723" lon="1.76126">
        <ele>193.19</ele>
        <time>2022-04-10T08:55:15Z</time>
      </trkpt>
      <trkpt lat="49.08724" lon="1.76119">
        <ele>193.3</ele>
        <time>2022-04-10T08:55:23Z</time>
      </trkpt>
      <trkpt lat="49.08729" lon="1.7611">
        <ele>192.89</ele>
        <time>2022-04-10T08:55:35Z</time>
      </trkpt>
      <trkpt lat="49.08736" lon="1.76096">
        <ele>193.22</ele>
        <time>2022-04-10T08:55:45Z</time>
      </trkpt>
      <trkpt lat="49.08737" lon="1.76092">
        <ele>192.75</ele>
        <time>2022-04-10T08:55:48Z</time>
      </trkpt>
      <trkpt lat="49.08742" lon="1.76079">
        <ele>193.19</ele>
        <time>2022-04-10T08:55:59Z</time>
      </trkpt>
      <trkpt lat="49.08745" lon="1.76074">
        <ele>193.92</ele>
        <time>2022-04-10T08:56:10Z</time>
      </trkpt>
      <trkpt lat="49.0875" lon="1.76066">
        <ele>194.02</ele>
        <time>2022-04-10T08:56:27Z</time>
      </trkpt>
      <trkpt lat="49.08751" lon="1.76062">
        <ele>194.1</ele>
        <time>2022-04-10T08:56:31Z</time>
      </trkpt>
      <trkpt lat="49.08758" lon="1.76058">
        <ele>193.99</ele>
        <time>2022-04-10T08:56:50Z</time>
      </trkpt>
      <trkpt lat="49.08771" lon="1.76054">
        <ele>194.05</ele>
        <time>2022-04-10T08:57:05Z</time>
      </trkpt>
      <trkpt lat="49.08783" lon="1.76052">
        <ele>194.87</ele>
        <time>2022-04-10T08:57:19Z</time>
      </trkpt>
      <trkpt lat="49.08798" lon="1.76056">
        <ele>195.53</ele>
        <time>2022-04-10T08:57:34Z</time>
      </trkpt>
      <trkpt lat="49.08816" lon="1.76065">
        <ele>195.09</ele>
        <time>2022-04-10T08:57:48Z</time>
      </trkpt>
      <trkpt lat="49.08826" lon="1.76072">
        <ele>195.71</ele>
        <time>2022-04-10T08:58:01Z</time>
      </trkpt>
      <trkpt lat="49.08841" lon="1.76078">
        <ele>196.09</ele>
        <time>2022-04-10T08:58:15Z</time>
      </trkpt>
      <trkpt lat="49.08855" lon="1.7608">
        <ele>196.28</ele>
        <time>2022-04-10T08:58:28Z</time>
      </trkpt>
      <trkpt lat="49.08878" lon="1.76084">
        <ele>196.36</ele>
        <time>2022-04-10T08:58:48Z</time>
      </trkpt>
      <trkpt lat="49.08894" lon="1.76088">
        <ele>196.61</ele>
        <time>2022-04-10T08:59:02Z</time>
      </trkpt>
      <trkpt lat="49.0891" lon="1.76088">
        <ele>196.61</ele>
        <time>2022-04-10T08:59:18Z</time>
      </trkpt>
      <trkpt lat="49.08929" lon="1.76092">
        <ele>196.73</ele>
        <time>2022-04-10T08:59:35Z</time>
      </trkpt>
      <trkpt lat="49.08943" lon="1.7609">
        <ele>197.03</ele>
        <time>2022-04-10T08:59:51Z</time>
      </trkpt>
      <trkpt lat="49.0896" lon="1.76093">
        <ele>196.72</ele>
        <time>2022-04-10T09:00:06Z</time>
      </trkpt>
      <trkpt lat="49.0898" lon="1.76099">
        <ele>196.2</ele>
        <time>2022-04-10T09:00:20Z</time>
      </trkpt>
      <trkpt lat="49.08987" lon="1.76103">
        <ele>197.23</ele>
        <time>2022-04-10T09:00:25Z</time>
      </trkpt>
      <trkpt lat="49.08997" lon="1.76109">
        <ele>196.59</ele>
        <time>2022-04-10T09:00:38Z</time>
      </trkpt>
      <trkpt lat="49.09016" lon="1.76112">
        <ele>196.24</ele>
        <time>2022-04-10T09:00:54Z</time>
      </trkpt>
      <trkpt lat="49.09024" lon="1.76113">
        <ele>196.47</ele>
        <time>2022-04-10T09:01:08Z</time>
      </trkpt>
      <trkpt lat="49.09025" lon="1.76113">
        <ele>196.58</ele>
        <time>2022-04-10T09:01:31Z</time>
      </trkpt>
      <trkpt lat="49.09026" lon="1.76112">
        <ele>196.45</ele>
        <time>2022-04-10T09:01:49Z</time>
      </trkpt>
      <trkpt lat="49.09033" lon="1.76109">
        <ele>196.53</ele>
        <time>2022-04-10T09:02:06Z</time>
      </trkpt>
      <trkpt lat="49.09043" lon="1.76103">
        <ele>195.63</ele>
        <time>2022-04-10T09:02:17Z</time>
      </trkpt>
      <trkpt lat="49.0905" lon="1.76099">
        <ele>195.39</ele>
        <time>2022-04-10T09:02:27Z</time>
      </trkpt>
      <trkpt lat="49.09051" lon="1.761">
        <ele>195.31</ele>
        <time>2022-04-10T09:02:47Z</time>
      </trkpt>
      <trkpt lat="49.09048" lon="1.76098">
        <ele>195.85</ele>
        <time>2022-04-10T09:03:01Z</time>
      </trkpt>
      <trkpt lat="49.09045" lon="1.76095">
        <ele>194.98</ele>
        <time>2022-04-10T09:03:13Z</time>
      </trkpt>
      <trkpt lat="49.09045" lon="1.76089">
        <ele>195.78</ele>
        <time>2022-04-10T09:03:16Z</time>
      </trkpt>
      <trkpt lat="49.09045" lon="1.76086">
        <ele>195.81</ele>
        <time>2022-04-10T09:03:18Z</time>
      </trkpt>
      <trkpt lat="49.09045" lon="1.76067">
        <ele>195.93</ele>
        <time>2022-04-10T09:03:30Z</time>
      </trkpt>
      <trkpt lat="49.09044" lon="1.76052">
        <ele>195.6</ele>
        <time>2022-04-10T09:03:40Z</time>
      </trkpt>
      <trkpt lat="49.09041" lon="1.76039">
        <ele>196.35</ele>
        <time>2022-04-10T09:03:50Z</time>
      </trkpt>
      <trkpt lat="49.09044" lon="1.76027">
        <ele>197.21</ele>
        <time>2022-04-10T09:03:57Z</time>
      </trkpt>
      <trkpt lat="49.09044" lon="1.76">
        <ele>197.5</ele>
        <time>2022-04-10T09:04:12Z</time>
      </trkpt>
      <trkpt lat="49.09042" lon="1.75974">
        <ele>197.62</ele>
        <time>2022-04-10T09:04:27Z</time>
      </trkpt>
      <trkpt lat="49.09039" lon="1.75955">
        <ele>197.74</ele>
        <time>2022-04-10T09:04:40Z</time>
      </trkpt>
      <trkpt lat="49.09038" lon="1.75931">
        <ele>197.67</ele>
        <time>2022-04-10T09:04:55Z</time>
      </trkpt>
      <trkpt lat="49.09037" lon="1.75928">
        <ele>198.01</ele>
        <time>2022-04-10T09:04:56Z</time>
      </trkpt>
      <trkpt lat="49.09031" lon="1.75903">
        <ele>197.87</ele>
        <time>2022-04-10T09:05:11Z</time>
      </trkpt>
      <trkpt lat="49.09029" lon="1.75877">
        <ele>197.3</ele>
        <time>2022-04-10T09:05:26Z</time>
      </trkpt>
      <trkpt lat="49.09024" lon="1.75841">
        <ele>197.99</ele>
        <time>2022-04-10T09:05:43Z</time>
      </trkpt>
      <trkpt lat="49.09021" lon="1.75819">
        <ele>197.3</ele>
        <time>2022-04-10T09:05:58Z</time>
      </trkpt>
      <trkpt lat="49.09018" lon="1.75799">
        <ele>196.73</ele>
        <time>2022-04-10T09:06:12Z</time>
      </trkpt>
      <trkpt lat="49.09017" lon="1.75789">
        <ele>197.49</ele>
        <time>2022-04-10T09:06:21Z</time>
      </trkpt>
      <trkpt lat="49.09023" lon="1.75758">
        <ele>197.32</ele>
        <time>2022-04-10T09:06:35Z</time>
      </trkpt>
      <trkpt lat="49.09019" lon="1.75745">
        <ele>197.21</ele>
        <time>2022-04-10T09:06:42Z</time>
      </trkpt>
      <trkpt lat="49.09005" lon="1.75719">
        <ele>196.98</ele>
        <time>2022-04-10T09:06:56Z</time>
      </trkpt>
      <trkpt lat="49.08991" lon="1.75711">
        <ele>197.23</ele>
        <time>2022-04-10T09:07:10Z</time>
      </trkpt>
      <trkpt lat="49.08979" lon="1.75705">
        <ele>197.3</ele>
        <time>2022-04-10T09:07:25Z</time>
      </trkpt>
      <trkpt lat="49.08964" lon="1.75701">
        <ele>197.41</ele>
        <time>2022-04-10T09:07:40Z</time>
      </trkpt>
      <trkpt lat="49.08948" lon="1.75693">
        <ele>196.56</ele>
        <time>2022-04-10T09:07:54Z</time>
      </trkpt>
      <trkpt lat="49.08929" lon="1.7569">
        <ele>196.93</ele>
        <time>2022-04-10T09:08:11Z</time>
      </trkpt>
      <trkpt lat="49.08926" lon="1.7569">
        <ele>196.71</ele>
        <time>2022-04-10T09:08:15Z</time>
      </trkpt>
      <trkpt lat="49.08924" lon="1.75688">
        <ele>196.23</ele>
        <time>2022-04-10T09:08:17Z</time>
      </trkpt>
      <trkpt lat="49.08918" lon="1.75688">
        <ele>196.74</ele>
        <time>2022-04-10T09:08:23Z</time>
      </trkpt>
      <trkpt lat="49.08897" lon="1.75684">
        <ele>196.45</ele>
        <time>2022-04-10T09:08:38Z</time>
      </trkpt>
      <trkpt lat="49.08876" lon="1.75678">
        <ele>195.44</ele>
        <time>2022-04-10T09:08:54Z</time>
      </trkpt>
      <trkpt lat="49.08858" lon="1.75674">
        <ele>194.88</ele>
        <time>2022-04-10T09:09:09Z</time>
      </trkpt>
      <trkpt lat="49.08841" lon="1.75665">
        <ele>195.2</ele>
        <time>2022-04-10T09:09:26Z</time>
      </trkpt>
      <trkpt lat="49.08831" lon="1.75662">
        <ele>194.34</ele>
        <time>2022-04-10T09:09:33Z</time>
      </trkpt>
      <trkpt lat="49.08825" lon="1.75657">
        <ele>195.21</ele>
        <time>2022-04-10T09:09:37Z</time>
      </trkpt>
      <trkpt lat="49.08816" lon="1.75642">
        <ele>194.27</ele>
        <time>2022-04-10T09:09:48Z</time>
      </trkpt>
      <trkpt lat="49.08807" lon="1.75628">
        <ele>194.35</ele>
        <time>2022-04-10T09:10:02Z</time>
      </trkpt>
      <trkpt lat="49.08803" lon="1.75607">
        <ele>194.12</ele>
        <time>2022-04-10T09:10:16Z</time>
      </trkpt>
      <trkpt lat="49.08796" lon="1.75581">
        <ele>193.31</ele>
        <time>2022-04-10T09:10:30Z</time>
      </trkpt>
      <trkpt lat="49.08792" lon="1.75558">
        <ele>193.94</ele>
        <time>2022-04-10T09:10:43Z</time>
      </trkpt>
      <trkpt lat="49.08787" lon="1.75542">
        <ele>193.8</ele>
        <time>2022-04-10T09:10:55Z</time>
      </trkpt>
      <trkpt lat="49.08778" lon="1.7552">
        <ele>192.85</ele>
        <time>2022-04-10T09:11:10Z</time>
      </trkpt>
      <trkpt lat="49.08768" lon="1.75503">
        <ele>193.09</ele>
        <time>2022-04-10T09:11:24Z</time>
      </trkpt>
      <trkpt lat="49.08752" lon="1.75484">
        <ele>192.92</ele>
        <time>2022-04-10T09:11:41Z</time>
      </trkpt>
      <trkpt lat="49.08739" lon="1.75471">
        <ele>192.74</ele>
        <time>2022-04-10T09:11:56Z</time>
      </trkpt>
      <trkpt lat="49.08727" lon="1.7546">
        <ele>192.14</ele>
        <time>2022-04-10T09:12:08Z</time>
      </trkpt>
      <trkpt lat="49.08707" lon="1.75448">
        <ele>190.76</ele>
        <time>2022-04-10T09:12:23Z</time>
      </trkpt>
      <trkpt lat="49.08691" lon="1.75436">
        <ele>190.27</ele>
        <time>2022-04-10T09:12:38Z</time>
      </trkpt>
      <trkpt lat="49.08677" lon="1.75428">
        <ele>189.84</ele>
        <time>2022-04-10T09:12:52Z</time>
      </trkpt>
      <trkpt lat="49.08664" lon="1.75419">
        <ele>189.52</ele>
        <time>2022-04-10T09:13:05Z</time>
      </trkpt>
      <trkpt lat="49.08655" lon="1.75415">
        <ele>189.76</ele>
        <time>2022-04-10T09:13:12Z</time>
      </trkpt>
      <trkpt lat="49.08632" lon="1.75401">
        <ele>189.24</ele>
        <time>2022-04-10T09:13:28Z</time>
      </trkpt>
      <trkpt lat="49.08622" lon="1.75389">
        <ele>188.87</ele>
        <time>2022-04-10T09:13:43Z</time>
      </trkpt>
      <trkpt lat="49.08609" lon="1.75374">
        <ele>188.42</ele>
        <time>2022-04-10T09:13:58Z</time>
      </trkpt>
      <trkpt lat="49.08603" lon="1.75367">
        <ele>188.51</ele>
        <time>2022-04-10T09:14:02Z</time>
      </trkpt>
      <trkpt lat="49.08588" lon="1.75353">
        <ele>188.92</ele>
        <time>2022-04-10T09:14:16Z</time>
      </trkpt>
      <trkpt lat="49.08581" lon="1.75346">
        <ele>188.61</ele>
        <time>2022-04-10T09:14:30Z</time>
      </trkpt>
      <trkpt lat="49.08569" lon="1.75346">
        <ele>188.33</ele>
        <time>2022-04-10T09:14:44Z</time>
      </trkpt>
      <trkpt lat="49.08553" lon="1.75339">
        <ele>188.17</ele>
        <time>2022-04-10T09:15:00Z</time>
      </trkpt>
      <trkpt lat="49.0855" lon="1.75343">
        <ele>188.25</ele>
        <time>2022-04-10T09:15:09Z</time>
      </trkpt>
      <trkpt lat="49.08539" lon="1.75345">
        <ele>188.17</ele>
        <time>2022-04-10T09:15:25Z</time>
      </trkpt>
      <trkpt lat="49.08523" lon="1.75345">
        <ele>187.96</ele>
        <time>2022-04-10T09:15:42Z</time>
      </trkpt>
      <trkpt lat="49.08511" lon="1.75343">
        <ele>187.57</ele>
        <time>2022-04-10T09:16:00Z</time>
      </trkpt>
      <trkpt lat="49.08507" lon="1.75343">
        <ele>187.44</ele>
        <time>2022-04-10T09:16:06Z</time>
      </trkpt>
      <trkpt lat="49.08497" lon="1.75344">
        <ele>187.48</ele>
        <time>2022-04-10T09:16:21Z</time>
      </trkpt>
      <trkpt lat="49.08484" lon="1.75341">
        <ele>187.2</ele>
        <time>2022-04-10T09:16:36Z</time>
      </trkpt>
      <trkpt lat="49.0848" lon="1.7534">
        <ele>187.47</ele>
        <time>2022-04-10T09:16:41Z</time>
      </trkpt>
      <trkpt lat="49.08476" lon="1.75339">
        <ele>187.58</ele>
        <time>2022-04-10T09:16:47Z</time>
      </trkpt>
      <trkpt lat="49.08471" lon="1.75334">
        <ele>187.1</ele>
        <time>2022-04-10T09:17:02Z</time>
      </trkpt>
      <trkpt lat="49.08464" lon="1.7533">
        <ele>186.84</ele>
        <time>2022-04-10T09:17:07Z</time>
      </trkpt>
      <trkpt lat="49.08457" lon="1.75335">
        <ele>187.31</ele>
        <time>2022-04-10T09:17:30Z</time>
      </trkpt>
      <trkpt lat="49.08454" lon="1.75342">
        <ele>186.94</ele>
        <time>2022-04-10T09:17:44Z</time>
      </trkpt>
      <trkpt lat="49.08453" lon="1.75344">
        <ele>186.31</ele>
        <time>2022-04-10T09:17:47Z</time>
      </trkpt>
      <trkpt lat="49.08444" lon="1.75345">
        <ele>186.98</ele>
        <time>2022-04-10T09:17:58Z</time>
      </trkpt>
      <trkpt lat="49.0843" lon="1.75334">
        <ele>186.96</ele>
        <time>2022-04-10T09:18:16Z</time>
      </trkpt>
      <trkpt lat="49.08418" lon="1.75328">
        <ele>186.48</ele>
        <time>2022-04-10T09:18:32Z</time>
      </trkpt>
      <trkpt lat="49.08404" lon="1.7532">
        <ele>186.31</ele>
        <time>2022-04-10T09:18:47Z</time>
      </trkpt>
      <trkpt lat="49.0839" lon="1.75316">
        <ele>185.51</ele>
        <time>2022-04-10T09:19:02Z</time>
      </trkpt>
      <trkpt lat="49.08378" lon="1.75305">
        <ele>185.68</ele>
        <time>2022-04-10T09:19:17Z</time>
      </trkpt>
      <trkpt lat="49.08369" lon="1.75302">
        <ele>185.02</ele>
        <time>2022-04-10T09:19:27Z</time>
      </trkpt>
      <trkpt lat="49.08354" lon="1.75293">
        <ele>184.99</ele>
        <time>2022-04-10T09:19:41Z</time>
      </trkpt>
      <trkpt lat="49.08349" lon="1.75294">
        <ele>184.86</ele>
        <time>2022-04-10T09:19:51Z</time>
      </trkpt>
      <trkpt lat="49.08345" lon="1.75298">
        <ele>185.12</ele>
        <time>2022-04-10T09:19:59Z</time>
      </trkpt>
      <trkpt lat="49.0833" lon="1.7529">
        <ele>183.62</ele>
        <time>2022-04-10T09:20:15Z</time>
      </trkpt>
      <trkpt lat="49.08318" lon="1.7528">
        <ele>184.38</ele>
        <time>2022-04-10T09:20:28Z</time>
      </trkpt>
      <trkpt lat="49.08304" lon="1.75276">
        <ele>182.85</ele>
        <time>2022-04-10T09:20:42Z</time>
      </trkpt>
      <trkpt lat="49.08288" lon="1.75264">
        <ele>181.88</ele>
        <time>2022-04-10T09:20:59Z</time>
      </trkpt>
      <trkpt lat="49.08279" lon="1.75255">
        <ele>181.46</ele>
        <time>2022-04-10T09:21:11Z</time>
      </trkpt>
      <trkpt lat="49.08267" lon="1.75248">
        <ele>180.37</ele>
        <time>2022-04-10T09:21:23Z</time>
      </trkpt>
      <trkpt lat="49.08249" lon="1.75237">
        <ele>179.13</ele>
        <time>2022-04-10T09:21:38Z</time>
      </trkpt>
      <trkpt lat="49.08241" lon="1.75226">
        <ele>177.71</ele>
        <time>2022-04-10T09:21:53Z</time>
      </trkpt>
      <trkpt lat="49.0824" lon="1.75231">
        <ele>178.31</ele>
        <time>2022-04-10T09:22:11Z</time>
      </trkpt>
      <trkpt lat="49.08234" lon="1.75219">
        <ele>177.09</ele>
        <time>2022-04-10T09:22:30Z</time>
      </trkpt>
      <trkpt lat="49.08233" lon="1.75214">
        <ele>177.68</ele>
        <time>2022-04-10T09:22:51Z</time>
      </trkpt>
      <trkpt lat="49.08234" lon="1.75208">
        <ele>177.25</ele>
        <time>2022-04-10T09:23:13Z</time>
      </trkpt>
      <trkpt lat="49.08228" lon="1.75205">
        <ele>176.63</ele>
        <time>2022-04-10T09:23:25Z</time>
      </trkpt>
      <trkpt lat="49.08215" lon="1.75195">
        <ele>175.68</ele>
        <time>2022-04-10T09:23:41Z</time>
      </trkpt>
      <trkpt lat="49.08205" lon="1.75186">
        <ele>173.53</ele>
        <time>2022-04-10T09:23:58Z</time>
      </trkpt>
      <trkpt lat="49.082" lon="1.75181">
        <ele>173.53</ele>
        <time>2022-04-10T09:24:07Z</time>
      </trkpt>
      <trkpt lat="49.08189" lon="1.75168">
        <ele>172.03</ele>
        <time>2022-04-10T09:24:22Z</time>
      </trkpt>
      <trkpt lat="49.08182" lon="1.75161">
        <ele>171.31</ele>
        <time>2022-04-10T09:24:39Z</time>
      </trkpt>
      <trkpt lat="49.08181" lon="1.75151">
        <ele>171.05</ele>
        <time>2022-04-10T09:24:52Z</time>
      </trkpt>
      <trkpt lat="49.08178" lon="1.75138">
        <ele>169.34</ele>
        <time>2022-04-10T09:25:08Z</time>
      </trkpt>
      <trkpt lat="49.08176" lon="1.75123">
        <ele>168.05</ele>
        <time>2022-04-10T09:25:22Z</time>
      </trkpt>
      <trkpt lat="49.08176" lon="1.75117">
        <ele>167.63</ele>
        <time>2022-04-10T09:25:28Z</time>
      </trkpt>
      <trkpt lat="49.08175" lon="1.75114">
        <ele>167.21</ele>
        <time>2022-04-10T09:25:30Z</time>
      </trkpt>
      <trkpt lat="49.08174" lon="1.75094">
        <ele>166.28</ele>
        <time>2022-04-10T09:25:46Z</time>
      </trkpt>
      <trkpt lat="49.08172" lon="1.75077">
        <ele>164.96</ele>
        <time>2022-04-10T09:26:01Z</time>
      </trkpt>
      <trkpt lat="49.0817" lon="1.75057">
        <ele>162.99</ele>
        <time>2022-04-10T09:26:17Z</time>
      </trkpt>
      <trkpt lat="49.08167" lon="1.75036">
        <ele>162.01</ele>
        <time>2022-04-10T09:26:31Z</time>
      </trkpt>
      <trkpt lat="49.08163" lon="1.75017">
        <ele>160.71</ele>
        <time>2022-04-10T09:26:46Z</time>
      </trkpt>
      <trkpt lat="49.08162" lon="1.75">
        <ele>159.13</ele>
        <time>2022-04-10T09:27:00Z</time>
      </trkpt>
      <trkpt lat="49.08155" lon="1.7498">
        <ele>157.4</ele>
        <time>2022-04-10T09:27:18Z</time>
      </trkpt>
      <trkpt lat="49.08152" lon="1.74965">
        <ele>156.21</ele>
        <time>2022-04-10T09:27:29Z</time>
      </trkpt>
      <trkpt lat="49.0815" lon="1.7495">
        <ele>155.53</ele>
        <time>2022-04-10T09:27:41Z</time>
      </trkpt>
      <trkpt lat="49.08148" lon="1.7493">
        <ele>153.97</ele>
        <time>2022-04-10T09:27:56Z</time>
      </trkpt>
      <trkpt lat="49.08145" lon="1.74911">
        <ele>151.85</ele>
        <time>2022-04-10T09:28:11Z</time>
      </trkpt>
      <trkpt lat="49.08142" lon="1.74895">
        <ele>151.01</ele>
        <time>2022-04-10T09:28:24Z</time>
      </trkpt>
      <trkpt lat="49.08134" lon="1.74879">
        <ele>150.78</ele>
        <time>2022-04-10T09:28:39Z</time>
      </trkpt>
      <trkpt lat="49.08126" lon="1.74865">
        <ele>148.83</ele>
        <time>2022-04-10T09:28:55Z</time>
      </trkpt>
      <trkpt lat="49.08121" lon="1.74856">
        <ele>147.83</ele>
        <time>2022-04-10T09:29:09Z</time>
      </trkpt>
      <trkpt lat="49.08121" lon="1.74855">
        <ele>147.57</ele>
        <time>2022-04-10T09:29:10Z</time>
      </trkpt>
      <trkpt lat="49.0811" lon="1.7484">
        <ele>146.79</ele>
        <time>2022-04-10T09:29:25Z</time>
      </trkpt>
      <trkpt lat="49.08097" lon="1.74823">
        <ele>144.8</ele>
        <time>2022-04-10T09:29:41Z</time>
      </trkpt>
      <trkpt lat="49.08087" lon="1.74807">
        <ele>143.5</ele>
        <time>2022-04-10T09:29:55Z</time>
      </trkpt>
      <trkpt lat="49.08077" lon="1.74793">
        <ele>141.03</ele>
        <time>2022-04-10T09:30:13Z</time>
      </trkpt>
      <trkpt lat="49.08067" lon="1.74776">
        <ele>139.7</ele>
        <time>2022-04-10T09:30:29Z</time>
      </trkpt>
      <trkpt lat="49.08054" lon="1.74761">
        <ele>137.96</ele>
        <time>2022-04-10T09:30:45Z</time>
      </trkpt>
      <trkpt lat="49.08047" lon="1.74746">
        <ele>137.57</ele>
        <time>2022-04-10T09:31:01Z</time>
      </trkpt>
      <trkpt lat="49.08036" lon="1.74724">
        <ele>136.96</ele>
        <time>2022-04-10T09:31:14Z</time>
      </trkpt>
      <trkpt lat="49.08035" lon="1.7472">
        <ele>136.3</ele>
        <time>2022-04-10T09:31:26Z</time>
      </trkpt>
      <trkpt lat="49.08035" lon="1.7472">
        <ele>136.34</ele>
        <time>2022-04-10T09:31:50Z</time>
      </trkpt>
      <trkpt lat="49.08034" lon="1.74719">
        <ele>136.72</ele>
        <time>2022-04-10T09:32:05Z</time>
      </trkpt>
      <trkpt lat="49.08035" lon="1.74718">
        <ele>136.27</ele>
        <time>2022-04-10T09:32:22Z</time>
      </trkpt>
      <trkpt lat="49.08036" lon="1.74719">
        <ele>136.73</ele>
        <time>2022-04-10T09:32:43Z</time>
      </trkpt>
      <trkpt lat="49.08033" lon="1.74717">
        <ele>136.68</ele>
        <time>2022-04-10T09:32:58Z</time>
      </trkpt>
      <trkpt lat="49.08028" lon="1.7471">
        <ele>135.99</ele>
        <time>2022-04-10T09:33:07Z</time>
      </trkpt>
      <trkpt lat="49.08024" lon="1.74709">
        <ele>135.6</ele>
        <time>2022-04-10T09:33:19Z</time>
      </trkpt>
      <trkpt lat="49.08014" lon="1.74702">
        <ele>135.18</ele>
        <time>2022-04-10T09:33:30Z</time>
      </trkpt>
      <trkpt lat="49.08013" lon="1.747">
        <ele>134.93</ele>
        <time>2022-04-10T09:33:31Z</time>
      </trkpt>
      <trkpt lat="49.08009" lon="1.74691">
        <ele>135.09</ele>
        <time>2022-04-10T09:33:41Z</time>
      </trkpt>
      <trkpt lat="49.08005" lon="1.74679">
        <ele>134.67</ele>
        <time>2022-04-10T09:33:51Z</time>
      </trkpt>
      <trkpt lat="49.08002" lon="1.74676">
        <ele>134.59</ele>
        <time>2022-04-10T09:34:04Z</time>
      </trkpt>
      <trkpt lat="49.07995" lon="1.74679">
        <ele>135.24</ele>
        <time>2022-04-10T09:34:16Z</time>
      </trkpt>
      <trkpt lat="49.0798" lon="1.74682">
        <ele>135.12</ele>
        <time>2022-04-10T09:34:32Z</time>
      </trkpt>
      <trkpt lat="49.07971" lon="1.74673">
        <ele>134.51</ele>
        <time>2022-04-10T09:34:45Z</time>
      </trkpt>
      <trkpt lat="49.07966" lon="1.74654">
        <ele>133.39</ele>
        <time>2022-04-10T09:34:58Z</time>
      </trkpt>
      <trkpt lat="49.07964" lon="1.74648">
        <ele>133.63</ele>
        <time>2022-04-10T09:35:09Z</time>
      </trkpt>
      <trkpt lat="49.07961" lon="1.7463">
        <ele>132.55</ele>
        <time>2022-04-10T09:35:21Z</time>
      </trkpt>
      <trkpt lat="49.07956" lon="1.74618">
        <ele>132.38</ele>
        <time>2022-04-10T09:35:33Z</time>
      </trkpt>
      <trkpt lat="49.07951" lon="1.74605">
        <ele>132.33</ele>
        <time>2022-04-10T09:35:46Z</time>
      </trkpt>
      <trkpt lat="49.07949" lon="1.74601">
        <ele>131.91</ele>
        <time>2022-04-10T09:35:49Z</time>
      </trkpt>
      <trkpt lat="49.07945" lon="1.74593">
        <ele>131.75</ele>
        <time>2022-04-10T09:35:55Z</time>
      </trkpt>
      <trkpt lat="49.07934" lon="1.74576">
        <ele>131.49</ele>
        <time>2022-04-10T09:36:06Z</time>
      </trkpt>
      <trkpt lat="49.07923" lon="1.74567">
        <ele>131.41</ele>
        <time>2022-04-10T09:36:16Z</time>
      </trkpt>
      <trkpt lat="49.07911" lon="1.74559">
        <ele>131.41</ele>
        <time>2022-04-10T09:36:27Z</time>
      </trkpt>
      <trkpt lat="49.07897" lon="1.74554">
        <ele>132.22</ele>
        <time>2022-04-10T09:36:39Z</time>
      </trkpt>
      <trkpt lat="49.07885" lon="1.74549">
        <ele>132.14</ele>
        <time>2022-04-10T09:36:49Z</time>
      </trkpt>
      <trkpt lat="49.07871" lon="1.74543">
        <ele>131.85</ele>
        <time>2022-04-10T09:36:59Z</time>
      </trkpt>
      <trkpt lat="49.07866" lon="1.74538">
        <ele>131.98</ele>
        <time>2022-04-10T09:37:03Z</time>
      </trkpt>
      <trkpt lat="49.07853" lon="1.74527">
        <ele>132.96</ele>
        <time>2022-04-10T09:37:17Z</time>
      </trkpt>
      <trkpt lat="49.07847" lon="1.74516">
        <ele>133.66</ele>
        <time>2022-04-10T09:37:28Z</time>
      </trkpt>
      <trkpt lat="49.07844" lon="1.7451">
        <ele>133.66</ele>
        <time>2022-04-10T09:37:40Z</time>
      </trkpt>
      <trkpt lat="49.07844" lon="1.74504">
        <ele>133.77</ele>
        <time>2022-04-10T09:37:57Z</time>
      </trkpt>
      <trkpt lat="49.07846" lon="1.74496">
        <ele>133.96</ele>
        <time>2022-04-10T09:38:11Z</time>
      </trkpt>
      <trkpt lat="49.07845" lon="1.74496">
        <ele>133.83</ele>
        <time>2022-04-10T09:38:27Z</time>
      </trkpt>
      <trkpt lat="49.07845" lon="1.74493">
        <ele>133.84</ele>
        <time>2022-04-10T09:38:32Z</time>
      </trkpt>
      <trkpt lat="49.0784" lon="1.74478">
        <ele>135.02</ele>
        <time>2022-04-10T09:38:43Z</time>
      </trkpt>
      <trkpt lat="49.07833" lon="1.74469">
        <ele>135.14</ele>
        <time>2022-04-10T09:38:50Z</time>
      </trkpt>
      <trkpt lat="49.07824" lon="1.74457">
        <ele>135.22</ele>
        <time>2022-04-10T09:39:01Z</time>
      </trkpt>
      <trkpt lat="49.07815" lon="1.74446">
        <ele>136.76</ele>
        <time>2022-04-10T09:39:11Z</time>
      </trkpt>
      <trkpt lat="49.07807" lon="1.74437">
        <ele>137.45</ele>
        <time>2022-04-10T09:39:21Z</time>
      </trkpt>
      <trkpt lat="49.07797" lon="1.74424">
        <ele>137.93</ele>
        <time>2022-04-10T09:39:33Z</time>
      </trkpt>
      <trkpt lat="49.07787" lon="1.74413">
        <ele>138.41</ele>
        <time>2022-04-10T09:39:43Z</time>
      </trkpt>
      <trkpt lat="49.07783" lon="1.7441">
        <ele>139.31</ele>
        <time>2022-04-10T09:39:47Z</time>
      </trkpt>
      <trkpt lat="49.07777" lon="1.74405">
        <ele>139.08</ele>
        <time>2022-04-10T09:39:53Z</time>
      </trkpt>
      <trkpt lat="49.07758" lon="1.74394">
        <ele>138.71</ele>
        <time>2022-04-10T09:40:11Z</time>
      </trkpt>
      <trkpt lat="49.07745" lon="1.74389">
        <ele>138.35</ele>
        <time>2022-04-10T09:40:23Z</time>
      </trkpt>
      <trkpt lat="49.0773" lon="1.74382">
        <ele>138.23</ele>
        <time>2022-04-10T09:40:36Z</time>
      </trkpt>
      <trkpt lat="49.07715" lon="1.74376">
        <ele>137.67</ele>
        <time>2022-04-10T09:40:50Z</time>
      </trkpt>
      <trkpt lat="49.07702" lon="1.74371">
        <ele>137.09</ele>
        <time>2022-04-10T09:41:03Z</time>
      </trkpt>
      <trkpt lat="49.07685" lon="1.74364">
        <ele>137.09</ele>
        <time>2022-04-10T09:41:18Z</time>
      </trkpt>
      <trkpt lat="49.07683" lon="1.7436">
        <ele>137.82</ele>
        <time>2022-04-10T09:41:23Z</time>
      </trkpt>
      <trkpt lat="49.07687" lon="1.74351">
        <ele>137.34</ele>
        <time>2022-04-10T09:41:30Z</time>
      </trkpt>
      <trkpt lat="49.07689" lon="1.74345">
        <ele>137.67</ele>
        <time>2022-04-10T09:41:35Z</time>
      </trkpt>
      <trkpt lat="49.07692" lon="1.74332">
        <ele>137.72</ele>
        <time>2022-04-10T09:41:46Z</time>
      </trkpt>
      <trkpt lat="49.07692" lon="1.74331">
        <ele>137.52</ele>
        <time>2022-04-10T09:41:47Z</time>
      </trkpt>
      <trkpt lat="49.07693" lon="1.74326">
        <ele>137.94</ele>
        <time>2022-04-10T09:41:50Z</time>
      </trkpt>
      <trkpt lat="49.07697" lon="1.74312">
        <ele>138.06</ele>
        <time>2022-04-10T09:42:01Z</time>
      </trkpt>
      <trkpt lat="49.07699" lon="1.74302">
        <ele>138.37</ele>
        <time>2022-04-10T09:42:07Z</time>
      </trkpt>
      <trkpt lat="49.07701" lon="1.74295">
        <ele>138.22</ele>
        <time>2022-04-10T09:42:11Z</time>
      </trkpt>
      <trkpt lat="49.07703" lon="1.74282">
        <ele>138.26</ele>
        <time>2022-04-10T09:42:21Z</time>
      </trkpt>
      <trkpt lat="49.07705" lon="1.74259">
        <ele>138.63</ele>
        <time>2022-04-10T09:42:36Z</time>
      </trkpt>
      <trkpt lat="49.07705" lon="1.7425">
        <ele>138.53</ele>
        <time>2022-04-10T09:42:41Z</time>
      </trkpt>
      <trkpt lat="49.07704" lon="1.7423">
        <ele>138.5</ele>
        <time>2022-04-10T09:42:53Z</time>
      </trkpt>
      <trkpt lat="49.07703" lon="1.74227">
        <ele>138.25</ele>
        <time>2022-04-10T09:42:55Z</time>
      </trkpt>
      <trkpt lat="49.077" lon="1.74217">
        <ele>138.25</ele>
        <time>2022-04-10T09:43:00Z</time>
      </trkpt>
      <trkpt lat="49.07693" lon="1.74194">
        <ele>138.04</ele>
        <time>2022-04-10T09:43:12Z</time>
      </trkpt>
      <trkpt lat="49.07685" lon="1.74176">
        <ele>138.25</ele>
        <time>2022-04-10T09:43:23Z</time>
      </trkpt>
      <trkpt lat="49.07679" lon="1.74162">
        <ele>137.05</ele>
        <time>2022-04-10T09:43:33Z</time>
      </trkpt>
      <trkpt lat="49.07675" lon="1.74149">
        <ele>136.54</ele>
        <time>2022-04-10T09:43:42Z</time>
      </trkpt>
      <trkpt lat="49.07667" lon="1.74135">
        <ele>136.2</ele>
        <time>2022-04-10T09:43:51Z</time>
      </trkpt>
      <trkpt lat="49.0766" lon="1.7412">
        <ele>136.29</ele>
        <time>2022-04-10T09:44:02Z</time>
      </trkpt>
      <trkpt lat="49.07651" lon="1.74101">
        <ele>135.85</ele>
        <time>2022-04-10T09:44:14Z</time>
      </trkpt>
      <trkpt lat="49.07644" lon="1.74087">
        <ele>135.34</ele>
        <time>2022-04-10T09:44:23Z</time>
      </trkpt>
      <trkpt lat="49.07634" lon="1.74068">
        <ele>134.73</ele>
        <time>2022-04-10T09:44:37Z</time>
      </trkpt>
      <trkpt lat="49.07626" lon="1.74052">
        <ele>134.38</ele>
        <time>2022-04-10T09:44:48Z</time>
      </trkpt>
      <trkpt lat="49.07618" lon="1.74035">
        <ele>133.8</ele>
        <time>2022-04-10T09:44:59Z</time>
      </trkpt>
      <trkpt lat="49.0761" lon="1.74016">
        <ele>133.77</ele>
        <time>2022-04-10T09:45:12Z</time>
      </trkpt>
      <trkpt lat="49.07601" lon="1.74">
        <ele>134.27</ele>
        <time>2022-04-10T09:45:24Z</time>
      </trkpt>
      <trkpt lat="49.07593" lon="1.73983">
        <ele>133.79</ele>
        <time>2022-04-10T09:45:36Z</time>
      </trkpt>
      <trkpt lat="49.07585" lon="1.73968">
        <ele>132.95</ele>
        <time>2022-04-10T09:45:47Z</time>
      </trkpt>
      <trkpt lat="49.07576" lon="1.73949">
        <ele>133.09</ele>
        <time>2022-04-10T09:46:00Z</time>
      </trkpt>
      <trkpt lat="49.07574" lon="1.73944">
        <ele>133.08</ele>
        <time>2022-04-10T09:46:03Z</time>
      </trkpt>
      <trkpt lat="49.07566" lon="1.7393">
        <ele>132.54</ele>
        <time>2022-04-10T09:46:13Z</time>
      </trkpt>
      <trkpt lat="49.07557" lon="1.73911">
        <ele>132.32</ele>
        <time>2022-04-10T09:46:25Z</time>
      </trkpt>
      <trkpt lat="49.07548" lon="1.73892">
        <ele>132.59</ele>
        <time>2022-04-10T09:46:37Z</time>
      </trkpt>
      <trkpt lat="49.07542" lon="1.73875">
        <ele>132.32</ele>
        <time>2022-04-10T09:46:47Z</time>
      </trkpt>
      <trkpt lat="49.07536" lon="1.73861">
        <ele>132.66</ele>
        <time>2022-04-10T09:46:57Z</time>
      </trkpt>
      <trkpt lat="49.0753" lon="1.73845">
        <ele>131.97</ele>
        <time>2022-04-10T09:47:08Z</time>
      </trkpt>
      <trkpt lat="49.07525" lon="1.73835">
        <ele>131.9</ele>
        <time>2022-04-10T09:47:15Z</time>
      </trkpt>
      <trkpt lat="49.07518" lon="1.73819">
        <ele>132.17</ele>
        <time>2022-04-10T09:47:25Z</time>
      </trkpt>
      <trkpt lat="49.0751" lon="1.73803">
        <ele>131.88</ele>
        <time>2022-04-10T09:47:36Z</time>
      </trkpt>
      <trkpt lat="49.07509" lon="1.73799">
        <ele>131.73</ele>
        <time>2022-04-10T09:47:39Z</time>
      </trkpt>
      <trkpt lat="49.07502" lon="1.73783">
        <ele>131.87</ele>
        <time>2022-04-10T09:47:50Z</time>
      </trkpt>
      <trkpt lat="49.07497" lon="1.73768">
        <ele>131.66</ele>
        <time>2022-04-10T09:47:58Z</time>
      </trkpt>
      <trkpt lat="49.07491" lon="1.73753">
        <ele>131.32</ele>
        <time>2022-04-10T09:48:09Z</time>
      </trkpt>
      <trkpt lat="49.07487" lon="1.73737">
        <ele>132.29</ele>
        <time>2022-04-10T09:48:20Z</time>
      </trkpt>
      <trkpt lat="49.07484" lon="1.73725">
        <ele>132.89</ele>
        <time>2022-04-10T09:48:27Z</time>
      </trkpt>
      <trkpt lat="49.07482" lon="1.73719">
        <ele>132.61</ele>
        <time>2022-04-10T09:48:31Z</time>
      </trkpt>
      <trkpt lat="49.07482" lon="1.73715">
        <ele>132.57</ele>
        <time>2022-04-10T09:48:34Z</time>
      </trkpt>
      <trkpt lat="49.07481" lon="1.73706">
        <ele>133.06</ele>
        <time>2022-04-10T09:48:39Z</time>
      </trkpt>
      <trkpt lat="49.07479" lon="1.737">
        <ele>132.5</ele>
        <time>2022-04-10T09:48:43Z</time>
      </trkpt>
      <trkpt lat="49.07477" lon="1.73681">
        <ele>132.85</ele>
        <time>2022-04-10T09:48:54Z</time>
      </trkpt>
      <trkpt lat="49.07475" lon="1.73666">
        <ele>132.5</ele>
        <time>2022-04-10T09:49:03Z</time>
      </trkpt>
      <trkpt lat="49.07471" lon="1.73649">
        <ele>132.5</ele>
        <time>2022-04-10T09:49:12Z</time>
      </trkpt>
      <trkpt lat="49.07468" lon="1.73628">
        <ele>132.53</ele>
        <time>2022-04-10T09:49:24Z</time>
      </trkpt>
      <trkpt lat="49.07466" lon="1.73611">
        <ele>132.55</ele>
        <time>2022-04-10T09:49:35Z</time>
      </trkpt>
      <trkpt lat="49.07462" lon="1.73592">
        <ele>132.67</ele>
        <time>2022-04-10T09:49:46Z</time>
      </trkpt>
      <trkpt lat="49.07459" lon="1.73578">
        <ele>132.32</ele>
        <time>2022-04-10T09:49:54Z</time>
      </trkpt>
      <trkpt lat="49.07458" lon="1.73572">
        <ele>132.91</ele>
        <time>2022-04-10T09:49:57Z</time>
      </trkpt>
      <trkpt lat="49.07458" lon="1.73565">
        <ele>132.6</ele>
        <time>2022-04-10T09:50:01Z</time>
      </trkpt>
      <trkpt lat="49.07454" lon="1.73546">
        <ele>133.58</ele>
        <time>2022-04-10T09:50:12Z</time>
      </trkpt>
      <trkpt lat="49.07453" lon="1.73537">
        <ele>133.08</ele>
        <time>2022-04-10T09:50:18Z</time>
      </trkpt>
      <trkpt lat="49.07452" lon="1.7353">
        <ele>133.62</ele>
        <time>2022-04-10T09:50:22Z</time>
      </trkpt>
      <trkpt lat="49.07449" lon="1.73511">
        <ele>133.47</ele>
        <time>2022-04-10T09:50:33Z</time>
      </trkpt>
      <trkpt lat="49.07447" lon="1.73493">
        <ele>134.35</ele>
        <time>2022-04-10T09:50:43Z</time>
      </trkpt>
      <trkpt lat="49.07444" lon="1.73473">
        <ele>135.75</ele>
        <time>2022-04-10T09:50:54Z</time>
      </trkpt>
      <trkpt lat="49.0744" lon="1.73454">
        <ele>135.72</ele>
        <time>2022-04-10T09:51:04Z</time>
      </trkpt>
      <trkpt lat="49.07437" lon="1.73439">
        <ele>136.35</ele>
        <time>2022-04-10T09:51:13Z</time>
      </trkpt>
      <trkpt lat="49.07434" lon="1.73422">
        <ele>135.99</ele>
        <time>2022-04-10T09:51:23Z</time>
      </trkpt>
      <trkpt lat="49.07432" lon="1.73401">
        <ele>136.06</ele>
        <time>2022-04-10T09:51:35Z</time>
      </trkpt>
      <trkpt lat="49.07428" lon="1.73386">
        <ele>136.37</ele>
        <time>2022-04-10T09:51:43Z</time>
      </trkpt>
      <trkpt lat="49.07426" lon="1.73375">
        <ele>136.4</ele>
        <time>2022-04-10T09:51:50Z</time>
      </trkpt>
      <trkpt lat="49.07424" lon="1.73355">
        <ele>136.48</ele>
        <time>2022-04-10T09:52:02Z</time>
      </trkpt>
      <trkpt lat="49.07421" lon="1.73335">
        <ele>136.74</ele>
        <time>2022-04-10T09:52:12Z</time>
      </trkpt>
      <trkpt lat="49.07418" lon="1.73317">
        <ele>136.65</ele>
        <time>2022-04-10T09:52:22Z</time>
      </trkpt>
      <trkpt lat="49.07415" lon="1.73298">
        <ele>136.25</ele>
        <time>2022-04-10T09:52:34Z</time>
      </trkpt>
      <trkpt lat="49.07413" lon="1.73278">
        <ele>136.63</ele>
        <time>2022-04-10T09:52:45Z</time>
      </trkpt>
      <trkpt lat="49.07411" lon="1.73271">
        <ele>136.87</ele>
        <time>2022-04-10T09:52:49Z</time>
      </trkpt>
      <trkpt lat="49.07409" lon="1.73247">
        <ele>136.9</ele>
        <time>2022-04-10T09:53:03Z</time>
      </trkpt>
      <trkpt lat="49.07406" lon="1.73225">
        <ele>136.76</ele>
        <time>2022-04-10T09:53:15Z</time>
      </trkpt>
      <trkpt lat="49.07404" lon="1.73209">
        <ele>136.15</ele>
        <time>2022-04-10T09:53:26Z</time>
      </trkpt>
      <trkpt lat="49.07404" lon="1.73204">
        <ele>135.68</ele>
        <time>2022-04-10T09:53:39Z</time>
      </trkpt>
      <trkpt lat="49.07403" lon="1.73203">
        <ele>135.88</ele>
        <time>2022-04-10T09:53:51Z</time>
      </trkpt>
      <trkpt lat="49.07402" lon="1.73201">
        <ele>136.43</ele>
        <time>2022-04-10T09:54:07Z</time>
      </trkpt>
      <trkpt lat="49.07402" lon="1.732">
        <ele>135.79</ele>
        <time>2022-04-10T09:54:22Z</time>
      </trkpt>
      <trkpt lat="49.07402" lon="1.732">
        <ele>135.95</ele>
        <time>2022-04-10T09:54:40Z</time>
      </trkpt>
      <trkpt lat="49.07402" lon="1.732">
        <ele>136.08</ele>
        <time>2022-04-10T09:54:56Z</time>
      </trkpt>
      <trkpt lat="49.07402" lon="1.732">
        <ele>136.44</ele>
        <time>2022-04-10T09:55:13Z</time>
      </trkpt>
      <trkpt lat="49.07402" lon="1.732">
        <ele>135.78</ele>
        <time>2022-04-10T09:55:30Z</time>
      </trkpt>
      <trkpt lat="49.07403" lon="1.732">
        <ele>136.56</ele>
        <time>2022-04-10T09:55:48Z</time>
      </trkpt>
      <trkpt lat="49.07403" lon="1.732">
        <ele>136.15</ele>
        <time>2022-04-10T09:56:03Z</time>
      </trkpt>
      <trkpt lat="49.07402" lon="1.732">
        <ele>136.69</ele>
        <time>2022-04-10T09:56:17Z</time>
      </trkpt>
      <trkpt lat="49.07403" lon="1.732">
        <ele>136.61</ele>
        <time>2022-04-10T09:56:35Z</time>
      </trkpt>
      <trkpt lat="49.07403" lon="1.73201">
        <ele>136.16</ele>
        <time>2022-04-10T09:56:48Z</time>
      </trkpt>
      <trkpt lat="49.07401" lon="1.73199">
        <ele>136.08</ele>
        <time>2022-04-10T09:57:01Z</time>
      </trkpt>
      <trkpt lat="49.07401" lon="1.73197">
        <ele>136.7</ele>
        <time>2022-04-10T09:57:18Z</time>
      </trkpt>
      <trkpt lat="49.07402" lon="1.73194">
        <ele>136.12</ele>
        <time>2022-04-10T09:57:30Z</time>
      </trkpt>
      <trkpt lat="49.07402" lon="1.73179">
        <ele>137.15</ele>
        <time>2022-04-10T09:57:42Z</time>
      </trkpt>
      <trkpt lat="49.07403" lon="1.73163">
        <ele>136.82</ele>
        <time>2022-04-10T09:57:52Z</time>
      </trkpt>
      <trkpt lat="49.07405" lon="1.73142">
        <ele>136.46</ele>
        <time>2022-04-10T09:58:04Z</time>
      </trkpt>
      <trkpt lat="49.07406" lon="1.73133">
        <ele>136.8</ele>
        <time>2022-04-10T09:58:09Z</time>
      </trkpt>
      <trkpt lat="49.07409" lon="1.73113">
        <ele>137.12</ele>
        <time>2022-04-10T09:58:21Z</time>
      </trkpt>
      <trkpt lat="49.07409" lon="1.73112">
        <ele>136.59</ele>
        <time>2022-04-10T09:58:22Z</time>
      </trkpt>
      <trkpt lat="49.07412" lon="1.73086">
        <ele>137.1</ele>
        <time>2022-04-10T09:58:37Z</time>
      </trkpt>
      <trkpt lat="49.07413" lon="1.73081">
        <ele>136.68</ele>
        <time>2022-04-10T09:58:40Z</time>
      </trkpt>
      <trkpt lat="49.07415" lon="1.7306">
        <ele>136.17</ele>
        <time>2022-04-10T09:58:52Z</time>
      </trkpt>
      <trkpt lat="49.07416" lon="1.73059">
        <ele>136.2</ele>
        <time>2022-04-10T09:58:53Z</time>
      </trkpt>
      <trkpt lat="49.07419" lon="1.7304">
        <ele>136.12</ele>
        <time>2022-04-10T09:59:05Z</time>
      </trkpt>
      <trkpt lat="49.07422" lon="1.73031">
        <ele>135.94</ele>
        <time>2022-04-10T09:59:11Z</time>
      </trkpt>
      <trkpt lat="49.07425" lon="1.73014">
        <ele>134.99</ele>
        <time>2022-04-10T09:59:21Z</time>
      </trkpt>
      <trkpt lat="49.07427" lon="1.73007">
        <ele>135.18</ele>
        <time>2022-04-10T09:59:25Z</time>
      </trkpt>
      <trkpt lat="49.07431" lon="1.72986">
        <ele>134.63</ele>
        <time>2022-04-10T09:59:38Z</time>
      </trkpt>
      <trkpt lat="49.07435" lon="1.7297">
        <ele>134.64</ele>
        <time>2022-04-10T09:59:48Z</time>
      </trkpt>
      <trkpt lat="49.0744" lon="1.72951">
        <ele>134.65</ele>
        <time>2022-04-10T10:00:00Z</time>
      </trkpt>
      <trkpt lat="49.07441" lon="1.72948">
        <ele>134.61</ele>
        <time>2022-04-10T10:00:02Z</time>
      </trkpt>
      <trkpt lat="49.07442" lon="1.72941">
        <ele>134.35</ele>
        <time>2022-04-10T10:00:06Z</time>
      </trkpt>
      <trkpt lat="49.07447" lon="1.72918">
        <ele>133.86</ele>
        <time>2022-04-10T10:00:20Z</time>
      </trkpt>
      <trkpt lat="49.07451" lon="1.72905">
        <ele>133.04</ele>
        <time>2022-04-10T10:00:28Z</time>
      </trkpt>
      <trkpt lat="49.07453" lon="1.72888">
        <ele>133.66</ele>
        <time>2022-04-10T10:00:37Z</time>
      </trkpt>
      <trkpt lat="49.07454" lon="1.72883">
        <ele>133.57</ele>
        <time>2022-04-10T10:00:40Z</time>
      </trkpt>
      <trkpt lat="49.0746" lon="1.72862">
        <ele>133.34</ele>
        <time>2022-04-10T10:00:52Z</time>
      </trkpt>
      <trkpt lat="49.07464" lon="1.72846">
        <ele>133.31</ele>
        <time>2022-04-10T10:01:02Z</time>
      </trkpt>
      <trkpt lat="49.07468" lon="1.72828">
        <ele>132.6</ele>
        <time>2022-04-10T10:01:12Z</time>
      </trkpt>
      <trkpt lat="49.07472" lon="1.72813">
        <ele>132.9</ele>
        <time>2022-04-10T10:01:20Z</time>
      </trkpt>
      <trkpt lat="49.07476" lon="1.72797">
        <ele>132.2</ele>
        <time>2022-04-10T10:01:29Z</time>
      </trkpt>
      <trkpt lat="49.07481" lon="1.72778">
        <ele>132.21</ele>
        <time>2022-04-10T10:01:40Z</time>
      </trkpt>
      <trkpt lat="49.07482" lon="1.72775">
        <ele>132.13</ele>
        <time>2022-04-10T10:01:42Z</time>
      </trkpt>
      <trkpt lat="49.07488" lon="1.72752">
        <ele>131.7</ele>
        <time>2022-04-10T10:01:55Z</time>
      </trkpt>
      <trkpt lat="49.07493" lon="1.72733">
        <ele>131.79</ele>
        <time>2022-04-10T10:02:07Z</time>
      </trkpt>
      <trkpt lat="49.075" lon="1.72707">
        <ele>131.08</ele>
        <time>2022-04-10T10:02:21Z</time>
      </trkpt>
      <trkpt lat="49.07508" lon="1.72679">
        <ele>131.32</ele>
        <time>2022-04-10T10:02:37Z</time>
      </trkpt>
      <trkpt lat="49.07514" lon="1.72656">
        <ele>131.38</ele>
        <time>2022-04-10T10:02:50Z</time>
      </trkpt>
      <trkpt lat="49.07519" lon="1.72638">
        <ele>130.95</ele>
        <time>2022-04-10T10:03:00Z</time>
      </trkpt>
      <trkpt lat="49.07519" lon="1.72635">
        <ele>131.02</ele>
        <time>2022-04-10T10:03:02Z</time>
      </trkpt>
      <trkpt lat="49.07526" lon="1.72612">
        <ele>131</ele>
        <time>2022-04-10T10:03:16Z</time>
      </trkpt>
      <trkpt lat="49.07527" lon="1.72607">
        <ele>130.42</ele>
        <time>2022-04-10T10:03:19Z</time>
      </trkpt>
      <trkpt lat="49.07528" lon="1.72595">
        <ele>130.71</ele>
        <time>2022-04-10T10:03:26Z</time>
      </trkpt>
      <trkpt lat="49.07531" lon="1.72589">
        <ele>130.79</ele>
        <time>2022-04-10T10:03:30Z</time>
      </trkpt>
      <trkpt lat="49.07536" lon="1.7257">
        <ele>131.13</ele>
        <time>2022-04-10T10:03:41Z</time>
      </trkpt>
      <trkpt lat="49.07541" lon="1.72548">
        <ele>131.31</ele>
        <time>2022-04-10T10:03:53Z</time>
      </trkpt>
      <trkpt lat="49.07544" lon="1.72538">
        <ele>131.93</ele>
        <time>2022-04-10T10:03:59Z</time>
      </trkpt>
      <trkpt lat="49.0755" lon="1.72514">
        <ele>131.98</ele>
        <time>2022-04-10T10:04:13Z</time>
      </trkpt>
      <trkpt lat="49.07553" lon="1.725">
        <ele>131.6</ele>
        <time>2022-04-10T10:04:21Z</time>
      </trkpt>
      <trkpt lat="49.07554" lon="1.72493">
        <ele>131.73</ele>
        <time>2022-04-10T10:04:25Z</time>
      </trkpt>
      <trkpt lat="49.07559" lon="1.72467">
        <ele>131.57</ele>
        <time>2022-04-10T10:04:38Z</time>
      </trkpt>
      <trkpt lat="49.07563" lon="1.72446">
        <ele>131.51</ele>
        <time>2022-04-10T10:04:50Z</time>
      </trkpt>
      <trkpt lat="49.07567" lon="1.72425">
        <ele>132.02</ele>
        <time>2022-04-10T10:05:01Z</time>
      </trkpt>
      <trkpt lat="49.07569" lon="1.72417">
        <ele>131.59</ele>
        <time>2022-04-10T10:05:06Z</time>
      </trkpt>
      <trkpt lat="49.07572" lon="1.72397">
        <ele>131.56</ele>
        <time>2022-04-10T10:05:17Z</time>
      </trkpt>
      <trkpt lat="49.07574" lon="1.7239">
        <ele>131.54</ele>
        <time>2022-04-10T10:05:21Z</time>
      </trkpt>
      <trkpt lat="49.07579" lon="1.72365">
        <ele>130.87</ele>
        <time>2022-04-10T10:05:34Z</time>
      </trkpt>
      <trkpt lat="49.07585" lon="1.72347">
        <ele>131.39</ele>
        <time>2022-04-10T10:05:45Z</time>
      </trkpt>
      <trkpt lat="49.07586" lon="1.72343">
        <ele>131.42</ele>
        <time>2022-04-10T10:05:48Z</time>
      </trkpt>
      <trkpt lat="49.07591" lon="1.72323">
        <ele>130.65</ele>
        <time>2022-04-10T10:06:00Z</time>
      </trkpt>
      <trkpt lat="49.07592" lon="1.7232">
        <ele>130.2</ele>
        <time>2022-04-10T10:06:02Z</time>
      </trkpt>
      <trkpt lat="49.07597" lon="1.72295">
        <ele>129.73</ele>
        <time>2022-04-10T10:06:16Z</time>
      </trkpt>
      <trkpt lat="49.07597" lon="1.72291">
        <ele>129.41</ele>
        <time>2022-04-10T10:06:18Z</time>
      </trkpt>
      <trkpt lat="49.07597" lon="1.72281">
        <ele>128.91</ele>
        <time>2022-04-10T10:06:28Z</time>
      </trkpt>
      <trkpt lat="49.07597" lon="1.72278">
        <ele>129.1</ele>
        <time>2022-04-10T10:06:30Z</time>
      </trkpt>
      <trkpt lat="49.07598" lon="1.72268">
        <ele>128.17</ele>
        <time>2022-04-10T10:06:36Z</time>
      </trkpt>
      <trkpt lat="49.07596" lon="1.72262">
        <ele>128.47</ele>
        <time>2022-04-10T10:06:49Z</time>
      </trkpt>
      <trkpt lat="49.07598" lon="1.72263">
        <ele>128.23</ele>
        <time>2022-04-10T10:07:10Z</time>
      </trkpt>
      <trkpt lat="49.07595" lon="1.72264">
        <ele>128.01</ele>
        <time>2022-04-10T10:07:23Z</time>
      </trkpt>
      <trkpt lat="49.07597" lon="1.72264">
        <ele>129.12</ele>
        <time>2022-04-10T10:07:40Z</time>
      </trkpt>
      <trkpt lat="49.07597" lon="1.72265">
        <ele>128.21</ele>
        <time>2022-04-10T10:07:51Z</time>
      </trkpt>
      <trkpt lat="49.07598" lon="1.72262">
        <ele>128.96</ele>
        <time>2022-04-10T10:07:57Z</time>
      </trkpt>
      <trkpt lat="49.07598" lon="1.72254">
        <ele>128.8</ele>
        <time>2022-04-10T10:08:09Z</time>
      </trkpt>
      <trkpt lat="49.07599" lon="1.72253">
        <ele>128.07</ele>
        <time>2022-04-10T10:08:26Z</time>
      </trkpt>
      <trkpt lat="49.07598" lon="1.72251">
        <ele>128.42</ele>
        <time>2022-04-10T10:08:38Z</time>
      </trkpt>
      <trkpt lat="49.076" lon="1.72245">
        <ele>127.58</ele>
        <time>2022-04-10T10:08:55Z</time>
      </trkpt>
      <trkpt lat="49.07602" lon="1.72234">
        <ele>128.05</ele>
        <time>2022-04-10T10:09:05Z</time>
      </trkpt>
      <trkpt lat="49.07603" lon="1.72216">
        <ele>127.36</ele>
        <time>2022-04-10T10:09:17Z</time>
      </trkpt>
      <trkpt lat="49.07604" lon="1.72212">
        <ele>127.4</ele>
        <time>2022-04-10T10:09:23Z</time>
      </trkpt>
      <trkpt lat="49.07604" lon="1.72201">
        <ele>126.53</ele>
        <time>2022-04-10T10:09:32Z</time>
      </trkpt>
      <trkpt lat="49.07604" lon="1.72188">
        <ele>126.4</ele>
        <time>2022-04-10T10:09:44Z</time>
      </trkpt>
      <trkpt lat="49.07605" lon="1.72172">
        <ele>125.6</ele>
        <time>2022-04-10T10:09:57Z</time>
      </trkpt>
      <trkpt lat="49.07605" lon="1.7217">
        <ele>125.23</ele>
        <time>2022-04-10T10:10:10Z</time>
      </trkpt>
      <trkpt lat="49.07605" lon="1.72158">
        <ele>124.38</ele>
        <time>2022-04-10T10:10:22Z</time>
      </trkpt>
      <trkpt lat="49.07604" lon="1.72154">
        <ele>123.78</ele>
        <time>2022-04-10T10:10:25Z</time>
      </trkpt>
      <trkpt lat="49.07601" lon="1.72139">
        <ele>122.49</ele>
        <time>2022-04-10T10:10:38Z</time>
      </trkpt>
      <trkpt lat="49.07597" lon="1.72128">
        <ele>121.08</ele>
        <time>2022-04-10T10:10:57Z</time>
      </trkpt>
      <trkpt lat="49.07589" lon="1.72119">
        <ele>117.62</ele>
        <time>2022-04-10T10:11:13Z</time>
      </trkpt>
      <trkpt lat="49.07581" lon="1.72111">
        <ele>116.42</ele>
        <time>2022-04-10T10:11:25Z</time>
      </trkpt>
      <trkpt lat="49.07575" lon="1.72102">
        <ele>115.79</ele>
        <time>2022-04-10T10:11:41Z</time>
      </trkpt>
      <trkpt lat="49.07566" lon="1.72097">
        <ele>112.6</ele>
        <time>2022-04-10T10:11:56Z</time>
      </trkpt>
      <trkpt lat="49.07554" lon="1.72089">
        <ele>109.96</ele>
        <time>2022-04-10T10:12:15Z</time>
      </trkpt>
      <trkpt lat="49.07546" lon="1.72078">
        <ele>108.17</ele>
        <time>2022-04-10T10:12:28Z</time>
      </trkpt>
      <trkpt lat="49.07538" lon="1.72061">
        <ele>105.7</ele>
        <time>2022-04-10T10:12:43Z</time>
      </trkpt>
      <trkpt lat="49.07536" lon="1.72035">
        <ele>103.89</ele>
        <time>2022-04-10T10:12:59Z</time>
      </trkpt>
      <trkpt lat="49.07537" lon="1.72015">
        <ele>101.74</ele>
        <time>2022-04-10T10:13:14Z</time>
      </trkpt>
      <trkpt lat="49.0754" lon="1.71991">
        <ele>100.1</ele>
        <time>2022-04-10T10:13:30Z</time>
      </trkpt>
      <trkpt lat="49.07543" lon="1.71976">
        <ele>98.85</ele>
        <time>2022-04-10T10:13:40Z</time>
      </trkpt>
      <trkpt lat="49.07544" lon="1.71973">
        <ele>98.17</ele>
        <time>2022-04-10T10:13:42Z</time>
      </trkpt>
      <trkpt lat="49.07548" lon="1.71954">
        <ele>96.85</ele>
        <time>2022-04-10T10:13:54Z</time>
      </trkpt>
      <trkpt lat="49.0755" lon="1.71938">
        <ele>95.68</ele>
        <time>2022-04-10T10:14:05Z</time>
      </trkpt>
      <trkpt lat="49.07552" lon="1.7192">
        <ele>94.42</ele>
        <time>2022-04-10T10:14:16Z</time>
      </trkpt>
      <trkpt lat="49.07557" lon="1.71909">
        <ele>92.12</ele>
        <time>2022-04-10T10:14:28Z</time>
      </trkpt>
      <trkpt lat="49.07561" lon="1.71896">
        <ele>89.89</ele>
        <time>2022-04-10T10:14:40Z</time>
      </trkpt>
      <trkpt lat="49.07567" lon="1.71883">
        <ele>88.76</ele>
        <time>2022-04-10T10:14:52Z</time>
      </trkpt>
      <trkpt lat="49.07573" lon="1.71869">
        <ele>86.82</ele>
        <time>2022-04-10T10:15:07Z</time>
      </trkpt>
      <trkpt lat="49.07572" lon="1.71867">
        <ele>87.03</ele>
        <time>2022-04-10T10:15:24Z</time>
      </trkpt>
      <trkpt lat="49.07572" lon="1.71861">
        <ele>86.33</ele>
        <time>2022-04-10T10:15:43Z</time>
      </trkpt>
      <trkpt lat="49.07574" lon="1.7186">
        <ele>86.77</ele>
        <time>2022-04-10T10:15:54Z</time>
      </trkpt>
      <trkpt lat="49.07577" lon="1.71859">
        <ele>86.32</ele>
        <time>2022-04-10T10:16:00Z</time>
      </trkpt>
      <trkpt lat="49.07579" lon="1.7186">
        <ele>86.36</ele>
        <time>2022-04-10T10:16:15Z</time>
      </trkpt>
      <trkpt lat="49.0758" lon="1.71858">
        <ele>86.41</ele>
        <time>2022-04-10T10:16:27Z</time>
      </trkpt>
      <trkpt lat="49.07579" lon="1.71854">
        <ele>85.92</ele>
        <time>2022-04-10T10:16:30Z</time>
      </trkpt>
      <trkpt lat="49.07578" lon="1.71847">
        <ele>86.14</ele>
        <time>2022-04-10T10:16:34Z</time>
      </trkpt>
      <trkpt lat="49.07573" lon="1.71841">
        <ele>84.39</ele>
        <time>2022-04-10T10:16:45Z</time>
      </trkpt>
      <trkpt lat="49.07562" lon="1.71831">
        <ele>82.3</ele>
        <time>2022-04-10T10:17:02Z</time>
      </trkpt>
      <trkpt lat="49.07557" lon="1.7182">
        <ele>81.21</ele>
        <time>2022-04-10T10:17:12Z</time>
      </trkpt>
      <trkpt lat="49.07551" lon="1.71809">
        <ele>78.04</ele>
        <time>2022-04-10T10:17:25Z</time>
      </trkpt>
      <trkpt lat="49.07546" lon="1.7179">
        <ele>76.84</ele>
        <time>2022-04-10T10:17:38Z</time>
      </trkpt>
      <trkpt lat="49.07541" lon="1.71757">
        <ele>75.68</ele>
        <time>2022-04-10T10:17:53Z</time>
      </trkpt>
      <trkpt lat="49.07541" lon="1.71751">
        <ele>74.91</ele>
        <time>2022-04-10T10:18:01Z</time>
      </trkpt>
      <trkpt lat="49.0754" lon="1.71748">
        <ele>74.81</ele>
        <time>2022-04-10T10:18:17Z</time>
      </trkpt>
      <trkpt lat="49.07538" lon="1.71746">
        <ele>74.33</ele>
        <time>2022-04-10T10:18:21Z</time>
      </trkpt>
      <trkpt lat="49.07524" lon="1.7174">
        <ele>73.34</ele>
        <time>2022-04-10T10:18:34Z</time>
      </trkpt>
      <trkpt lat="49.07511" lon="1.71735">
        <ele>73.63</ele>
        <time>2022-04-10T10:18:48Z</time>
      </trkpt>
      <trkpt lat="49.07504" lon="1.71733">
        <ele>72.85</ele>
        <time>2022-04-10T10:18:54Z</time>
      </trkpt>
      <trkpt lat="49.07496" lon="1.71736">
        <ele>72.13</ele>
        <time>2022-04-10T10:19:05Z</time>
      </trkpt>
      <trkpt lat="49.07486" lon="1.71737">
        <ele>70.73</ele>
        <time>2022-04-10T10:19:15Z</time>
      </trkpt>
      <trkpt lat="49.07478" lon="1.71731">
        <ele>70.87</ele>
        <time>2022-04-10T10:19:27Z</time>
      </trkpt>
      <trkpt lat="49.07467" lon="1.7173">
        <ele>70.79</ele>
        <time>2022-04-10T10:19:38Z</time>
      </trkpt>
      <trkpt lat="49.07459" lon="1.71728">
        <ele>69.48</ele>
        <time>2022-04-10T10:19:48Z</time>
      </trkpt>
      <trkpt lat="49.07446" lon="1.71721">
        <ele>68.62</ele>
        <time>2022-04-10T10:20:01Z</time>
      </trkpt>
      <trkpt lat="49.07443" lon="1.71717">
        <ele>68.7</ele>
        <time>2022-04-10T10:20:04Z</time>
      </trkpt>
      <trkpt lat="49.07434" lon="1.71715">
        <ele>68.7</ele>
        <time>2022-04-10T10:20:11Z</time>
      </trkpt>
      <trkpt lat="49.07422" lon="1.71714">
        <ele>67.01</ele>
        <time>2022-04-10T10:20:22Z</time>
      </trkpt>
      <trkpt lat="49.07413" lon="1.71715">
        <ele>66.77</ele>
        <time>2022-04-10T10:20:30Z</time>
      </trkpt>
      <trkpt lat="49.074" lon="1.71716">
        <ele>66.77</ele>
        <time>2022-04-10T10:20:41Z</time>
      </trkpt>
      <trkpt lat="49.07392" lon="1.71711">
        <ele>66.22</ele>
        <time>2022-04-10T10:20:49Z</time>
      </trkpt>
      <trkpt lat="49.07379" lon="1.71711">
        <ele>65.12</ele>
        <time>2022-04-10T10:21:02Z</time>
      </trkpt>
      <trkpt lat="49.0737" lon="1.71714">
        <ele>64.84</ele>
        <time>2022-04-10T10:21:15Z</time>
      </trkpt>
      <trkpt lat="49.07364" lon="1.71712">
        <ele>64.12</ele>
        <time>2022-04-10T10:21:28Z</time>
      </trkpt>
      <trkpt lat="49.07348" lon="1.71704">
        <ele>63.57</ele>
        <time>2022-04-10T10:21:41Z</time>
      </trkpt>
      <trkpt lat="49.07331" lon="1.71694">
        <ele>61.76</ele>
        <time>2022-04-10T10:21:55Z</time>
      </trkpt>
      <trkpt lat="49.07311" lon="1.71684">
        <ele>61.4</ele>
        <time>2022-04-10T10:22:08Z</time>
      </trkpt>
      <trkpt lat="49.07299" lon="1.71679">
        <ele>60.91</ele>
        <time>2022-04-10T10:22:21Z</time>
      </trkpt>
      <trkpt lat="49.07297" lon="1.71679">
        <ele>61.06</ele>
        <time>2022-04-10T10:22:23Z</time>
      </trkpt>
      <trkpt lat="49.07291" lon="1.71675">
        <ele>60.57</ele>
        <time>2022-04-10T10:22:27Z</time>
      </trkpt>
      <trkpt lat="49.07272" lon="1.71672">
        <ele>60.14</ele>
        <time>2022-04-10T10:22:41Z</time>
      </trkpt>
      <trkpt lat="49.07257" lon="1.71668">
        <ele>60.05</ele>
        <time>2022-04-10T10:22:53Z</time>
      </trkpt>
      <trkpt lat="49.07242" lon="1.71665">
        <ele>59.56</ele>
        <time>2022-04-10T10:23:05Z</time>
      </trkpt>
      <trkpt lat="49.0724" lon="1.71665">
        <ele>59.53</ele>
        <time>2022-04-10T10:23:07Z</time>
      </trkpt>
      <trkpt lat="49.0723" lon="1.71671">
        <ele>59.23</ele>
        <time>2022-04-10T10:23:17Z</time>
      </trkpt>
      <trkpt lat="49.07224" lon="1.71675">
        <ele>58.42</ele>
        <time>2022-04-10T10:23:22Z</time>
      </trkpt>
      <trkpt lat="49.07223" lon="1.71674">
        <ele>57.97</ele>
        <time>2022-04-10T10:23:29Z</time>
      </trkpt>
      <trkpt lat="49.07232" lon="1.71665">
        <ele>59.24</ele>
        <time>2022-04-10T10:23:40Z</time>
      </trkpt>
      <trkpt lat="49.07235" lon="1.71664">
        <ele>59.49</ele>
        <time>2022-04-10T10:23:42Z</time>
      </trkpt>
      <trkpt lat="49.07236" lon="1.71661">
        <ele>59.86</ele>
        <time>2022-04-10T10:23:44Z</time>
      </trkpt>
      <trkpt lat="49.07236" lon="1.71647">
        <ele>59.68</ele>
        <time>2022-04-10T10:23:53Z</time>
      </trkpt>
      <trkpt lat="49.0723" lon="1.71634">
        <ele>59.9</ele>
        <time>2022-04-10T10:24:06Z</time>
      </trkpt>
      <trkpt lat="49.07226" lon="1.71629">
        <ele>59.33</ele>
        <time>2022-04-10T10:24:12Z</time>
      </trkpt>
      <trkpt lat="49.07214" lon="1.71617">
        <ele>58.59</ele>
        <time>2022-04-10T10:24:24Z</time>
      </trkpt>
      <trkpt lat="49.072" lon="1.71609">
        <ele>58.9</ele>
        <time>2022-04-10T10:24:36Z</time>
      </trkpt>
      <trkpt lat="49.07197" lon="1.71609">
        <ele>58.19</ele>
        <time>2022-04-10T10:24:38Z</time>
      </trkpt>
      <trkpt lat="49.07179" lon="1.7161">
        <ele>58.19</ele>
        <time>2022-04-10T10:24:52Z</time>
      </trkpt>
      <trkpt lat="49.07166" lon="1.71614">
        <ele>57.29</ele>
        <time>2022-04-10T10:25:04Z</time>
      </trkpt>
      <trkpt lat="49.07161" lon="1.71617">
        <ele>57.82</ele>
        <time>2022-04-10T10:25:08Z</time>
      </trkpt>
      <trkpt lat="49.07149" lon="1.71621">
        <ele>57.74</ele>
        <time>2022-04-10T10:25:18Z</time>
      </trkpt>
      <trkpt lat="49.07133" lon="1.71626">
        <ele>57.38</ele>
        <time>2022-04-10T10:25:31Z</time>
      </trkpt>
      <trkpt lat="49.07123" lon="1.71629">
        <ele>57.83</ele>
        <time>2022-04-10T10:25:39Z</time>
      </trkpt>
      <trkpt lat="49.07111" lon="1.71632">
        <ele>57.83</ele>
        <time>2022-04-10T10:25:49Z</time>
      </trkpt>
      <trkpt lat="49.07102" lon="1.71632">
        <ele>58.58</ele>
        <time>2022-04-10T10:26:00Z</time>
      </trkpt>
      <trkpt lat="49.07089" lon="1.71634">
        <ele>59.63</ele>
        <time>2022-04-10T10:26:11Z</time>
      </trkpt>
      <trkpt lat="49.07077" lon="1.71633">
        <ele>60.2</ele>
        <time>2022-04-10T10:26:21Z</time>
      </trkpt>
      <trkpt lat="49.07058" lon="1.71634">
        <ele>60.65</ele>
        <time>2022-04-10T10:26:33Z</time>
      </trkpt>
      <trkpt lat="49.07051" lon="1.71635">
        <ele>60.59</ele>
        <time>2022-04-10T10:26:38Z</time>
      </trkpt>
      <trkpt lat="49.0704" lon="1.71633">
        <ele>60.76</ele>
        <time>2022-04-10T10:26:49Z</time>
      </trkpt>
      <trkpt lat="49.07028" lon="1.71632">
        <ele>60.52</ele>
        <time>2022-04-10T10:27:00Z</time>
      </trkpt>
      <trkpt lat="49.0702" lon="1.71629">
        <ele>59.63</ele>
        <time>2022-04-10T10:27:08Z</time>
      </trkpt>
      <trkpt lat="49.07012" lon="1.71627">
        <ele>59.19</ele>
        <time>2022-04-10T10:27:15Z</time>
      </trkpt>
      <trkpt lat="49.06999" lon="1.71627">
        <ele>59.45</ele>
        <time>2022-04-10T10:27:27Z</time>
      </trkpt>
      <trkpt lat="49.06996" lon="1.71627">
        <ele>59.35</ele>
        <time>2022-04-10T10:27:30Z</time>
      </trkpt>
      <trkpt lat="49.06993" lon="1.71627">
        <ele>59.13</ele>
        <time>2022-04-10T10:27:32Z</time>
      </trkpt>
      <trkpt lat="49.06977" lon="1.71618">
        <ele>59.34</ele>
        <time>2022-04-10T10:27:43Z</time>
      </trkpt>
      <trkpt lat="49.06961" lon="1.71609">
        <ele>59.67</ele>
        <time>2022-04-10T10:27:54Z</time>
      </trkpt>
      <trkpt lat="49.06949" lon="1.71603">
        <ele>59.99</ele>
        <time>2022-04-10T10:28:03Z</time>
      </trkpt>
      <trkpt lat="49.06935" lon="1.71593">
        <ele>60.13</ele>
        <time>2022-04-10T10:28:14Z</time>
      </trkpt>
      <trkpt lat="49.06924" lon="1.71582">
        <ele>61.53</ele>
        <time>2022-04-10T10:28:24Z</time>
      </trkpt>
      <trkpt lat="49.06917" lon="1.7158">
        <ele>61.79</ele>
        <time>2022-04-10T10:28:29Z</time>
      </trkpt>
      <trkpt lat="49.06909" lon="1.7157">
        <ele>62.33</ele>
        <time>2022-04-10T10:28:40Z</time>
      </trkpt>
      <trkpt lat="49.06908" lon="1.71569">
        <ele>62.35</ele>
        <time>2022-04-10T10:28:41Z</time>
      </trkpt>
      <trkpt lat="49.06894" lon="1.71564">
        <ele>63.03</ele>
        <time>2022-04-10T10:28:53Z</time>
      </trkpt>
      <trkpt lat="49.0689" lon="1.71563">
        <ele>63.38</ele>
        <time>2022-04-10T10:28:56Z</time>
      </trkpt>
      <trkpt lat="49.06879" lon="1.71554">
        <ele>63.49</ele>
        <time>2022-04-10T10:29:07Z</time>
      </trkpt>
      <trkpt lat="49.06874" lon="1.71548">
        <ele>63.9</ele>
        <time>2022-04-10T10:29:13Z</time>
      </trkpt>
      <trkpt lat="49.06863" lon="1.71542">
        <ele>64.7</ele>
        <time>2022-04-10T10:29:25Z</time>
      </trkpt>
      <trkpt lat="49.06862" lon="1.71541">
        <ele>64.72</ele>
        <time>2022-04-10T10:29:38Z</time>
      </trkpt>
      <trkpt lat="49.06849" lon="1.71533">
        <ele>64.79</ele>
        <time>2022-04-10T10:29:51Z</time>
      </trkpt>
      <trkpt lat="49.0684" lon="1.71524">
        <ele>65.2</ele>
        <time>2022-04-10T10:30:04Z</time>
      </trkpt>
      <trkpt lat="49.06835" lon="1.71524">
        <ele>65.31</ele>
        <time>2022-04-10T10:30:14Z</time>
      </trkpt>
      <trkpt lat="49.06834" lon="1.71523">
        <ele>65.5</ele>
        <time>2022-04-10T10:30:26Z</time>
      </trkpt>
      <trkpt lat="49.06832" lon="1.71516">
        <ele>65.63</ele>
        <time>2022-04-10T10:30:37Z</time>
      </trkpt>
      <trkpt lat="49.06829" lon="1.71514">
        <ele>65.21</ele>
        <time>2022-04-10T10:30:52Z</time>
      </trkpt>
      <trkpt lat="49.06828" lon="1.71514">
        <ele>65.45</ele>
        <time>2022-04-10T10:31:02Z</time>
      </trkpt>
      <trkpt lat="49.06824" lon="1.71513">
        <ele>65.23</ele>
        <time>2022-04-10T10:31:15Z</time>
      </trkpt>
      <trkpt lat="49.06823" lon="1.71512">
        <ele>65.32</ele>
        <time>2022-04-10T10:31:17Z</time>
      </trkpt>
      <trkpt lat="49.0681" lon="1.71502">
        <ele>64.68</ele>
        <time>2022-04-10T10:31:32Z</time>
      </trkpt>
      <trkpt lat="49.06809" lon="1.71501">
        <ele>64.74</ele>
        <time>2022-04-10T10:31:33Z</time>
      </trkpt>
      <trkpt lat="49.06796" lon="1.71491">
        <ele>63.74</ele>
        <time>2022-04-10T10:31:46Z</time>
      </trkpt>
      <trkpt lat="49.06788" lon="1.7148">
        <ele>63.85</ele>
        <time>2022-04-10T10:32:00Z</time>
      </trkpt>
      <trkpt lat="49.06787" lon="1.71477">
        <ele>63.64</ele>
        <time>2022-04-10T10:32:15Z</time>
      </trkpt>
      <trkpt lat="49.06784" lon="1.71474">
        <ele>63.54</ele>
        <time>2022-04-10T10:32:27Z</time>
      </trkpt>
      <trkpt lat="49.06772" lon="1.7146">
        <ele>63.39</ele>
        <time>2022-04-10T10:32:45Z</time>
      </trkpt>
      <trkpt lat="49.06763" lon="1.7145">
        <ele>62.83</ele>
        <time>2022-04-10T10:32:58Z</time>
      </trkpt>
      <trkpt lat="49.06757" lon="1.71443">
        <ele>62.59</ele>
        <time>2022-04-10T10:33:07Z</time>
      </trkpt>
      <trkpt lat="49.06755" lon="1.71441">
        <ele>62.79</ele>
        <time>2022-04-10T10:33:09Z</time>
      </trkpt>
      <trkpt lat="49.06743" lon="1.71426">
        <ele>62.5</ele>
        <time>2022-04-10T10:33:24Z</time>
      </trkpt>
      <trkpt lat="49.06738" lon="1.71416">
        <ele>62.39</ele>
        <time>2022-04-10T10:33:33Z</time>
      </trkpt>
      <trkpt lat="49.06732" lon="1.71403">
        <ele>62.77</ele>
        <time>2022-04-10T10:33:43Z</time>
      </trkpt>
      <trkpt lat="49.06729" lon="1.71397">
        <ele>62.67</ele>
        <time>2022-04-10T10:33:48Z</time>
      </trkpt>
      <trkpt lat="49.06724" lon="1.71379">
        <ele>61.96</ele>
        <time>2022-04-10T10:33:58Z</time>
      </trkpt>
      <trkpt lat="49.0672" lon="1.71372">
        <ele>62.27</ele>
        <time>2022-04-10T10:34:04Z</time>
      </trkpt>
      <trkpt lat="49.06717" lon="1.71365">
        <ele>61.89</ele>
        <time>2022-04-10T10:34:09Z</time>
      </trkpt>
      <trkpt lat="49.06711" lon="1.71349">
        <ele>62.31</ele>
        <time>2022-04-10T10:34:20Z</time>
      </trkpt>
      <trkpt lat="49.06705" lon="1.71329">
        <ele>62.32</ele>
        <time>2022-04-10T10:34:31Z</time>
      </trkpt>
      <trkpt lat="49.06703" lon="1.71325">
        <ele>61.68</ele>
        <time>2022-04-10T10:34:34Z</time>
      </trkpt>
      <trkpt lat="49.06696" lon="1.71304">
        <ele>61.2</ele>
        <time>2022-04-10T10:34:47Z</time>
      </trkpt>
      <trkpt lat="49.06689" lon="1.71282">
        <ele>60.63</ele>
        <time>2022-04-10T10:35:00Z</time>
      </trkpt>
      <trkpt lat="49.06683" lon="1.71263">
        <ele>61.08</ele>
        <time>2022-04-10T10:35:13Z</time>
      </trkpt>
      <trkpt lat="49.0668" lon="1.71249">
        <ele>61.29</ele>
        <time>2022-04-10T10:35:24Z</time>
      </trkpt>
      <trkpt lat="49.06676" lon="1.71232">
        <ele>60.88</ele>
        <time>2022-04-10T10:35:36Z</time>
      </trkpt>
      <trkpt lat="49.06673" lon="1.71217">
        <ele>61.24</ele>
        <time>2022-04-10T10:35:46Z</time>
      </trkpt>
      <trkpt lat="49.0667" lon="1.71201">
        <ele>60.98</ele>
        <time>2022-04-10T10:35:57Z</time>
      </trkpt>
      <trkpt lat="49.06667" lon="1.71185">
        <ele>60.52</ele>
        <time>2022-04-10T10:36:07Z</time>
      </trkpt>
      <trkpt lat="49.06663" lon="1.71166">
        <ele>60.2</ele>
        <time>2022-04-10T10:36:19Z</time>
      </trkpt>
      <trkpt lat="49.06663" lon="1.71159">
        <ele>60.2</ele>
        <time>2022-04-10T10:36:23Z</time>
      </trkpt>
      <trkpt lat="49.06659" lon="1.71143">
        <ele>59.19</ele>
        <time>2022-04-10T10:36:34Z</time>
      </trkpt>
      <trkpt lat="49.06655" lon="1.71122">
        <ele>57.7</ele>
        <time>2022-04-10T10:36:47Z</time>
      </trkpt>
      <trkpt lat="49.06651" lon="1.71104">
        <ele>57.72</ele>
        <time>2022-04-10T10:37:00Z</time>
      </trkpt>
      <trkpt lat="49.06648" lon="1.71085">
        <ele>56.82</ele>
        <time>2022-04-10T10:37:14Z</time>
      </trkpt>
      <trkpt lat="49.06646" lon="1.71076">
        <ele>56.79</ele>
        <time>2022-04-10T10:37:20Z</time>
      </trkpt>
      <trkpt lat="49.06645" lon="1.71058">
        <ele>56.34</ele>
        <time>2022-04-10T10:37:33Z</time>
      </trkpt>
      <trkpt lat="49.06644" lon="1.71053">
        <ele>56.44</ele>
        <time>2022-04-10T10:37:36Z</time>
      </trkpt>
      <trkpt lat="49.06641" lon="1.71036">
        <ele>55.64</ele>
        <time>2022-04-10T10:37:47Z</time>
      </trkpt>
      <trkpt lat="49.06636" lon="1.71012">
        <ele>54.48</ele>
        <time>2022-04-10T10:38:02Z</time>
      </trkpt>
      <trkpt lat="49.06635" lon="1.71001">
        <ele>53.95</ele>
        <time>2022-04-10T10:38:09Z</time>
      </trkpt>
      <trkpt lat="49.06628" lon="1.70981">
        <ele>53.24</ele>
        <time>2022-04-10T10:38:21Z</time>
      </trkpt>
      <trkpt lat="49.06627" lon="1.70973">
        <ele>52.98</ele>
        <time>2022-04-10T10:38:26Z</time>
      </trkpt>
      <trkpt lat="49.06621" lon="1.70952">
        <ele>51.2</ele>
        <time>2022-04-10T10:38:38Z</time>
      </trkpt>
      <trkpt lat="49.06617" lon="1.7093">
        <ele>49.73</ele>
        <time>2022-04-10T10:38:50Z</time>
      </trkpt>
      <trkpt lat="49.06614" lon="1.7091">
        <ele>48.9</ele>
        <time>2022-04-10T10:39:00Z</time>
      </trkpt>
      <trkpt lat="49.0661" lon="1.70888">
        <ele>47.47</ele>
        <time>2022-04-10T10:39:13Z</time>
      </trkpt>
      <trkpt lat="49.06606" lon="1.70869">
        <ele>46.61</ele>
        <time>2022-04-10T10:39:23Z</time>
      </trkpt>
      <trkpt lat="49.06603" lon="1.70849">
        <ele>45.2</ele>
        <time>2022-04-10T10:39:35Z</time>
      </trkpt>
      <trkpt lat="49.06601" lon="1.70829">
        <ele>43.97</ele>
        <time>2022-04-10T10:39:46Z</time>
      </trkpt>
      <trkpt lat="49.06598" lon="1.70805">
        <ele>42.86</ele>
        <time>2022-04-10T10:39:59Z</time>
      </trkpt>
      <trkpt lat="49.06594" lon="1.70786">
        <ele>41.96</ele>
        <time>2022-04-10T10:40:12Z</time>
      </trkpt>
      <trkpt lat="49.06591" lon="1.70764">
        <ele>40.72</ele>
        <time>2022-04-10T10:40:26Z</time>
      </trkpt>
      <trkpt lat="49.06588" lon="1.70738">
        <ele>38.63</ele>
        <time>2022-04-10T10:40:43Z</time>
      </trkpt>
      <trkpt lat="49.06585" lon="1.70719">
        <ele>37.71</ele>
        <time>2022-04-10T10:40:56Z</time>
      </trkpt>
      <trkpt lat="49.0658" lon="1.707">
        <ele>36.84</ele>
        <time>2022-04-10T10:41:08Z</time>
      </trkpt>
      <trkpt lat="49.06576" lon="1.70681">
        <ele>34.94</ele>
        <time>2022-04-10T10:41:19Z</time>
      </trkpt>
      <trkpt lat="49.06574" lon="1.70654">
        <ele>33.01</ele>
        <time>2022-04-10T10:41:34Z</time>
      </trkpt>
      <trkpt lat="49.06575" lon="1.70652">
        <ele>32.62</ele>
        <time>2022-04-10T10:41:36Z</time>
      </trkpt>
      <trkpt lat="49.06583" lon="1.70647">
        <ele>31.58</ele>
        <time>2022-04-10T10:41:46Z</time>
      </trkpt>
      <trkpt lat="49.0659" lon="1.70647">
        <ele>31.97</ele>
        <time>2022-04-10T10:41:52Z</time>
      </trkpt>
      <trkpt lat="49.06602" lon="1.70644">
        <ele>33.83</ele>
        <time>2022-04-10T10:42:08Z</time>
      </trkpt>
      <trkpt lat="49.06612" lon="1.70638">
        <ele>35.93</ele>
        <time>2022-04-10T10:42:25Z</time>
      </trkpt>
      <trkpt lat="49.06616" lon="1.70636">
        <ele>37.4</ele>
        <time>2022-04-10T10:42:33Z</time>
      </trkpt>
      <trkpt lat="49.06628" lon="1.70636">
        <ele>39.05</ele>
        <time>2022-04-10T10:42:48Z</time>
      </trkpt>
      <trkpt lat="49.06638" lon="1.70633">
        <ele>40.94</ele>
        <time>2022-04-10T10:43:00Z</time>
      </trkpt>
      <trkpt lat="49.06648" lon="1.70632">
        <ele>42.26</ele>
        <time>2022-04-10T10:43:12Z</time>
      </trkpt>
      <trkpt lat="49.06658" lon="1.70628">
        <ele>43.96</ele>
        <time>2022-04-10T10:43:26Z</time>
      </trkpt>
      <trkpt lat="49.06661" lon="1.7063">
        <ele>44.81</ele>
        <time>2022-04-10T10:43:39Z</time>
      </trkpt>
      <trkpt lat="49.06671" lon="1.70634">
        <ele>46.49</ele>
        <time>2022-04-10T10:43:52Z</time>
      </trkpt>
      <trkpt lat="49.06681" lon="1.7064">
        <ele>47.95</ele>
        <time>2022-04-10T10:44:05Z</time>
      </trkpt>
      <trkpt lat="49.06689" lon="1.70645">
        <ele>49.43</ele>
        <time>2022-04-10T10:44:21Z</time>
      </trkpt>
      <trkpt lat="49.06689" lon="1.70646">
        <ele>49.36</ele>
        <time>2022-04-10T10:44:37Z</time>
      </trkpt>
      <trkpt lat="49.06693" lon="1.7065">
        <ele>51.05</ele>
        <time>2022-04-10T10:44:52Z</time>
      </trkpt>
      <trkpt lat="49.06703" lon="1.70658">
        <ele>52.36</ele>
        <time>2022-04-10T10:45:09Z</time>
      </trkpt>
      <trkpt lat="49.06713" lon="1.70665">
        <ele>53.57</ele>
        <time>2022-04-10T10:45:25Z</time>
      </trkpt>
      <trkpt lat="49.06722" lon="1.70672">
        <ele>54.91</ele>
        <time>2022-04-10T10:45:43Z</time>
      </trkpt>
      <trkpt lat="49.06726" lon="1.70673">
        <ele>55.43</ele>
        <time>2022-04-10T10:45:57Z</time>
      </trkpt>
      <trkpt lat="49.06723" lon="1.70673">
        <ele>54.89</ele>
        <time>2022-04-10T10:46:12Z</time>
      </trkpt>
      <trkpt lat="49.0673" lon="1.70678">
        <ele>56.32</ele>
        <time>2022-04-10T10:46:28Z</time>
      </trkpt>
      <trkpt lat="49.06737" lon="1.70684">
        <ele>57.11</ele>
        <time>2022-04-10T10:46:41Z</time>
      </trkpt>
      <trkpt lat="49.06744" lon="1.70691">
        <ele>58.61</ele>
        <time>2022-04-10T10:46:56Z</time>
      </trkpt>
      <trkpt lat="49.06752" lon="1.70703">
        <ele>60.69</ele>
        <time>2022-04-10T10:47:12Z</time>
      </trkpt>
      <trkpt lat="49.06761" lon="1.70712">
        <ele>62.94</ele>
        <time>2022-04-10T10:47:30Z</time>
      </trkpt>
      <trkpt lat="49.06773" lon="1.70724">
        <ele>64.18</ele>
        <time>2022-04-10T10:47:44Z</time>
      </trkpt>
      <trkpt lat="49.06786" lon="1.70735">
        <ele>66.29</ele>
        <time>2022-04-10T10:48:00Z</time>
      </trkpt>
      <trkpt lat="49.06798" lon="1.70743">
        <ele>66.91</ele>
        <time>2022-04-10T10:48:15Z</time>
      </trkpt>
      <trkpt lat="49.06807" lon="1.70749">
        <ele>68.28</ele>
        <time>2022-04-10T10:48:29Z</time>
      </trkpt>
      <trkpt lat="49.06818" lon="1.7076">
        <ele>69.42</ele>
        <time>2022-04-10T10:48:45Z</time>
      </trkpt>
      <trkpt lat="49.06828" lon="1.7077">
        <ele>71.53</ele>
        <time>2022-04-10T10:49:01Z</time>
      </trkpt>
      <trkpt lat="49.0684" lon="1.70781">
        <ele>72.99</ele>
        <time>2022-04-10T10:49:19Z</time>
      </trkpt>
      <trkpt lat="49.06849" lon="1.70794">
        <ele>74.09</ele>
        <time>2022-04-10T10:49:35Z</time>
      </trkpt>
      <trkpt lat="49.06859" lon="1.70807">
        <ele>75.62</ele>
        <time>2022-04-10T10:49:50Z</time>
      </trkpt>
      <trkpt lat="49.06869" lon="1.70816">
        <ele>76.96</ele>
        <time>2022-04-10T10:50:04Z</time>
      </trkpt>
      <trkpt lat="49.06879" lon="1.70826">
        <ele>78.21</ele>
        <time>2022-04-10T10:50:18Z</time>
      </trkpt>
      <trkpt lat="49.06888" lon="1.70833">
        <ele>79.48</ele>
        <time>2022-04-10T10:50:32Z</time>
      </trkpt>
      <trkpt lat="49.06901" lon="1.70841">
        <ele>80.91</ele>
        <time>2022-04-10T10:50:49Z</time>
      </trkpt>
      <trkpt lat="49.06912" lon="1.70853">
        <ele>82.84</ele>
        <time>2022-04-10T10:51:06Z</time>
      </trkpt>
      <trkpt lat="49.06922" lon="1.70866">
        <ele>83.82</ele>
        <time>2022-04-10T10:51:21Z</time>
      </trkpt>
      <trkpt lat="49.06933" lon="1.70879">
        <ele>85.35</ele>
        <time>2022-04-10T10:51:37Z</time>
      </trkpt>
      <trkpt lat="49.0694" lon="1.70889">
        <ele>86.77</ele>
        <time>2022-04-10T10:51:51Z</time>
      </trkpt>
      <trkpt lat="49.06944" lon="1.70895">
        <ele>88.33</ele>
        <time>2022-04-10T10:52:01Z</time>
      </trkpt>
      <trkpt lat="49.06954" lon="1.70904">
        <ele>88.99</ele>
        <time>2022-04-10T10:52:16Z</time>
      </trkpt>
      <trkpt lat="49.06964" lon="1.70916">
        <ele>90.03</ele>
        <time>2022-04-10T10:52:31Z</time>
      </trkpt>
      <trkpt lat="49.06972" lon="1.70929">
        <ele>91.53</ele>
        <time>2022-04-10T10:52:48Z</time>
      </trkpt>
      <trkpt lat="49.06981" lon="1.70944">
        <ele>93.89</ele>
        <time>2022-04-10T10:53:04Z</time>
      </trkpt>
      <trkpt lat="49.06988" lon="1.70953">
        <ele>94.68</ele>
        <time>2022-04-10T10:53:19Z</time>
      </trkpt>
      <trkpt lat="49.06994" lon="1.70961">
        <ele>96.32</ele>
        <time>2022-04-10T10:53:35Z</time>
      </trkpt>
      <trkpt lat="49.07005" lon="1.70973">
        <ele>98.32</ele>
        <time>2022-04-10T10:53:50Z</time>
      </trkpt>
      <trkpt lat="49.07015" lon="1.70977">
        <ele>98.85</ele>
        <time>2022-04-10T10:54:03Z</time>
      </trkpt>
      <trkpt lat="49.07015" lon="1.70978">
        <ele>98.88</ele>
        <time>2022-04-10T10:54:05Z</time>
      </trkpt>
      <trkpt lat="49.07026" lon="1.70982">
        <ele>99.75</ele>
        <time>2022-04-10T10:54:21Z</time>
      </trkpt>
      <trkpt lat="49.07036" lon="1.70988">
        <ele>101.33</ele>
        <time>2022-04-10T10:54:36Z</time>
      </trkpt>
      <trkpt lat="49.07045" lon="1.70998">
        <ele>102.24</ele>
        <time>2022-04-10T10:54:50Z</time>
      </trkpt>
      <trkpt lat="49.07055" lon="1.7101">
        <ele>104.56</ele>
        <time>2022-04-10T10:55:06Z</time>
      </trkpt>
      <trkpt lat="49.07063" lon="1.7102">
        <ele>106.84</ele>
        <time>2022-04-10T10:55:20Z</time>
      </trkpt>
      <trkpt lat="49.07071" lon="1.71032">
        <ele>108.16</ele>
        <time>2022-04-10T10:55:35Z</time>
      </trkpt>
      <trkpt lat="49.07076" lon="1.71042">
        <ele>109.47</ele>
        <time>2022-04-10T10:55:49Z</time>
      </trkpt>
      <trkpt lat="49.07082" lon="1.71048">
        <ele>109.84</ele>
        <time>2022-04-10T10:56:05Z</time>
      </trkpt>
      <trkpt lat="49.07088" lon="1.71057">
        <ele>109.65</ele>
        <time>2022-04-10T10:56:19Z</time>
      </trkpt>
      <trkpt lat="49.07098" lon="1.71066">
        <ele>109.95</ele>
        <time>2022-04-10T10:56:33Z</time>
      </trkpt>
      <trkpt lat="49.07108" lon="1.71074">
        <ele>110.6</ele>
        <time>2022-04-10T10:56:49Z</time>
      </trkpt>
      <trkpt lat="49.07114" lon="1.71079">
        <ele>110.29</ele>
        <time>2022-04-10T10:57:00Z</time>
      </trkpt>
      <trkpt lat="49.07122" lon="1.7108">
        <ele>110.89</ele>
        <time>2022-04-10T10:57:14Z</time>
      </trkpt>
      <trkpt lat="49.07135" lon="1.71081">
        <ele>110.82</ele>
        <time>2022-04-10T10:57:27Z</time>
      </trkpt>
      <trkpt lat="49.07143" lon="1.71088">
        <ele>111.08</ele>
        <time>2022-04-10T10:57:40Z</time>
      </trkpt>
      <trkpt lat="49.07152" lon="1.71095">
        <ele>111.06</ele>
        <time>2022-04-10T10:57:51Z</time>
      </trkpt>
      <trkpt lat="49.07161" lon="1.711">
        <ele>111.49</ele>
        <time>2022-04-10T10:58:02Z</time>
      </trkpt>
      <trkpt lat="49.07168" lon="1.71103">
        <ele>111.5</ele>
        <time>2022-04-10T10:58:12Z</time>
      </trkpt>
      <trkpt lat="49.07179" lon="1.7111">
        <ele>112.21</ele>
        <time>2022-04-10T10:58:25Z</time>
      </trkpt>
      <trkpt lat="49.07191" lon="1.71115">
        <ele>111.64</ele>
        <time>2022-04-10T10:58:35Z</time>
      </trkpt>
      <trkpt lat="49.07203" lon="1.71121">
        <ele>111.49</ele>
        <time>2022-04-10T10:58:48Z</time>
      </trkpt>
      <trkpt lat="49.07213" lon="1.71127">
        <ele>113.24</ele>
        <time>2022-04-10T10:58:59Z</time>
      </trkpt>
      <trkpt lat="49.07223" lon="1.71135">
        <ele>112.4</ele>
        <time>2022-04-10T10:59:10Z</time>
      </trkpt>
      <trkpt lat="49.07235" lon="1.71142">
        <ele>113.57</ele>
        <time>2022-04-10T10:59:23Z</time>
      </trkpt>
      <trkpt lat="49.07244" lon="1.71147">
        <ele>114.2</ele>
        <time>2022-04-10T10:59:32Z</time>
      </trkpt>
      <trkpt lat="49.07251" lon="1.7115">
        <ele>113.89</ele>
        <time>2022-04-10T10:59:41Z</time>
      </trkpt>
      <trkpt lat="49.07262" lon="1.71156">
        <ele>113.87</ele>
        <time>2022-04-10T10:59:53Z</time>
      </trkpt>
      <trkpt lat="49.07273" lon="1.71162">
        <ele>114.56</ele>
        <time>2022-04-10T11:00:03Z</time>
      </trkpt>
      <trkpt lat="49.07283" lon="1.71167">
        <ele>115.66</ele>
        <time>2022-04-10T11:00:13Z</time>
      </trkpt>
      <trkpt lat="49.07287" lon="1.71169">
        <ele>115.46</ele>
        <time>2022-04-10T11:00:17Z</time>
      </trkpt>
      <trkpt lat="49.07297" lon="1.71173">
        <ele>116.42</ele>
        <time>2022-04-10T11:00:28Z</time>
      </trkpt>
      <trkpt lat="49.07309" lon="1.71179">
        <ele>116.41</ele>
        <time>2022-04-10T11:00:40Z</time>
      </trkpt>
      <trkpt lat="49.0732" lon="1.71183">
        <ele>116.75</ele>
        <time>2022-04-10T11:00:51Z</time>
      </trkpt>
      <trkpt lat="49.07323" lon="1.71183">
        <ele>117.19</ele>
        <time>2022-04-10T11:00:55Z</time>
      </trkpt>
      <trkpt lat="49.07333" lon="1.71187">
        <ele>117.58</ele>
        <time>2022-04-10T11:01:04Z</time>
      </trkpt>
      <trkpt lat="49.07343" lon="1.7119">
        <ele>117.74</ele>
        <time>2022-04-10T11:01:15Z</time>
      </trkpt>
      <trkpt lat="49.07351" lon="1.71195">
        <ele>118.05</ele>
        <time>2022-04-10T11:01:27Z</time>
      </trkpt>
      <trkpt lat="49.07358" lon="1.712">
        <ele>117.84</ele>
        <time>2022-04-10T11:01:42Z</time>
      </trkpt>
      <trkpt lat="49.07363" lon="1.71207">
        <ele>126.69</ele>
        <time>2022-04-10T11:43:41Z</time>
      </trkpt>
      <trkpt lat="49.07372" lon="1.7121">
        <ele>126.66</ele>
        <time>2022-04-10T11:43:57Z</time>
      </trkpt>
      <trkpt lat="49.07382" lon="1.71218">
        <ele>126.78</ele>
        <time>2022-04-10T11:44:15Z</time>
      </trkpt>
      <trkpt lat="49.07393" lon="1.71222">
        <ele>127.04</ele>
        <time>2022-04-10T11:44:30Z</time>
      </trkpt>
      <trkpt lat="49.07403" lon="1.71224">
        <ele>126.53</ele>
        <time>2022-04-10T11:44:45Z</time>
      </trkpt>
      <trkpt lat="49.07416" lon="1.71233">
        <ele>126.84</ele>
        <time>2022-04-10T11:45:00Z</time>
      </trkpt>
      <trkpt lat="49.07422" lon="1.71237">
        <ele>127.08</ele>
        <time>2022-04-10T11:45:07Z</time>
      </trkpt>
      <trkpt lat="49.07429" lon="1.71242">
        <ele>127.01</ele>
        <time>2022-04-10T11:45:18Z</time>
      </trkpt>
      <trkpt lat="49.07441" lon="1.71248">
        <ele>127.13</ele>
        <time>2022-04-10T11:45:33Z</time>
      </trkpt>
      <trkpt lat="49.07446" lon="1.71249">
        <ele>127.95</ele>
        <time>2022-04-10T11:45:47Z</time>
      </trkpt>
      <trkpt lat="49.07456" lon="1.71254">
        <ele>128.03</ele>
        <time>2022-04-10T11:46:05Z</time>
      </trkpt>
      <trkpt lat="49.07465" lon="1.71258">
        <ele>128.38</ele>
        <time>2022-04-10T11:46:22Z</time>
      </trkpt>
      <trkpt lat="49.0748" lon="1.71263">
        <ele>127.02</ele>
        <time>2022-04-10T11:46:38Z</time>
      </trkpt>
      <trkpt lat="49.07495" lon="1.71269">
        <ele>126.64</ele>
        <time>2022-04-10T11:46:53Z</time>
      </trkpt>
      <trkpt lat="49.07497" lon="1.71271">
        <ele>126.7</ele>
        <time>2022-04-10T11:46:55Z</time>
      </trkpt>
      <trkpt lat="49.07508" lon="1.71277">
        <ele>126.49</ele>
        <time>2022-04-10T11:47:07Z</time>
      </trkpt>
      <trkpt lat="49.07522" lon="1.71289">
        <ele>126.64</ele>
        <time>2022-04-10T11:47:25Z</time>
      </trkpt>
      <trkpt lat="49.07527" lon="1.71292">
        <ele>126.39</ele>
        <time>2022-04-10T11:47:31Z</time>
      </trkpt>
      <trkpt lat="49.0753" lon="1.71293">
        <ele>126.27</ele>
        <time>2022-04-10T11:47:33Z</time>
      </trkpt>
      <trkpt lat="49.07536" lon="1.71293">
        <ele>126.17</ele>
        <time>2022-04-10T11:47:37Z</time>
      </trkpt>
      <trkpt lat="49.07548" lon="1.71293">
        <ele>126.82</ele>
        <time>2022-04-10T11:47:48Z</time>
      </trkpt>
      <trkpt lat="49.07561" lon="1.71306">
        <ele>127.32</ele>
        <time>2022-04-10T11:47:59Z</time>
      </trkpt>
      <trkpt lat="49.07573" lon="1.71317">
        <ele>127.61</ele>
        <time>2022-04-10T11:48:14Z</time>
      </trkpt>
      <trkpt lat="49.07581" lon="1.7132">
        <ele>127.52</ele>
        <time>2022-04-10T11:48:23Z</time>
      </trkpt>
      <trkpt lat="49.07595" lon="1.71324">
        <ele>129.43</ele>
        <time>2022-04-10T11:48:43Z</time>
      </trkpt>
      <trkpt lat="49.07611" lon="1.71329">
        <ele>130.15</ele>
        <time>2022-04-10T11:48:58Z</time>
      </trkpt>
      <trkpt lat="49.07614" lon="1.71329">
        <ele>129.83</ele>
        <time>2022-04-10T11:49:01Z</time>
      </trkpt>
      <trkpt lat="49.07628" lon="1.71335">
        <ele>130.2</ele>
        <time>2022-04-10T11:49:15Z</time>
      </trkpt>
      <trkpt lat="49.0764" lon="1.71338">
        <ele>130.21</ele>
        <time>2022-04-10T11:49:30Z</time>
      </trkpt>
      <trkpt lat="49.0765" lon="1.71343">
        <ele>130.37</ele>
        <time>2022-04-10T11:49:42Z</time>
      </trkpt>
      <trkpt lat="49.07655" lon="1.71345">
        <ele>130.81</ele>
        <time>2022-04-10T11:49:49Z</time>
      </trkpt>
      <trkpt lat="49.07666" lon="1.71348">
        <ele>131.04</ele>
        <time>2022-04-10T11:50:02Z</time>
      </trkpt>
      <trkpt lat="49.07677" lon="1.71351">
        <ele>131.17</ele>
        <time>2022-04-10T11:50:15Z</time>
      </trkpt>
      <trkpt lat="49.07686" lon="1.71358">
        <ele>131.37</ele>
        <time>2022-04-10T11:50:26Z</time>
      </trkpt>
      <trkpt lat="49.07694" lon="1.71365">
        <ele>131.59</ele>
        <time>2022-04-10T11:50:38Z</time>
      </trkpt>
      <trkpt lat="49.07706" lon="1.71372">
        <ele>131.95</ele>
        <time>2022-04-10T11:50:51Z</time>
      </trkpt>
      <trkpt lat="49.0772" lon="1.71377">
        <ele>132.22</ele>
        <time>2022-04-10T11:51:05Z</time>
      </trkpt>
      <trkpt lat="49.07733" lon="1.71381">
        <ele>132.39</ele>
        <time>2022-04-10T11:51:19Z</time>
      </trkpt>
      <trkpt lat="49.07743" lon="1.71385">
        <ele>132.32</ele>
        <time>2022-04-10T11:51:30Z</time>
      </trkpt>
      <trkpt lat="49.07753" lon="1.7139">
        <ele>133.12</ele>
        <time>2022-04-10T11:51:41Z</time>
      </trkpt>
      <trkpt lat="49.07764" lon="1.71394">
        <ele>132.37</ele>
        <time>2022-04-10T11:51:52Z</time>
      </trkpt>
      <trkpt lat="49.07773" lon="1.71399">
        <ele>132.57</ele>
        <time>2022-04-10T11:52:03Z</time>
      </trkpt>
      <trkpt lat="49.07779" lon="1.71402">
        <ele>132.46</ele>
        <time>2022-04-10T11:52:09Z</time>
      </trkpt>
      <trkpt lat="49.07791" lon="1.71408">
        <ele>132.54</ele>
        <time>2022-04-10T11:52:21Z</time>
      </trkpt>
      <trkpt lat="49.07802" lon="1.71413">
        <ele>133.19</ele>
        <time>2022-04-10T11:52:32Z</time>
      </trkpt>
      <trkpt lat="49.07812" lon="1.71417">
        <ele>132.97</ele>
        <time>2022-04-10T11:52:43Z</time>
      </trkpt>
      <trkpt lat="49.07816" lon="1.71418">
        <ele>132.94</ele>
        <time>2022-04-10T11:52:47Z</time>
      </trkpt>
      <trkpt lat="49.07827" lon="1.71424">
        <ele>133.41</ele>
        <time>2022-04-10T11:52:59Z</time>
      </trkpt>
      <trkpt lat="49.0784" lon="1.71431">
        <ele>133.7</ele>
        <time>2022-04-10T11:53:12Z</time>
      </trkpt>
      <trkpt lat="49.07853" lon="1.71435">
        <ele>133.53</ele>
        <time>2022-04-10T11:53:26Z</time>
      </trkpt>
      <trkpt lat="49.07863" lon="1.7144">
        <ele>133.12</ele>
        <time>2022-04-10T11:53:37Z</time>
      </trkpt>
      <trkpt lat="49.07874" lon="1.71444">
        <ele>132.99</ele>
        <time>2022-04-10T11:53:48Z</time>
      </trkpt>
      <trkpt lat="49.07884" lon="1.71449">
        <ele>133.65</ele>
        <time>2022-04-10T11:54:01Z</time>
      </trkpt>
      <trkpt lat="49.07895" lon="1.71453">
        <ele>134.17</ele>
        <time>2022-04-10T11:54:12Z</time>
      </trkpt>
      <trkpt lat="49.07907" lon="1.71456">
        <ele>134.01</ele>
        <time>2022-04-10T11:54:25Z</time>
      </trkpt>
      <trkpt lat="49.0791" lon="1.71457">
        <ele>133.86</ele>
        <time>2022-04-10T11:54:28Z</time>
      </trkpt>
      <trkpt lat="49.07921" lon="1.71462">
        <ele>134.44</ele>
        <time>2022-04-10T11:54:41Z</time>
      </trkpt>
      <trkpt lat="49.07933" lon="1.71464">
        <ele>134.18</ele>
        <time>2022-04-10T11:54:54Z</time>
      </trkpt>
      <trkpt lat="49.07943" lon="1.71466">
        <ele>134.39</ele>
        <time>2022-04-10T11:55:04Z</time>
      </trkpt>
      <trkpt lat="49.07955" lon="1.71467">
        <ele>134.48</ele>
        <time>2022-04-10T11:55:17Z</time>
      </trkpt>
      <trkpt lat="49.07967" lon="1.71471">
        <ele>134.29</ele>
        <time>2022-04-10T11:55:29Z</time>
      </trkpt>
      <trkpt lat="49.07978" lon="1.71473">
        <ele>135.12</ele>
        <time>2022-04-10T11:55:42Z</time>
      </trkpt>
      <trkpt lat="49.07989" lon="1.71478">
        <ele>134.88</ele>
        <time>2022-04-10T11:55:54Z</time>
      </trkpt>
      <trkpt lat="49.07998" lon="1.71485">
        <ele>135.04</ele>
        <time>2022-04-10T11:56:05Z</time>
      </trkpt>
      <trkpt lat="49.08009" lon="1.71493">
        <ele>135.33</ele>
        <time>2022-04-10T11:56:17Z</time>
      </trkpt>
      <trkpt lat="49.08017" lon="1.71501">
        <ele>135.59</ele>
        <time>2022-04-10T11:56:26Z</time>
      </trkpt>
      <trkpt lat="49.08018" lon="1.71503">
        <ele>135.32</ele>
        <time>2022-04-10T11:56:28Z</time>
      </trkpt>
      <trkpt lat="49.08026" lon="1.71511">
        <ele>135.46</ele>
        <time>2022-04-10T11:56:38Z</time>
      </trkpt>
      <trkpt lat="49.08035" lon="1.71522">
        <ele>135.54</ele>
        <time>2022-04-10T11:56:49Z</time>
      </trkpt>
      <trkpt lat="49.08045" lon="1.71536">
        <ele>135.6</ele>
        <time>2022-04-10T11:57:02Z</time>
      </trkpt>
      <trkpt lat="49.08055" lon="1.71546">
        <ele>135.26</ele>
        <time>2022-04-10T11:57:13Z</time>
      </trkpt>
      <trkpt lat="49.08057" lon="1.71548">
        <ele>135.39</ele>
        <time>2022-04-10T11:57:15Z</time>
      </trkpt>
      <trkpt lat="49.08066" lon="1.7156">
        <ele>135.41</ele>
        <time>2022-04-10T11:57:26Z</time>
      </trkpt>
      <trkpt lat="49.08069" lon="1.71562">
        <ele>135.72</ele>
        <time>2022-04-10T11:57:29Z</time>
      </trkpt>
      <trkpt lat="49.08071" lon="1.71564">
        <ele>135.87</ele>
        <time>2022-04-10T11:57:31Z</time>
      </trkpt>
      <trkpt lat="49.08073" lon="1.71566">
        <ele>136.01</ele>
        <time>2022-04-10T11:57:33Z</time>
      </trkpt>
      <trkpt lat="49.08081" lon="1.71575">
        <ele>135.72</ele>
        <time>2022-04-10T11:57:42Z</time>
      </trkpt>
      <trkpt lat="49.08086" lon="1.7158">
        <ele>136.14</ele>
        <time>2022-04-10T11:57:49Z</time>
      </trkpt>
      <trkpt lat="49.08088" lon="1.71582">
        <ele>136.05</ele>
        <time>2022-04-10T11:57:52Z</time>
      </trkpt>
      <trkpt lat="49.08091" lon="1.71586">
        <ele>135.89</ele>
        <time>2022-04-10T11:57:56Z</time>
      </trkpt>
      <trkpt lat="49.08102" lon="1.71596">
        <ele>136.06</ele>
        <time>2022-04-10T11:58:08Z</time>
      </trkpt>
      <trkpt lat="49.08104" lon="1.71599">
        <ele>136.2</ele>
        <time>2022-04-10T11:58:11Z</time>
      </trkpt>
      <trkpt lat="49.08117" lon="1.71612">
        <ele>136.27</ele>
        <time>2022-04-10T11:58:25Z</time>
      </trkpt>
      <trkpt lat="49.08128" lon="1.71624">
        <ele>136.49</ele>
        <time>2022-04-10T11:58:38Z</time>
      </trkpt>
      <trkpt lat="49.08137" lon="1.71634">
        <ele>136.37</ele>
        <time>2022-04-10T11:58:48Z</time>
      </trkpt>
      <trkpt lat="49.08144" lon="1.71646">
        <ele>136.23</ele>
        <time>2022-04-10T11:58:57Z</time>
      </trkpt>
      <trkpt lat="49.08151" lon="1.71654">
        <ele>136.29</ele>
        <time>2022-04-10T11:59:04Z</time>
      </trkpt>
      <trkpt lat="49.08154" lon="1.71658">
        <ele>136.43</ele>
        <time>2022-04-10T11:59:08Z</time>
      </trkpt>
      <trkpt lat="49.08162" lon="1.71666">
        <ele>136.36</ele>
        <time>2022-04-10T11:59:17Z</time>
      </trkpt>
      <trkpt lat="49.08169" lon="1.71681">
        <ele>136.32</ele>
        <time>2022-04-10T11:59:29Z</time>
      </trkpt>
      <trkpt lat="49.08179" lon="1.71695">
        <ele>136.37</ele>
        <time>2022-04-10T11:59:41Z</time>
      </trkpt>
      <trkpt lat="49.08187" lon="1.71706">
        <ele>137.1</ele>
        <time>2022-04-10T11:59:51Z</time>
      </trkpt>
      <trkpt lat="49.08195" lon="1.7172">
        <ele>136.72</ele>
        <time>2022-04-10T12:00:02Z</time>
      </trkpt>
      <trkpt lat="49.082" lon="1.71726">
        <ele>136.88</ele>
        <time>2022-04-10T12:00:08Z</time>
      </trkpt>
      <trkpt lat="49.08212" lon="1.71742">
        <ele>137.08</ele>
        <time>2022-04-10T12:00:22Z</time>
      </trkpt>
      <trkpt lat="49.08221" lon="1.71753">
        <ele>136.73</ele>
        <time>2022-04-10T12:00:34Z</time>
      </trkpt>
      <trkpt lat="49.08228" lon="1.71762">
        <ele>137.24</ele>
        <time>2022-04-10T12:00:44Z</time>
      </trkpt>
      <trkpt lat="49.08232" lon="1.71768">
        <ele>137.28</ele>
        <time>2022-04-10T12:00:57Z</time>
      </trkpt>
      <trkpt lat="49.08243" lon="1.71779">
        <ele>137.28</ele>
        <time>2022-04-10T12:01:10Z</time>
      </trkpt>
      <trkpt lat="49.08252" lon="1.71789">
        <ele>137.45</ele>
        <time>2022-04-10T12:01:23Z</time>
      </trkpt>
      <trkpt lat="49.08262" lon="1.71799">
        <ele>137.78</ele>
        <time>2022-04-10T12:01:35Z</time>
      </trkpt>
      <trkpt lat="49.08264" lon="1.71801">
        <ele>137.59</ele>
        <time>2022-04-10T12:01:37Z</time>
      </trkpt>
      <trkpt lat="49.08267" lon="1.71804">
        <ele>137.35</ele>
        <time>2022-04-10T12:01:41Z</time>
      </trkpt>
      <trkpt lat="49.0828" lon="1.71814">
        <ele>137.76</ele>
        <time>2022-04-10T12:01:55Z</time>
      </trkpt>
      <trkpt lat="49.08291" lon="1.71822">
        <ele>138.33</ele>
        <time>2022-04-10T12:02:06Z</time>
      </trkpt>
      <trkpt lat="49.08303" lon="1.71831">
        <ele>139.17</ele>
        <time>2022-04-10T12:02:19Z</time>
      </trkpt>
      <trkpt lat="49.08312" lon="1.71838">
        <ele>138.79</ele>
        <time>2022-04-10T12:02:29Z</time>
      </trkpt>
      <trkpt lat="49.08321" lon="1.71846">
        <ele>139.07</ele>
        <time>2022-04-10T12:02:39Z</time>
      </trkpt>
      <trkpt lat="49.08333" lon="1.71854">
        <ele>139.07</ele>
        <time>2022-04-10T12:02:51Z</time>
      </trkpt>
      <trkpt lat="49.08334" lon="1.71855">
        <ele>139.09</ele>
        <time>2022-04-10T12:02:52Z</time>
      </trkpt>
      <trkpt lat="49.08344" lon="1.71863">
        <ele>139.26</ele>
        <time>2022-04-10T12:03:03Z</time>
      </trkpt>
      <trkpt lat="49.08348" lon="1.71865">
        <ele>138.97</ele>
        <time>2022-04-10T12:03:07Z</time>
      </trkpt>
      <trkpt lat="49.08356" lon="1.7187">
        <ele>139.58</ele>
        <time>2022-04-10T12:03:17Z</time>
      </trkpt>
      <trkpt lat="49.0836" lon="1.71873">
        <ele>139.81</ele>
        <time>2022-04-10T12:03:30Z</time>
      </trkpt>
      <trkpt lat="49.08363" lon="1.71876">
        <ele>139.49</ele>
        <time>2022-04-10T12:03:35Z</time>
      </trkpt>
      <trkpt lat="49.08367" lon="1.7188">
        <ele>139.8</ele>
        <time>2022-04-10T12:03:40Z</time>
      </trkpt>
      <trkpt lat="49.08376" lon="1.71889">
        <ele>139.2</ele>
        <time>2022-04-10T12:03:51Z</time>
      </trkpt>
      <trkpt lat="49.08382" lon="1.71893">
        <ele>140.56</ele>
        <time>2022-04-10T12:03:58Z</time>
      </trkpt>
      <trkpt lat="49.08389" lon="1.71897">
        <ele>139.92</ele>
        <time>2022-04-10T12:04:07Z</time>
      </trkpt>
      <trkpt lat="49.08397" lon="1.7191">
        <ele>140.39</ele>
        <time>2022-04-10T12:04:18Z</time>
      </trkpt>
      <trkpt lat="49.08409" lon="1.71923">
        <ele>140.4</ele>
        <time>2022-04-10T12:04:32Z</time>
      </trkpt>
      <trkpt lat="49.08414" lon="1.71928">
        <ele>140.27</ele>
        <time>2022-04-10T12:04:38Z</time>
      </trkpt>
      <trkpt lat="49.08423" lon="1.71938">
        <ele>141.07</ele>
        <time>2022-04-10T12:04:49Z</time>
      </trkpt>
      <trkpt lat="49.08427" lon="1.71942">
        <ele>140.96</ele>
        <time>2022-04-10T12:04:54Z</time>
      </trkpt>
      <trkpt lat="49.08438" lon="1.71955">
        <ele>141.3</ele>
        <time>2022-04-10T12:05:06Z</time>
      </trkpt>
      <trkpt lat="49.08446" lon="1.71966">
        <ele>141.17</ele>
        <time>2022-04-10T12:05:17Z</time>
      </trkpt>
      <trkpt lat="49.0845" lon="1.7197">
        <ele>141.19</ele>
        <time>2022-04-10T12:05:23Z</time>
      </trkpt>
      <trkpt lat="49.08452" lon="1.71972">
        <ele>141.21</ele>
        <time>2022-04-10T12:05:26Z</time>
      </trkpt>
      <trkpt lat="49.0846" lon="1.71986">
        <ele>141.55</ele>
        <time>2022-04-10T12:05:37Z</time>
      </trkpt>
      <trkpt lat="49.08466" lon="1.71995">
        <ele>141.47</ele>
        <time>2022-04-10T12:05:45Z</time>
      </trkpt>
      <trkpt lat="49.08477" lon="1.72008">
        <ele>141.43</ele>
        <time>2022-04-10T12:05:58Z</time>
      </trkpt>
      <trkpt lat="49.08489" lon="1.72018">
        <ele>140.72</ele>
        <time>2022-04-10T12:06:10Z</time>
      </trkpt>
      <trkpt lat="49.08492" lon="1.72019">
        <ele>141.01</ele>
        <time>2022-04-10T12:06:13Z</time>
      </trkpt>
      <trkpt lat="49.08496" lon="1.72023">
        <ele>140.72</ele>
        <time>2022-04-10T12:06:18Z</time>
      </trkpt>
      <trkpt lat="49.08508" lon="1.7203">
        <ele>140.47</ele>
        <time>2022-04-10T12:06:31Z</time>
      </trkpt>
      <trkpt lat="49.08516" lon="1.72036">
        <ele>140.92</ele>
        <time>2022-04-10T12:06:41Z</time>
      </trkpt>
      <trkpt lat="49.08529" lon="1.72043">
        <ele>140.38</ele>
        <time>2022-04-10T12:06:53Z</time>
      </trkpt>
      <trkpt lat="49.08534" lon="1.72046">
        <ele>140.45</ele>
        <time>2022-04-10T12:06:59Z</time>
      </trkpt>
      <trkpt lat="49.08546" lon="1.72052">
        <ele>139.86</ele>
        <time>2022-04-10T12:07:12Z</time>
      </trkpt>
      <trkpt lat="49.08556" lon="1.72057">
        <ele>139.88</ele>
        <time>2022-04-10T12:07:22Z</time>
      </trkpt>
      <trkpt lat="49.08567" lon="1.7206">
        <ele>139.84</ele>
        <time>2022-04-10T12:07:33Z</time>
      </trkpt>
      <trkpt lat="49.08576" lon="1.72063">
        <ele>139.57</ele>
        <time>2022-04-10T12:07:43Z</time>
      </trkpt>
      <trkpt lat="49.08586" lon="1.72068">
        <ele>139.23</ele>
        <time>2022-04-10T12:07:53Z</time>
      </trkpt>
      <trkpt lat="49.08596" lon="1.72071">
        <ele>138.69</ele>
        <time>2022-04-10T12:08:04Z</time>
      </trkpt>
      <trkpt lat="49.08605" lon="1.72074">
        <ele>138.37</ele>
        <time>2022-04-10T12:08:14Z</time>
      </trkpt>
      <trkpt lat="49.08612" lon="1.72077">
        <ele>137.57</ele>
        <time>2022-04-10T12:08:24Z</time>
      </trkpt>
      <trkpt lat="49.08626" lon="1.72087">
        <ele>137.98</ele>
        <time>2022-04-10T12:08:40Z</time>
      </trkpt>
      <trkpt lat="49.0863" lon="1.72088">
        <ele>137.18</ele>
        <time>2022-04-10T12:08:52Z</time>
      </trkpt>
      <trkpt lat="49.08629" lon="1.7209">
        <ele>136.85</ele>
        <time>2022-04-10T12:09:13Z</time>
      </trkpt>
      <trkpt lat="49.08628" lon="1.7209">
        <ele>137.25</ele>
        <time>2022-04-10T12:09:31Z</time>
      </trkpt>
      <trkpt lat="49.08629" lon="1.72088">
        <ele>137.35</ele>
        <time>2022-04-10T12:09:46Z</time>
      </trkpt>
      <trkpt lat="49.08633" lon="1.72087">
        <ele>136.8</ele>
        <time>2022-04-10T12:10:07Z</time>
      </trkpt>
      <trkpt lat="49.08641" lon="1.72099">
        <ele>137.24</ele>
        <time>2022-04-10T12:10:20Z</time>
      </trkpt>
      <trkpt lat="49.08655" lon="1.72108">
        <ele>137.47</ele>
        <time>2022-04-10T12:10:36Z</time>
      </trkpt>
      <trkpt lat="49.08668" lon="1.72112">
        <ele>138</ele>
        <time>2022-04-10T12:10:50Z</time>
      </trkpt>
      <trkpt lat="49.08681" lon="1.72116">
        <ele>138.12</ele>
        <time>2022-04-10T12:11:03Z</time>
      </trkpt>
      <trkpt lat="49.08695" lon="1.72121">
        <ele>137.85</ele>
        <time>2022-04-10T12:11:18Z</time>
      </trkpt>
      <trkpt lat="49.08716" lon="1.72125">
        <ele>137.86</ele>
        <time>2022-04-10T12:11:33Z</time>
      </trkpt>
      <trkpt lat="49.08725" lon="1.72127">
        <ele>137.83</ele>
        <time>2022-04-10T12:11:43Z</time>
      </trkpt>
      <trkpt lat="49.08741" lon="1.72131">
        <ele>137.69</ele>
        <time>2022-04-10T12:11:58Z</time>
      </trkpt>
      <trkpt lat="49.08742" lon="1.72145">
        <ele>137.9</ele>
        <time>2022-04-10T12:12:11Z</time>
      </trkpt>
      <trkpt lat="49.08742" lon="1.72152">
        <ele>136.45</ele>
        <time>2022-04-10T12:12:16Z</time>
      </trkpt>
      <trkpt lat="49.08743" lon="1.72165">
        <ele>137.01</ele>
        <time>2022-04-10T12:12:27Z</time>
      </trkpt>
      <trkpt lat="49.08744" lon="1.72169">
        <ele>137.26</ele>
        <time>2022-04-10T12:12:30Z</time>
      </trkpt>
      <trkpt lat="49.08745" lon="1.72186">
        <ele>137.25</ele>
        <time>2022-04-10T12:12:44Z</time>
      </trkpt>
      <trkpt lat="49.08747" lon="1.72209">
        <ele>136.99</ele>
        <time>2022-04-10T12:12:59Z</time>
      </trkpt>
      <trkpt lat="49.08749" lon="1.72225">
        <ele>137.53</ele>
        <time>2022-04-10T12:13:14Z</time>
      </trkpt>
      <trkpt lat="49.08747" lon="1.72247">
        <ele>137.49</ele>
        <time>2022-04-10T12:13:29Z</time>
      </trkpt>
      <trkpt lat="49.08747" lon="1.72276">
        <ele>137.69</ele>
        <time>2022-04-10T12:13:45Z</time>
      </trkpt>
      <trkpt lat="49.08751" lon="1.72295">
        <ele>138.15</ele>
        <time>2022-04-10T12:13:59Z</time>
      </trkpt>
      <trkpt lat="49.08753" lon="1.72319">
        <ele>138.2</ele>
        <time>2022-04-10T12:14:11Z</time>
      </trkpt>
      <trkpt lat="49.08754" lon="1.72326">
        <ele>138.83</ele>
        <time>2022-04-10T12:14:15Z</time>
      </trkpt>
      <trkpt lat="49.08755" lon="1.72329">
        <ele>138.99</ele>
        <time>2022-04-10T12:14:17Z</time>
      </trkpt>
      <trkpt lat="49.08756" lon="1.72332">
        <ele>138.97</ele>
        <time>2022-04-10T12:14:19Z</time>
      </trkpt>
      <trkpt lat="49.08761" lon="1.7235">
        <ele>139.3</ele>
        <time>2022-04-10T12:14:31Z</time>
      </trkpt>
      <trkpt lat="49.08771" lon="1.72369">
        <ele>139.84</ele>
        <time>2022-04-10T12:14:47Z</time>
      </trkpt>
      <trkpt lat="49.08776" lon="1.72377">
        <ele>140.18</ele>
        <time>2022-04-10T12:14:54Z</time>
      </trkpt>
      <trkpt lat="49.08784" lon="1.72385">
        <ele>139.73</ele>
        <time>2022-04-10T12:15:03Z</time>
      </trkpt>
      <trkpt lat="49.08796" lon="1.72397">
        <ele>140.32</ele>
        <time>2022-04-10T12:15:15Z</time>
      </trkpt>
      <trkpt lat="49.08802" lon="1.72404">
        <ele>140.81</ele>
        <time>2022-04-10T12:15:23Z</time>
      </trkpt>
      <trkpt lat="49.08809" lon="1.72414">
        <ele>141.14</ele>
        <time>2022-04-10T12:15:33Z</time>
      </trkpt>
      <trkpt lat="49.08813" lon="1.72437">
        <ele>141.35</ele>
        <time>2022-04-10T12:15:48Z</time>
      </trkpt>
      <trkpt lat="49.08815" lon="1.72444">
        <ele>141.69</ele>
        <time>2022-04-10T12:15:59Z</time>
      </trkpt>
      <trkpt lat="49.08814" lon="1.72448">
        <ele>141.59</ele>
        <time>2022-04-10T12:16:02Z</time>
      </trkpt>
      <trkpt lat="49.08813" lon="1.72451">
        <ele>141.41</ele>
        <time>2022-04-10T12:16:04Z</time>
      </trkpt>
      <trkpt lat="49.08809" lon="1.72463">
        <ele>141.17</ele>
        <time>2022-04-10T12:16:12Z</time>
      </trkpt>
      <trkpt lat="49.08807" lon="1.72471">
        <ele>141.26</ele>
        <time>2022-04-10T12:16:17Z</time>
      </trkpt>
      <trkpt lat="49.08799" lon="1.7249">
        <ele>140.54</ele>
        <time>2022-04-10T12:16:33Z</time>
      </trkpt>
      <trkpt lat="49.08795" lon="1.7251">
        <ele>139.88</ele>
        <time>2022-04-10T12:16:46Z</time>
      </trkpt>
      <trkpt lat="49.08797" lon="1.72529">
        <ele>140.13</ele>
        <time>2022-04-10T12:16:57Z</time>
      </trkpt>
      <trkpt lat="49.08797" lon="1.72533">
        <ele>140.08</ele>
        <time>2022-04-10T12:17:11Z</time>
      </trkpt>
      <trkpt lat="49.08797" lon="1.72537">
        <ele>140.21</ele>
        <time>2022-04-10T12:17:34Z</time>
      </trkpt>
      <trkpt lat="49.088" lon="1.72538">
        <ele>139.87</ele>
        <time>2022-04-10T12:17:53Z</time>
      </trkpt>
      <trkpt lat="49.08807" lon="1.72546">
        <ele>140.56</ele>
        <time>2022-04-10T12:18:07Z</time>
      </trkpt>
      <trkpt lat="49.08814" lon="1.72555">
        <ele>140.43</ele>
        <time>2022-04-10T12:18:20Z</time>
      </trkpt>
      <trkpt lat="49.08819" lon="1.72562">
        <ele>140.89</ele>
        <time>2022-04-10T12:18:38Z</time>
      </trkpt>
      <trkpt lat="49.08821" lon="1.72563">
        <ele>140.77</ele>
        <time>2022-04-10T12:18:44Z</time>
      </trkpt>
      <trkpt lat="49.08829" lon="1.72574">
        <ele>141.15</ele>
        <time>2022-04-10T12:18:56Z</time>
      </trkpt>
      <trkpt lat="49.08836" lon="1.72583">
        <ele>141.75</ele>
        <time>2022-04-10T12:19:08Z</time>
      </trkpt>
      <trkpt lat="49.08844" lon="1.72589">
        <ele>141.43</ele>
        <time>2022-04-10T12:19:20Z</time>
      </trkpt>
      <trkpt lat="49.08844" lon="1.7259">
        <ele>141.08</ele>
        <time>2022-04-10T12:19:21Z</time>
      </trkpt>
      <trkpt lat="49.08851" lon="1.72598">
        <ele>142.05</ele>
        <time>2022-04-10T12:19:32Z</time>
      </trkpt>
      <trkpt lat="49.08861" lon="1.72614">
        <ele>142.37</ele>
        <time>2022-04-10T12:19:48Z</time>
      </trkpt>
      <trkpt lat="49.0887" lon="1.72627">
        <ele>142.71</ele>
        <time>2022-04-10T12:20:00Z</time>
      </trkpt>
      <trkpt lat="49.08878" lon="1.7263">
        <ele>142.56</ele>
        <time>2022-04-10T12:20:11Z</time>
      </trkpt>
      <trkpt lat="49.08881" lon="1.72629">
        <ele>142.89</ele>
        <time>2022-04-10T12:20:15Z</time>
      </trkpt>
      <trkpt lat="49.08888" lon="1.72622">
        <ele>142.88</ele>
        <time>2022-04-10T12:20:26Z</time>
      </trkpt>
      <trkpt lat="49.08897" lon="1.72623">
        <ele>144.18</ele>
        <time>2022-04-10T12:20:42Z</time>
      </trkpt>
      <trkpt lat="49.08907" lon="1.72614">
        <ele>145.2</ele>
        <time>2022-04-10T12:20:57Z</time>
      </trkpt>
      <trkpt lat="49.08921" lon="1.72605">
        <ele>146.03</ele>
        <time>2022-04-10T12:21:16Z</time>
      </trkpt>
      <trkpt lat="49.08936" lon="1.72597">
        <ele>146.72</ele>
        <time>2022-04-10T12:21:32Z</time>
      </trkpt>
      <trkpt lat="49.08956" lon="1.72585">
        <ele>148.54</ele>
        <time>2022-04-10T12:21:51Z</time>
      </trkpt>
      <trkpt lat="49.08969" lon="1.72575">
        <ele>149.15</ele>
        <time>2022-04-10T12:22:07Z</time>
      </trkpt>
      <trkpt lat="49.08982" lon="1.72569">
        <ele>149.92</ele>
        <time>2022-04-10T12:22:21Z</time>
      </trkpt>
      <trkpt lat="49.08997" lon="1.72557">
        <ele>151.21</ele>
        <time>2022-04-10T12:22:38Z</time>
      </trkpt>
      <trkpt lat="49.0901" lon="1.72552">
        <ele>152.6</ele>
        <time>2022-04-10T12:22:53Z</time>
      </trkpt>
      <trkpt lat="49.09022" lon="1.72552">
        <ele>153.41</ele>
        <time>2022-04-10T12:23:08Z</time>
      </trkpt>
      <trkpt lat="49.09036" lon="1.72547">
        <ele>154.24</ele>
        <time>2022-04-10T12:23:25Z</time>
      </trkpt>
      <trkpt lat="49.09054" lon="1.72549">
        <ele>154.81</ele>
        <time>2022-04-10T12:23:41Z</time>
      </trkpt>
      <trkpt lat="49.09071" lon="1.72545">
        <ele>155.76</ele>
        <time>2022-04-10T12:23:58Z</time>
      </trkpt>
      <trkpt lat="49.09086" lon="1.72536">
        <ele>156.86</ele>
        <time>2022-04-10T12:24:12Z</time>
      </trkpt>
      <trkpt lat="49.09097" lon="1.72534">
        <ele>157.2</ele>
        <time>2022-04-10T12:24:24Z</time>
      </trkpt>
      <trkpt lat="49.091" lon="1.72522">
        <ele>158.16</ele>
        <time>2022-04-10T12:24:38Z</time>
      </trkpt>
      <trkpt lat="49.09099" lon="1.72516">
        <ele>159.52</ele>
        <time>2022-04-10T12:24:42Z</time>
      </trkpt>
      <trkpt lat="49.09098" lon="1.72512">
        <ele>158.25</ele>
        <time>2022-04-10T12:24:46Z</time>
      </trkpt>
      <trkpt lat="49.09095" lon="1.72508">
        <ele>158.11</ele>
        <time>2022-04-10T12:24:53Z</time>
      </trkpt>
      <trkpt lat="49.0909" lon="1.72486">
        <ele>157.43</ele>
        <time>2022-04-10T12:25:08Z</time>
      </trkpt>
      <trkpt lat="49.09079" lon="1.72471">
        <ele>156.26</ele>
        <time>2022-04-10T12:25:24Z</time>
      </trkpt>
      <trkpt lat="49.09074" lon="1.7246">
        <ele>156.21</ele>
        <time>2022-04-10T12:25:32Z</time>
      </trkpt>
      <trkpt lat="49.09062" lon="1.7244">
        <ele>155.98</ele>
        <time>2022-04-10T12:25:48Z</time>
      </trkpt>
      <trkpt lat="49.09064" lon="1.72432">
        <ele>156.81</ele>
        <time>2022-04-10T12:26:02Z</time>
      </trkpt>
      <trkpt lat="49.09076" lon="1.72424">
        <ele>158.52</ele>
        <time>2022-04-10T12:26:17Z</time>
      </trkpt>
      <trkpt lat="49.09081" lon="1.72421">
        <ele>158.58</ele>
        <time>2022-04-10T12:26:22Z</time>
      </trkpt>
      <trkpt lat="49.09088" lon="1.72418">
        <ele>159.64</ele>
        <time>2022-04-10T12:26:29Z</time>
      </trkpt>
      <trkpt lat="49.09099" lon="1.72412">
        <ele>160.51</ele>
        <time>2022-04-10T12:26:40Z</time>
      </trkpt>
      <trkpt lat="49.09101" lon="1.72411">
        <ele>160.6</ele>
        <time>2022-04-10T12:26:42Z</time>
      </trkpt>
      <trkpt lat="49.0911" lon="1.72405">
        <ele>161.86</ele>
        <time>2022-04-10T12:26:54Z</time>
      </trkpt>
      <trkpt lat="49.09122" lon="1.72398">
        <ele>163.37</ele>
        <time>2022-04-10T12:27:09Z</time>
      </trkpt>
      <trkpt lat="49.0913" lon="1.72392">
        <ele>164.67</ele>
        <time>2022-04-10T12:27:18Z</time>
      </trkpt>
      <trkpt lat="49.09136" lon="1.72388">
        <ele>165.2</ele>
        <time>2022-04-10T12:27:26Z</time>
      </trkpt>
      <trkpt lat="49.09146" lon="1.72382">
        <ele>167.07</ele>
        <time>2022-04-10T12:27:37Z</time>
      </trkpt>
      <trkpt lat="49.09156" lon="1.72379">
        <ele>168.32</ele>
        <time>2022-04-10T12:27:48Z</time>
      </trkpt>
      <trkpt lat="49.09159" lon="1.72377">
        <ele>167.89</ele>
        <time>2022-04-10T12:28:02Z</time>
      </trkpt>
      <trkpt lat="49.0916" lon="1.72376">
        <ele>167.66</ele>
        <time>2022-04-10T12:28:14Z</time>
      </trkpt>
      <trkpt lat="49.0916" lon="1.72374">
        <ele>168.13</ele>
        <time>2022-04-10T12:28:30Z</time>
      </trkpt>
      <trkpt lat="49.09163" lon="1.72376">
        <ele>167.75</ele>
        <time>2022-04-10T12:28:48Z</time>
      </trkpt>
      <trkpt lat="49.09163" lon="1.72376">
        <ele>168.21</ele>
        <time>2022-04-10T12:29:08Z</time>
      </trkpt>
      <trkpt lat="49.09164" lon="1.7238">
        <ele>168.49</ele>
        <time>2022-04-10T12:29:22Z</time>
      </trkpt>
      <trkpt lat="49.09162" lon="1.72378">
        <ele>167.96</ele>
        <time>2022-04-10T12:29:41Z</time>
      </trkpt>
      <trkpt lat="49.09159" lon="1.72378">
        <ele>167.59</ele>
        <time>2022-04-10T12:29:59Z</time>
      </trkpt>
      <trkpt lat="49.09158" lon="1.72381">
        <ele>168.22</ele>
        <time>2022-04-10T12:30:19Z</time>
      </trkpt>
      <trkpt lat="49.09158" lon="1.72382">
        <ele>168.06</ele>
        <time>2022-04-10T12:30:39Z</time>
      </trkpt>
      <trkpt lat="49.09159" lon="1.72382">
        <ele>168.07</ele>
        <time>2022-04-10T12:30:55Z</time>
      </trkpt>
      <trkpt lat="49.09164" lon="1.72389">
        <ele>168.18</ele>
        <time>2022-04-10T12:31:08Z</time>
      </trkpt>
      <trkpt lat="49.09166" lon="1.72391">
        <ele>167.74</ele>
        <time>2022-04-10T12:31:15Z</time>
      </trkpt>
      <trkpt lat="49.09175" lon="1.72405">
        <ele>167.49</ele>
        <time>2022-04-10T12:31:31Z</time>
      </trkpt>
      <trkpt lat="49.09184" lon="1.72419">
        <ele>167.42</ele>
        <time>2022-04-10T12:31:49Z</time>
      </trkpt>
      <trkpt lat="49.09192" lon="1.72425">
        <ele>167.18</ele>
        <time>2022-04-10T12:32:03Z</time>
      </trkpt>
      <trkpt lat="49.09197" lon="1.72428">
        <ele>167.3</ele>
        <time>2022-04-10T12:32:11Z</time>
      </trkpt>
      <trkpt lat="49.09203" lon="1.72436">
        <ele>166.92</ele>
        <time>2022-04-10T12:32:17Z</time>
      </trkpt>
      <trkpt lat="49.09211" lon="1.72439">
        <ele>166.34</ele>
        <time>2022-04-10T12:32:27Z</time>
      </trkpt>
      <trkpt lat="49.09208" lon="1.72452">
        <ele>164.86</ele>
        <time>2022-04-10T12:32:40Z</time>
      </trkpt>
      <trkpt lat="49.09202" lon="1.7247">
        <ele>162.64</ele>
        <time>2022-04-10T12:32:56Z</time>
      </trkpt>
      <trkpt lat="49.09197" lon="1.72482">
        <ele>162.75</ele>
        <time>2022-04-10T12:33:04Z</time>
      </trkpt>
      <trkpt lat="49.09188" lon="1.72491">
        <ele>160.86</ele>
        <time>2022-04-10T12:33:17Z</time>
      </trkpt>
      <trkpt lat="49.09177" lon="1.72495">
        <ele>161</ele>
        <time>2022-04-10T12:33:29Z</time>
      </trkpt>
      <trkpt lat="49.09169" lon="1.72498">
        <ele>160.06</ele>
        <time>2022-04-10T12:33:37Z</time>
      </trkpt>
      <trkpt lat="49.09156" lon="1.72505">
        <ele>159.44</ele>
        <time>2022-04-10T12:33:51Z</time>
      </trkpt>
      <trkpt lat="49.09149" lon="1.72506">
        <ele>158.63</ele>
        <time>2022-04-10T12:33:57Z</time>
      </trkpt>
      <trkpt lat="49.09136" lon="1.72511">
        <ele>158</ele>
        <time>2022-04-10T12:34:10Z</time>
      </trkpt>
      <trkpt lat="49.09123" lon="1.72516">
        <ele>157.17</ele>
        <time>2022-04-10T12:34:27Z</time>
      </trkpt>
      <trkpt lat="49.09125" lon="1.72518">
        <ele>157.48</ele>
        <time>2022-04-10T12:34:44Z</time>
      </trkpt>
      <trkpt lat="49.09125" lon="1.72527">
        <ele>156.53</ele>
        <time>2022-04-10T12:35:02Z</time>
      </trkpt>
      <trkpt lat="49.09125" lon="1.72529">
        <ele>156.45</ele>
        <time>2022-04-10T12:35:04Z</time>
      </trkpt>
      <trkpt lat="49.09127" lon="1.72537">
        <ele>155.87</ele>
        <time>2022-04-10T12:35:09Z</time>
      </trkpt>
      <trkpt lat="49.09129" lon="1.72545">
        <ele>155.58</ele>
        <time>2022-04-10T12:35:15Z</time>
      </trkpt>
      <trkpt lat="49.09129" lon="1.72552">
        <ele>155.88</ele>
        <time>2022-04-10T12:35:24Z</time>
      </trkpt>
      <trkpt lat="49.0912" lon="1.72567">
        <ele>155.36</ele>
        <time>2022-04-10T12:35:35Z</time>
      </trkpt>
      <trkpt lat="49.09118" lon="1.72571">
        <ele>155.38</ele>
        <time>2022-04-10T12:35:38Z</time>
      </trkpt>
      <trkpt lat="49.09116" lon="1.72584">
        <ele>155.49</ele>
        <time>2022-04-10T12:35:48Z</time>
      </trkpt>
      <trkpt lat="49.09114" lon="1.72613">
        <ele>154.57</ele>
        <time>2022-04-10T12:36:05Z</time>
      </trkpt>
      <trkpt lat="49.09112" lon="1.72641">
        <ele>153.21</ele>
        <time>2022-04-10T12:36:21Z</time>
      </trkpt>
      <trkpt lat="49.09112" lon="1.72644">
        <ele>153.69</ele>
        <time>2022-04-10T12:36:23Z</time>
      </trkpt>
      <trkpt lat="49.09109" lon="1.72658">
        <ele>152.75</ele>
        <time>2022-04-10T12:36:33Z</time>
      </trkpt>
      <trkpt lat="49.09108" lon="1.72667">
        <ele>153.81</ele>
        <time>2022-04-10T12:36:39Z</time>
      </trkpt>
      <trkpt lat="49.09107" lon="1.72677">
        <ele>152.32</ele>
        <time>2022-04-10T12:36:50Z</time>
      </trkpt>
      <trkpt lat="49.09107" lon="1.72679">
        <ele>152.26</ele>
        <time>2022-04-10T12:36:51Z</time>
      </trkpt>
      <trkpt lat="49.09107" lon="1.72682">
        <ele>152.26</ele>
        <time>2022-04-10T12:36:53Z</time>
      </trkpt>
      <trkpt lat="49.09106" lon="1.72686">
        <ele>152.39</ele>
        <time>2022-04-10T12:36:55Z</time>
      </trkpt>
      <trkpt lat="49.09105" lon="1.7269">
        <ele>151.6</ele>
        <time>2022-04-10T12:36:59Z</time>
      </trkpt>
      <trkpt lat="49.09103" lon="1.72697">
        <ele>151.19</ele>
        <time>2022-04-10T12:37:04Z</time>
      </trkpt>
      <trkpt lat="49.09099" lon="1.72705">
        <ele>151.08</ele>
        <time>2022-04-10T12:37:10Z</time>
      </trkpt>
      <trkpt lat="49.09092" lon="1.7272">
        <ele>150.44</ele>
        <time>2022-04-10T12:37:21Z</time>
      </trkpt>
      <trkpt lat="49.09086" lon="1.72727">
        <ele>149.6</ele>
        <time>2022-04-10T12:37:27Z</time>
      </trkpt>
      <trkpt lat="49.09079" lon="1.7274">
        <ele>148.6</ele>
        <time>2022-04-10T12:37:37Z</time>
      </trkpt>
      <trkpt lat="49.0907" lon="1.72753">
        <ele>148.65</ele>
        <time>2022-04-10T12:37:47Z</time>
      </trkpt>
      <trkpt lat="49.09065" lon="1.72761">
        <ele>147.75</ele>
        <time>2022-04-10T12:37:53Z</time>
      </trkpt>
      <trkpt lat="49.09061" lon="1.72769">
        <ele>146.48</ele>
        <time>2022-04-10T12:38:00Z</time>
      </trkpt>
      <trkpt lat="49.09057" lon="1.72777">
        <ele>146.74</ele>
        <time>2022-04-10T12:38:12Z</time>
      </trkpt>
      <trkpt lat="49.09056" lon="1.7278">
        <ele>146.71</ele>
        <time>2022-04-10T12:38:20Z</time>
      </trkpt>
      <trkpt lat="49.09052" lon="1.72786">
        <ele>146.83</ele>
        <time>2022-04-10T12:38:25Z</time>
      </trkpt>
      <trkpt lat="49.09041" lon="1.72807">
        <ele>145.99</ele>
        <time>2022-04-10T12:38:39Z</time>
      </trkpt>
      <trkpt lat="49.09032" lon="1.72826">
        <ele>144.47</ele>
        <time>2022-04-10T12:38:52Z</time>
      </trkpt>
      <trkpt lat="49.09027" lon="1.72834">
        <ele>144.33</ele>
        <time>2022-04-10T12:39:02Z</time>
      </trkpt>
      <trkpt lat="49.09019" lon="1.72842">
        <ele>143.2</ele>
        <time>2022-04-10T12:39:12Z</time>
      </trkpt>
      <trkpt lat="49.0901" lon="1.72861">
        <ele>142.81</ele>
        <time>2022-04-10T12:39:24Z</time>
      </trkpt>
      <trkpt lat="49.09002" lon="1.72872">
        <ele>141.74</ele>
        <time>2022-04-10T12:39:34Z</time>
      </trkpt>
      <trkpt lat="49.08992" lon="1.72894">
        <ele>140.58</ele>
        <time>2022-04-10T12:39:47Z</time>
      </trkpt>
      <trkpt lat="49.08984" lon="1.72914">
        <ele>139.6</ele>
        <time>2022-04-10T12:39:59Z</time>
      </trkpt>
      <trkpt lat="49.08976" lon="1.72935">
        <ele>139</ele>
        <time>2022-04-10T12:40:12Z</time>
      </trkpt>
      <trkpt lat="49.08969" lon="1.72958">
        <ele>137.9</ele>
        <time>2022-04-10T12:40:26Z</time>
      </trkpt>
      <trkpt lat="49.08964" lon="1.72979">
        <ele>136.81</ele>
        <time>2022-04-10T12:40:38Z</time>
      </trkpt>
      <trkpt lat="49.08958" lon="1.72998">
        <ele>135.54</ele>
        <time>2022-04-10T12:40:51Z</time>
      </trkpt>
      <trkpt lat="49.08955" lon="1.73006">
        <ele>135.41</ele>
        <time>2022-04-10T12:40:57Z</time>
      </trkpt>
      <trkpt lat="49.08954" lon="1.73008">
        <ele>135.43</ele>
        <time>2022-04-10T12:40:59Z</time>
      </trkpt>
      <trkpt lat="49.08947" lon="1.73025">
        <ele>134.37</ele>
        <time>2022-04-10T12:41:12Z</time>
      </trkpt>
      <trkpt lat="49.08942" lon="1.73039">
        <ele>134.64</ele>
        <time>2022-04-10T12:41:23Z</time>
      </trkpt>
      <trkpt lat="49.08937" lon="1.73057">
        <ele>134.61</ele>
        <time>2022-04-10T12:41:33Z</time>
      </trkpt>
      <trkpt lat="49.08936" lon="1.73061">
        <ele>134.23</ele>
        <time>2022-04-10T12:41:35Z</time>
      </trkpt>
      <trkpt lat="49.08934" lon="1.73065">
        <ele>134.45</ele>
        <time>2022-04-10T12:41:37Z</time>
      </trkpt>
      <trkpt lat="49.08932" lon="1.7308">
        <ele>135.03</ele>
        <time>2022-04-10T12:41:49Z</time>
      </trkpt>
      <trkpt lat="49.08932" lon="1.73081">
        <ele>134.79</ele>
        <time>2022-04-10T12:41:50Z</time>
      </trkpt>
      <trkpt lat="49.08931" lon="1.73085">
        <ele>135.09</ele>
        <time>2022-04-10T12:41:52Z</time>
      </trkpt>
      <trkpt lat="49.08931" lon="1.73109">
        <ele>135.57</ele>
        <time>2022-04-10T12:42:05Z</time>
      </trkpt>
      <trkpt lat="49.08933" lon="1.73119">
        <ele>136.31</ele>
        <time>2022-04-10T12:42:12Z</time>
      </trkpt>
      <trkpt lat="49.08932" lon="1.73127">
        <ele>135.7</ele>
        <time>2022-04-10T12:42:20Z</time>
      </trkpt>
      <trkpt lat="49.08932" lon="1.73131">
        <ele>136.99</ele>
        <time>2022-04-10T12:42:23Z</time>
      </trkpt>
      <trkpt lat="49.08934" lon="1.73149">
        <ele>137.86</ele>
        <time>2022-04-10T12:42:34Z</time>
      </trkpt>
      <trkpt lat="49.08931" lon="1.73159">
        <ele>138.47</ele>
        <time>2022-04-10T12:42:40Z</time>
      </trkpt>
      <trkpt lat="49.0893" lon="1.73166">
        <ele>139.59</ele>
        <time>2022-04-10T12:42:44Z</time>
      </trkpt>
      <trkpt lat="49.08929" lon="1.73172">
        <ele>139.8</ele>
        <time>2022-04-10T12:42:47Z</time>
      </trkpt>
      <trkpt lat="49.08923" lon="1.73187">
        <ele>140.12</ele>
        <time>2022-04-10T12:42:58Z</time>
      </trkpt>
      <trkpt lat="49.08921" lon="1.7319">
        <ele>140.93</ele>
        <time>2022-04-10T12:43:01Z</time>
      </trkpt>
      <trkpt lat="49.08914" lon="1.73205">
        <ele>142.07</ele>
        <time>2022-04-10T12:43:14Z</time>
      </trkpt>
      <trkpt lat="49.08907" lon="1.73214">
        <ele>142.6</ele>
        <time>2022-04-10T12:43:25Z</time>
      </trkpt>
      <trkpt lat="49.08905" lon="1.73222">
        <ele>142.55</ele>
        <time>2022-04-10T12:43:44Z</time>
      </trkpt>
      <trkpt lat="49.08897" lon="1.73234">
        <ele>143.17</ele>
        <time>2022-04-10T12:43:59Z</time>
      </trkpt>
      <trkpt lat="49.08896" lon="1.73239">
        <ele>142.74</ele>
        <time>2022-04-10T12:44:03Z</time>
      </trkpt>
      <trkpt lat="49.08894" lon="1.73241">
        <ele>141.47</ele>
        <time>2022-04-10T12:44:06Z</time>
      </trkpt>
      <trkpt lat="49.0889" lon="1.73246">
        <ele>143.47</ele>
        <time>2022-04-10T12:44:13Z</time>
      </trkpt>
      <trkpt lat="49.08885" lon="1.73255">
        <ele>143.75</ele>
        <time>2022-04-10T12:44:25Z</time>
      </trkpt>
      <trkpt lat="49.08881" lon="1.7326">
        <ele>143.96</ele>
        <time>2022-04-10T12:44:39Z</time>
      </trkpt>
      <trkpt lat="49.08876" lon="1.73269">
        <ele>142.95</ele>
        <time>2022-04-10T12:44:52Z</time>
      </trkpt>
      <trkpt lat="49.08866" lon="1.7328">
        <ele>143.52</ele>
        <time>2022-04-10T12:45:07Z</time>
      </trkpt>
      <trkpt lat="49.08856" lon="1.73297">
        <ele>144.04</ele>
        <time>2022-04-10T12:45:24Z</time>
      </trkpt>
      <trkpt lat="49.08844" lon="1.73308">
        <ele>144.61</ele>
        <time>2022-04-10T12:45:39Z</time>
      </trkpt>
      <trkpt lat="49.08832" lon="1.73324">
        <ele>145.27</ele>
        <time>2022-04-10T12:45:53Z</time>
      </trkpt>
      <trkpt lat="49.0882" lon="1.73341">
        <ele>145.48</ele>
        <time>2022-04-10T12:46:09Z</time>
      </trkpt>
      <trkpt lat="49.08806" lon="1.73357">
        <ele>146.19</ele>
        <time>2022-04-10T12:46:24Z</time>
      </trkpt>
      <trkpt lat="49.08796" lon="1.73372">
        <ele>146.39</ele>
        <time>2022-04-10T12:46:36Z</time>
      </trkpt>
      <trkpt lat="49.08787" lon="1.73385">
        <ele>147.23</ele>
        <time>2022-04-10T12:46:49Z</time>
      </trkpt>
      <trkpt lat="49.08778" lon="1.73393">
        <ele>148.46</ele>
        <time>2022-04-10T12:47:04Z</time>
      </trkpt>
      <trkpt lat="49.08772" lon="1.73402">
        <ele>148.91</ele>
        <time>2022-04-10T12:47:17Z</time>
      </trkpt>
      <trkpt lat="49.08769" lon="1.73408">
        <ele>149.63</ele>
        <time>2022-04-10T12:47:26Z</time>
      </trkpt>
      <trkpt lat="49.08767" lon="1.73412">
        <ele>149.57</ele>
        <time>2022-04-10T12:47:32Z</time>
      </trkpt>
      <trkpt lat="49.0876" lon="1.73426">
        <ele>149.53</ele>
        <time>2022-04-10T12:47:47Z</time>
      </trkpt>
      <trkpt lat="49.08752" lon="1.73441">
        <ele>149.88</ele>
        <time>2022-04-10T12:47:58Z</time>
      </trkpt>
      <trkpt lat="49.08747" lon="1.73446">
        <ele>150.48</ele>
        <time>2022-04-10T12:48:16Z</time>
      </trkpt>
      <trkpt lat="49.08743" lon="1.73449">
        <ele>150.03</ele>
        <time>2022-04-10T12:48:34Z</time>
      </trkpt>
      <trkpt lat="49.08734" lon="1.73444">
        <ele>149.37</ele>
        <time>2022-04-10T12:48:51Z</time>
      </trkpt>
      <trkpt lat="49.08721" lon="1.73445">
        <ele>148.81</ele>
        <time>2022-04-10T12:49:06Z</time>
      </trkpt>
      <trkpt lat="49.08719" lon="1.73444">
        <ele>149.12</ele>
        <time>2022-04-10T12:49:10Z</time>
      </trkpt>
      <trkpt lat="49.08715" lon="1.73444">
        <ele>149.51</ele>
        <time>2022-04-10T12:49:15Z</time>
      </trkpt>
      <trkpt lat="49.08699" lon="1.73441">
        <ele>149.37</ele>
        <time>2022-04-10T12:49:35Z</time>
      </trkpt>
      <trkpt lat="49.08698" lon="1.73441">
        <ele>149.1</ele>
        <time>2022-04-10T12:49:38Z</time>
      </trkpt>
      <trkpt lat="49.08681" lon="1.73437">
        <ele>148.89</ele>
        <time>2022-04-10T12:49:54Z</time>
      </trkpt>
      <trkpt lat="49.08668" lon="1.73437">
        <ele>147.83</ele>
        <time>2022-04-10T12:50:10Z</time>
      </trkpt>
      <trkpt lat="49.08662" lon="1.7344">
        <ele>148.42</ele>
        <time>2022-04-10T12:50:16Z</time>
      </trkpt>
      <trkpt lat="49.08662" lon="1.7345">
        <ele>148.9</ele>
        <time>2022-04-10T12:50:40Z</time>
      </trkpt>
      <trkpt lat="49.08664" lon="1.73466">
        <ele>150.02</ele>
        <time>2022-04-10T12:50:55Z</time>
      </trkpt>
      <trkpt lat="49.08664" lon="1.73483">
        <ele>150.95</ele>
        <time>2022-04-10T12:51:12Z</time>
      </trkpt>
      <trkpt lat="49.08662" lon="1.73506">
        <ele>152.22</ele>
        <time>2022-04-10T12:51:27Z</time>
      </trkpt>
      <trkpt lat="49.08663" lon="1.73525">
        <ele>154</ele>
        <time>2022-04-10T12:51:41Z</time>
      </trkpt>
      <trkpt lat="49.08665" lon="1.73546">
        <ele>155.45</ele>
        <time>2022-04-10T12:51:56Z</time>
      </trkpt>
      <trkpt lat="49.08669" lon="1.73562">
        <ele>156.41</ele>
        <time>2022-04-10T12:52:08Z</time>
      </trkpt>
      <trkpt lat="49.08672" lon="1.73583">
        <ele>158.03</ele>
        <time>2022-04-10T12:52:22Z</time>
      </trkpt>
      <trkpt lat="49.08671" lon="1.73587">
        <ele>157.95</ele>
        <time>2022-04-10T12:52:39Z</time>
      </trkpt>
      <trkpt lat="49.08673" lon="1.73591">
        <ele>158.05</ele>
        <time>2022-04-10T12:53:00Z</time>
      </trkpt>
      <trkpt lat="49.08674" lon="1.73595">
        <ele>159.26</ele>
        <time>2022-04-10T12:53:18Z</time>
      </trkpt>
      <trkpt lat="49.08672" lon="1.73596">
        <ele>159.16</ele>
        <time>2022-04-10T12:53:41Z</time>
      </trkpt>
      <trkpt lat="49.08671" lon="1.7359">
        <ele>158.74</ele>
        <time>2022-04-10T12:54:00Z</time>
      </trkpt>
      <trkpt lat="49.08674" lon="1.73592">
        <ele>158.82</ele>
        <time>2022-04-10T12:54:20Z</time>
      </trkpt>
      <trkpt lat="49.08677" lon="1.73591">
        <ele>158.91</ele>
        <time>2022-04-10T12:54:38Z</time>
      </trkpt>
      <trkpt lat="49.08674" lon="1.73591">
        <ele>158.67</ele>
        <time>2022-04-10T12:55:03Z</time>
      </trkpt>
      <trkpt lat="49.08677" lon="1.73608">
        <ele>159.69</ele>
        <time>2022-04-10T12:55:21Z</time>
      </trkpt>
      <trkpt lat="49.08681" lon="1.73621">
        <ele>159.98</ele>
        <time>2022-04-10T12:55:33Z</time>
      </trkpt>
      <trkpt lat="49.08685" lon="1.73638">
        <ele>160.89</ele>
        <time>2022-04-10T12:55:47Z</time>
      </trkpt>
      <trkpt lat="49.08689" lon="1.7365">
        <ele>161.93</ele>
        <time>2022-04-10T12:56:00Z</time>
      </trkpt>
      <trkpt lat="49.08691" lon="1.73668">
        <ele>163.63</ele>
        <time>2022-04-10T12:56:14Z</time>
      </trkpt>
      <trkpt lat="49.08691" lon="1.73697">
        <ele>165.3</ele>
        <time>2022-04-10T12:56:31Z</time>
      </trkpt>
      <trkpt lat="49.08691" lon="1.7372">
        <ele>166.67</ele>
        <time>2022-04-10T12:56:46Z</time>
      </trkpt>
      <trkpt lat="49.0869" lon="1.73739">
        <ele>168.23</ele>
        <time>2022-04-10T12:57:00Z</time>
      </trkpt>
      <trkpt lat="49.08698" lon="1.73764">
        <ele>170.14</ele>
        <time>2022-04-10T12:57:16Z</time>
      </trkpt>
      <trkpt lat="49.08705" lon="1.73782">
        <ele>171.14</ele>
        <time>2022-04-10T12:57:31Z</time>
      </trkpt>
      <trkpt lat="49.0871" lon="1.73799">
        <ele>173.37</ele>
        <time>2022-04-10T12:57:46Z</time>
      </trkpt>
      <trkpt lat="49.08717" lon="1.7381">
        <ele>174.72</ele>
        <time>2022-04-10T12:58:03Z</time>
      </trkpt>
      <trkpt lat="49.08723" lon="1.7383">
        <ele>176.07</ele>
        <time>2022-04-10T12:58:16Z</time>
      </trkpt>
      <trkpt lat="49.08731" lon="1.73851">
        <ele>177.17</ele>
        <time>2022-04-10T12:58:30Z</time>
      </trkpt>
      <trkpt lat="49.08738" lon="1.7387">
        <ele>177.95</ele>
        <time>2022-04-10T12:58:44Z</time>
      </trkpt>
      <trkpt lat="49.08746" lon="1.73891">
        <ele>178.33</ele>
        <time>2022-04-10T12:59:00Z</time>
      </trkpt>
      <trkpt lat="49.0875" lon="1.73903">
        <ele>177.67</ele>
        <time>2022-04-10T12:59:16Z</time>
      </trkpt>
      <trkpt lat="49.08755" lon="1.73924">
        <ele>178.17</ele>
        <time>2022-04-10T12:59:31Z</time>
      </trkpt>
      <trkpt lat="49.08758" lon="1.73944">
        <ele>178.04</ele>
        <time>2022-04-10T12:59:42Z</time>
      </trkpt>
      <trkpt lat="49.0876" lon="1.73949">
        <ele>177.79</ele>
        <time>2022-04-10T12:59:49Z</time>
      </trkpt>
      <trkpt lat="49.08763" lon="1.73964">
        <ele>178.21</ele>
        <time>2022-04-10T13:00:04Z</time>
      </trkpt>
      <trkpt lat="49.08768" lon="1.73975">
        <ele>178.25</ele>
        <time>2022-04-10T13:00:17Z</time>
      </trkpt>
      <trkpt lat="49.08776" lon="1.73991">
        <ele>178.3</ele>
        <time>2022-04-10T13:00:31Z</time>
      </trkpt>
      <trkpt lat="49.0878" lon="1.74008">
        <ele>178.58</ele>
        <time>2022-04-10T13:00:46Z</time>
      </trkpt>
      <trkpt lat="49.08781" lon="1.74012">
        <ele>178.86</ele>
        <time>2022-04-10T13:00:53Z</time>
      </trkpt>
      <trkpt lat="49.08783" lon="1.74026">
        <ele>178.89</ele>
        <time>2022-04-10T13:01:11Z</time>
      </trkpt>
      <trkpt lat="49.08787" lon="1.74045">
        <ele>179.56</ele>
        <time>2022-04-10T13:01:26Z</time>
      </trkpt>
      <trkpt lat="49.08786" lon="1.74055">
        <ele>179.93</ele>
        <time>2022-04-10T13:01:44Z</time>
      </trkpt>
      <trkpt lat="49.08789" lon="1.74064">
        <ele>179.38</ele>
        <time>2022-04-10T13:01:59Z</time>
      </trkpt>
      <trkpt lat="49.08791" lon="1.74074">
        <ele>179.23</ele>
        <time>2022-04-10T13:02:09Z</time>
      </trkpt>
      <trkpt lat="49.08795" lon="1.74089">
        <ele>178.96</ele>
        <time>2022-04-10T13:02:27Z</time>
      </trkpt>
      <trkpt lat="49.08795" lon="1.74099">
        <ele>179.96</ele>
        <time>2022-04-10T13:02:36Z</time>
      </trkpt>
      <trkpt lat="49.08796" lon="1.74109">
        <ele>180.29</ele>
        <time>2022-04-10T13:02:50Z</time>
      </trkpt>
      <trkpt lat="49.08804" lon="1.74117">
        <ele>180</ele>
        <time>2022-04-10T13:03:01Z</time>
      </trkpt>
      <trkpt lat="49.08803" lon="1.74115">
        <ele>180.5</ele>
        <time>2022-04-10T13:03:11Z</time>
      </trkpt>
      <trkpt lat="49.08798" lon="1.74114">
        <ele>180.4</ele>
        <time>2022-04-10T13:03:33Z</time>
      </trkpt>
      <trkpt lat="49.08809" lon="1.74122">
        <ele>180.6</ele>
        <time>2022-04-10T13:03:48Z</time>
      </trkpt>
      <trkpt lat="49.08821" lon="1.74136">
        <ele>180.04</ele>
        <time>2022-04-10T13:04:03Z</time>
      </trkpt>
      <trkpt lat="49.0883" lon="1.74148">
        <ele>180.06</ele>
        <time>2022-04-10T13:04:15Z</time>
      </trkpt>
      <trkpt lat="49.08834" lon="1.74156">
        <ele>180.35</ele>
        <time>2022-04-10T13:04:29Z</time>
      </trkpt>
      <trkpt lat="49.08839" lon="1.74169">
        <ele>181.06</ele>
        <time>2022-04-10T13:04:45Z</time>
      </trkpt>
      <trkpt lat="49.08848" lon="1.74188">
        <ele>182.32</ele>
        <time>2022-04-10T13:05:02Z</time>
      </trkpt>
      <trkpt lat="49.08856" lon="1.74202">
        <ele>182.37</ele>
        <time>2022-04-10T13:05:17Z</time>
      </trkpt>
      <trkpt lat="49.08866" lon="1.74222">
        <ele>182.57</ele>
        <time>2022-04-10T13:05:32Z</time>
      </trkpt>
      <trkpt lat="49.08874" lon="1.74247">
        <ele>183.22</ele>
        <time>2022-04-10T13:05:47Z</time>
      </trkpt>
      <trkpt lat="49.08878" lon="1.74253">
        <ele>183.34</ele>
        <time>2022-04-10T13:06:02Z</time>
      </trkpt>
      <trkpt lat="49.08877" lon="1.74253">
        <ele>183.52</ele>
        <time>2022-04-10T13:06:06Z</time>
      </trkpt>
      <trkpt lat="49.0888" lon="1.74271">
        <ele>183.79</ele>
        <time>2022-04-10T13:06:22Z</time>
      </trkpt>
      <trkpt lat="49.08888" lon="1.74287">
        <ele>184.4</ele>
        <time>2022-04-10T13:06:34Z</time>
      </trkpt>
      <trkpt lat="49.08894" lon="1.74299">
        <ele>183.85</ele>
        <time>2022-04-10T13:06:47Z</time>
      </trkpt>
      <trkpt lat="49.08904" lon="1.7432">
        <ele>184.12</ele>
        <time>2022-04-10T13:07:02Z</time>
      </trkpt>
      <trkpt lat="49.0891" lon="1.74332">
        <ele>184.5</ele>
        <time>2022-04-10T13:07:13Z</time>
      </trkpt>
      <trkpt lat="49.08917" lon="1.7435">
        <ele>184.19</ele>
        <time>2022-04-10T13:07:31Z</time>
      </trkpt>
      <trkpt lat="49.08919" lon="1.74367">
        <ele>184.24</ele>
        <time>2022-04-10T13:07:45Z</time>
      </trkpt>
      <trkpt lat="49.08926" lon="1.74378">
        <ele>184.81</ele>
        <time>2022-04-10T13:08:00Z</time>
      </trkpt>
      <trkpt lat="49.08934" lon="1.74392">
        <ele>184.61</ele>
        <time>2022-04-10T13:08:19Z</time>
      </trkpt>
      <trkpt lat="49.08939" lon="1.74406">
        <ele>184.79</ele>
        <time>2022-04-10T13:08:33Z</time>
      </trkpt>
      <trkpt lat="49.08943" lon="1.74423">
        <ele>184.3</ele>
        <time>2022-04-10T13:08:46Z</time>
      </trkpt>
      <trkpt lat="49.08948" lon="1.74438">
        <ele>184.39</ele>
        <time>2022-04-10T13:09:01Z</time>
      </trkpt>
      <trkpt lat="49.08949" lon="1.74441">
        <ele>184.64</ele>
        <time>2022-04-10T13:09:07Z</time>
      </trkpt>
      <trkpt lat="49.08953" lon="1.74444">
        <ele>184.14</ele>
        <time>2022-04-10T13:09:28Z</time>
      </trkpt>
      <trkpt lat="49.08957" lon="1.74464">
        <ele>184.53</ele>
        <time>2022-04-10T13:09:42Z</time>
      </trkpt>
      <trkpt lat="49.08961" lon="1.74493">
        <ele>184.97</ele>
        <time>2022-04-10T13:09:56Z</time>
      </trkpt>
      <trkpt lat="49.08962" lon="1.74509">
        <ele>184.74</ele>
        <time>2022-04-10T13:10:09Z</time>
      </trkpt>
      <trkpt lat="49.08966" lon="1.74516">
        <ele>184.73</ele>
        <time>2022-04-10T13:10:17Z</time>
      </trkpt>
      <trkpt lat="49.08976" lon="1.7453">
        <ele>185.01</ele>
        <time>2022-04-10T13:10:30Z</time>
      </trkpt>
      <trkpt lat="49.08981" lon="1.74538">
        <ele>185.22</ele>
        <time>2022-04-10T13:10:41Z</time>
      </trkpt>
      <trkpt lat="49.08989" lon="1.74555">
        <ele>185.24</ele>
        <time>2022-04-10T13:10:56Z</time>
      </trkpt>
      <trkpt lat="49.08996" lon="1.74567">
        <ele>184.82</ele>
        <time>2022-04-10T13:11:09Z</time>
      </trkpt>
      <trkpt lat="49.09004" lon="1.74573">
        <ele>185.6</ele>
        <time>2022-04-10T13:11:26Z</time>
      </trkpt>
      <trkpt lat="49.0901" lon="1.74582">
        <ele>185.08</ele>
        <time>2022-04-10T13:11:42Z</time>
      </trkpt>
      <trkpt lat="49.09018" lon="1.74594">
        <ele>185.02</ele>
        <time>2022-04-10T13:11:54Z</time>
      </trkpt>
      <trkpt lat="49.09031" lon="1.7461">
        <ele>185.01</ele>
        <time>2022-04-10T13:12:10Z</time>
      </trkpt>
      <trkpt lat="49.09036" lon="1.74615">
        <ele>185.33</ele>
        <time>2022-04-10T13:12:22Z</time>
      </trkpt>
      <trkpt lat="49.09038" lon="1.74614">
        <ele>185.21</ele>
        <time>2022-04-10T13:12:37Z</time>
      </trkpt>
      <trkpt lat="49.09038" lon="1.74618">
        <ele>185.67</ele>
        <time>2022-04-10T13:12:55Z</time>
      </trkpt>
      <trkpt lat="49.09035" lon="1.74623">
        <ele>185.72</ele>
        <time>2022-04-10T13:13:14Z</time>
      </trkpt>
      <trkpt lat="49.09036" lon="1.74628">
        <ele>185.91</ele>
        <time>2022-04-10T13:13:34Z</time>
      </trkpt>
      <trkpt lat="49.09036" lon="1.74626">
        <ele>185.4</ele>
        <time>2022-04-10T13:13:52Z</time>
      </trkpt>
      <trkpt lat="49.09036" lon="1.74637">
        <ele>185.76</ele>
        <time>2022-04-10T13:14:07Z</time>
      </trkpt>
      <trkpt lat="49.09046" lon="1.74641">
        <ele>186.04</ele>
        <time>2022-04-10T13:14:21Z</time>
      </trkpt>
      <trkpt lat="49.09049" lon="1.74646">
        <ele>187.17</ele>
        <time>2022-04-10T13:14:31Z</time>
      </trkpt>
      <trkpt lat="49.09055" lon="1.74655">
        <ele>187.2</ele>
        <time>2022-04-10T13:14:48Z</time>
      </trkpt>
      <trkpt lat="49.0906" lon="1.74667">
        <ele>187.02</ele>
        <time>2022-04-10T13:15:03Z</time>
      </trkpt>
      <trkpt lat="49.09063" lon="1.74676">
        <ele>186.85</ele>
        <time>2022-04-10T13:15:19Z</time>
      </trkpt>
      <trkpt lat="49.09064" lon="1.74692">
        <ele>187.57</ele>
        <time>2022-04-10T13:15:34Z</time>
      </trkpt>
      <trkpt lat="49.0907" lon="1.74705">
        <ele>188.15</ele>
        <time>2022-04-10T13:15:48Z</time>
      </trkpt>
      <trkpt lat="49.09075" lon="1.74717">
        <ele>188.08</ele>
        <time>2022-04-10T13:16:06Z</time>
      </trkpt>
      <trkpt lat="49.09081" lon="1.74724">
        <ele>187.7</ele>
        <time>2022-04-10T13:16:21Z</time>
      </trkpt>
      <trkpt lat="49.09092" lon="1.74736">
        <ele>188.65</ele>
        <time>2022-04-10T13:16:37Z</time>
      </trkpt>
      <trkpt lat="49.09097" lon="1.74729">
        <ele>188.4</ele>
        <time>2022-04-10T13:16:49Z</time>
      </trkpt>
      <trkpt lat="49.09108" lon="1.74735">
        <ele>188.12</ele>
        <time>2022-04-10T13:17:00Z</time>
      </trkpt>
      <trkpt lat="49.09115" lon="1.74745">
        <ele>188.61</ele>
        <time>2022-04-10T13:17:11Z</time>
      </trkpt>
      <trkpt lat="49.09122" lon="1.74762">
        <ele>188.77</ele>
        <time>2022-04-10T13:17:25Z</time>
      </trkpt>
      <trkpt lat="49.09129" lon="1.74776">
        <ele>188.9</ele>
        <time>2022-04-10T13:17:41Z</time>
      </trkpt>
      <trkpt lat="49.09139" lon="1.74794">
        <ele>189.67</ele>
        <time>2022-04-10T13:17:57Z</time>
      </trkpt>
      <trkpt lat="49.09148" lon="1.74812">
        <ele>189.51</ele>
        <time>2022-04-10T13:18:12Z</time>
      </trkpt>
      <trkpt lat="49.09155" lon="1.74829">
        <ele>189.65</ele>
        <time>2022-04-10T13:18:25Z</time>
      </trkpt>
      <trkpt lat="49.0916" lon="1.74842">
        <ele>189.66</ele>
        <time>2022-04-10T13:18:44Z</time>
      </trkpt>
      <trkpt lat="49.09166" lon="1.74861">
        <ele>189.74</ele>
        <time>2022-04-10T13:18:57Z</time>
      </trkpt>
      <trkpt lat="49.09171" lon="1.74868">
        <ele>190.33</ele>
        <time>2022-04-10T13:19:12Z</time>
      </trkpt>
      <trkpt lat="49.09172" lon="1.74877">
        <ele>189.63</ele>
        <time>2022-04-10T13:19:18Z</time>
      </trkpt>
      <trkpt lat="49.09174" lon="1.74887">
        <ele>190.23</ele>
        <time>2022-04-10T13:19:34Z</time>
      </trkpt>
      <trkpt lat="49.09182" lon="1.74906">
        <ele>189.8</ele>
        <time>2022-04-10T13:19:49Z</time>
      </trkpt>
      <trkpt lat="49.09186" lon="1.74914">
        <ele>190.02</ele>
        <time>2022-04-10T13:19:54Z</time>
      </trkpt>
      <trkpt lat="49.09193" lon="1.7493">
        <ele>190.83</ele>
        <time>2022-04-10T13:20:06Z</time>
      </trkpt>
      <trkpt lat="49.09197" lon="1.74945">
        <ele>190.67</ele>
        <time>2022-04-10T13:20:19Z</time>
      </trkpt>
      <trkpt lat="49.09204" lon="1.74957">
        <ele>190.81</ele>
        <time>2022-04-10T13:20:33Z</time>
      </trkpt>
      <trkpt lat="49.09208" lon="1.74975">
        <ele>190.8</ele>
        <time>2022-04-10T13:20:45Z</time>
      </trkpt>
      <trkpt lat="49.09216" lon="1.7499">
        <ele>191.09</ele>
        <time>2022-04-10T13:20:59Z</time>
      </trkpt>
      <trkpt lat="49.09224" lon="1.75001">
        <ele>191.16</ele>
        <time>2022-04-10T13:21:12Z</time>
      </trkpt>
      <trkpt lat="49.09231" lon="1.75019">
        <ele>191.79</ele>
        <time>2022-04-10T13:21:26Z</time>
      </trkpt>
      <trkpt lat="49.09237" lon="1.7504">
        <ele>191.07</ele>
        <time>2022-04-10T13:21:39Z</time>
      </trkpt>
      <trkpt lat="49.09248" lon="1.75061">
        <ele>190.78</ele>
        <time>2022-04-10T13:21:55Z</time>
      </trkpt>
      <trkpt lat="49.09255" lon="1.75083">
        <ele>191.34</ele>
        <time>2022-04-10T13:22:10Z</time>
      </trkpt>
      <trkpt lat="49.09264" lon="1.75101">
        <ele>191.24</ele>
        <time>2022-04-10T13:22:27Z</time>
      </trkpt>
      <trkpt lat="49.09273" lon="1.75107">
        <ele>190.79</ele>
        <time>2022-04-10T13:22:43Z</time>
      </trkpt>
      <trkpt lat="49.09284" lon="1.75122">
        <ele>190.66</ele>
        <time>2022-04-10T13:23:00Z</time>
      </trkpt>
      <trkpt lat="49.09297" lon="1.75135">
        <ele>189.92</ele>
        <time>2022-04-10T13:23:14Z</time>
      </trkpt>
      <trkpt lat="49.09305" lon="1.75148">
        <ele>190.6</ele>
        <time>2022-04-10T13:23:28Z</time>
      </trkpt>
      <trkpt lat="49.09315" lon="1.75159">
        <ele>190.72</ele>
        <time>2022-04-10T13:23:41Z</time>
      </trkpt>
      <trkpt lat="49.0932" lon="1.75176">
        <ele>190.78</ele>
        <time>2022-04-10T13:23:57Z</time>
      </trkpt>
      <trkpt lat="49.09326" lon="1.75192">
        <ele>190.92</ele>
        <time>2022-04-10T13:24:11Z</time>
      </trkpt>
      <trkpt lat="49.09332" lon="1.752">
        <ele>191.08</ele>
        <time>2022-04-10T13:24:21Z</time>
      </trkpt>
      <trkpt lat="49.09336" lon="1.75198">
        <ele>190.67</ele>
        <time>2022-04-10T13:24:40Z</time>
      </trkpt>
      <trkpt lat="49.09343" lon="1.75204">
        <ele>191.21</ele>
        <time>2022-04-10T13:24:54Z</time>
      </trkpt>
      <trkpt lat="49.09353" lon="1.75218">
        <ele>190.59</ele>
        <time>2022-04-10T13:25:09Z</time>
      </trkpt>
      <trkpt lat="49.09361" lon="1.75235">
        <ele>190.71</ele>
        <time>2022-04-10T13:25:23Z</time>
      </trkpt>
      <trkpt lat="49.09368" lon="1.75253">
        <ele>190.72</ele>
        <time>2022-04-10T13:25:41Z</time>
      </trkpt>
      <trkpt lat="49.0938" lon="1.75271">
        <ele>191.16</ele>
        <time>2022-04-10T13:25:57Z</time>
      </trkpt>
      <trkpt lat="49.09385" lon="1.75291">
        <ele>190.99</ele>
        <time>2022-04-10T13:26:11Z</time>
      </trkpt>
      <trkpt lat="49.09389" lon="1.75303">
        <ele>191.12</ele>
        <time>2022-04-10T13:26:27Z</time>
      </trkpt>
      <trkpt lat="49.09391" lon="1.75301">
        <ele>190.8</ele>
        <time>2022-04-10T13:26:47Z</time>
      </trkpt>
      <trkpt lat="49.09391" lon="1.75292">
        <ele>191.12</ele>
        <time>2022-04-10T13:27:10Z</time>
      </trkpt>
      <trkpt lat="49.09391" lon="1.7529">
        <ele>191.47</ele>
        <time>2022-04-10T13:27:27Z</time>
      </trkpt>
      <trkpt lat="49.09391" lon="1.75291">
        <ele>190.98</ele>
        <time>2022-04-10T13:27:44Z</time>
      </trkpt>
      <trkpt lat="49.0939" lon="1.75291">
        <ele>191.55</ele>
        <time>2022-04-10T13:28:06Z</time>
      </trkpt>
      <trkpt lat="49.09394" lon="1.75297">
        <ele>191.2</ele>
        <time>2022-04-10T13:28:26Z</time>
      </trkpt>
      <trkpt lat="49.09394" lon="1.75295">
        <ele>191.13</ele>
        <time>2022-04-10T13:28:47Z</time>
      </trkpt>
      <trkpt lat="49.0939" lon="1.75296">
        <ele>191.46</ele>
        <time>2022-04-10T13:29:07Z</time>
      </trkpt>
      <trkpt lat="49.09391" lon="1.753">
        <ele>190.75</ele>
        <time>2022-04-10T13:29:25Z</time>
      </trkpt>
      <trkpt lat="49.09392" lon="1.75299">
        <ele>190.9</ele>
        <time>2022-04-10T13:29:47Z</time>
      </trkpt>
      <trkpt lat="49.09393" lon="1.753">
        <ele>190.78</ele>
        <time>2022-04-10T13:30:08Z</time>
      </trkpt>
      <trkpt lat="49.09396" lon="1.75302">
        <ele>191.14</ele>
        <time>2022-04-10T13:30:25Z</time>
      </trkpt>
      <trkpt lat="49.09402" lon="1.75314">
        <ele>191.31</ele>
        <time>2022-04-10T13:30:40Z</time>
      </trkpt>
      <trkpt lat="49.09408" lon="1.75336">
        <ele>190.78</ele>
        <time>2022-04-10T13:30:55Z</time>
      </trkpt>
      <trkpt lat="49.0941" lon="1.75342">
        <ele>190.84</ele>
        <time>2022-04-10T13:31:00Z</time>
      </trkpt>
      <trkpt lat="49.09415" lon="1.7536">
        <ele>190.32</ele>
        <time>2022-04-10T13:31:14Z</time>
      </trkpt>
      <trkpt lat="49.09424" lon="1.75371">
        <ele>191.1</ele>
        <time>2022-04-10T13:31:28Z</time>
      </trkpt>
      <trkpt lat="49.09424" lon="1.75372">
        <ele>191.25</ele>
        <time>2022-04-10T13:31:29Z</time>
      </trkpt>
      <trkpt lat="49.09434" lon="1.75393">
        <ele>190.78</ele>
        <time>2022-04-10T13:31:45Z</time>
      </trkpt>
      <trkpt lat="49.09439" lon="1.75412">
        <ele>190.85</ele>
        <time>2022-04-10T13:31:58Z</time>
      </trkpt>
      <trkpt lat="49.09448" lon="1.75432">
        <ele>191.14</ele>
        <time>2022-04-10T13:32:14Z</time>
      </trkpt>
      <trkpt lat="49.09456" lon="1.75454">
        <ele>190.9</ele>
        <time>2022-04-10T13:32:29Z</time>
      </trkpt>
      <trkpt lat="49.09463" lon="1.75477">
        <ele>190.11</ele>
        <time>2022-04-10T13:32:44Z</time>
      </trkpt>
      <trkpt lat="49.0947" lon="1.75499">
        <ele>189.88</ele>
        <time>2022-04-10T13:33:00Z</time>
      </trkpt>
      <trkpt lat="49.09477" lon="1.75524">
        <ele>189.75</ele>
        <time>2022-04-10T13:33:14Z</time>
      </trkpt>
      <trkpt lat="49.09484" lon="1.75543">
        <ele>189.18</ele>
        <time>2022-04-10T13:33:29Z</time>
      </trkpt>
      <trkpt lat="49.09489" lon="1.75565">
        <ele>188.61</ele>
        <time>2022-04-10T13:33:43Z</time>
      </trkpt>
      <trkpt lat="49.09492" lon="1.75579">
        <ele>188.14</ele>
        <time>2022-04-10T13:33:52Z</time>
      </trkpt>
      <trkpt lat="49.09493" lon="1.75588">
        <ele>187.55</ele>
        <time>2022-04-10T13:34:09Z</time>
      </trkpt>
      <trkpt lat="49.09494" lon="1.75613">
        <ele>186.85</ele>
        <time>2022-04-10T13:34:23Z</time>
      </trkpt>
      <trkpt lat="49.09498" lon="1.75633">
        <ele>185.44</ele>
        <time>2022-04-10T13:34:37Z</time>
      </trkpt>
      <trkpt lat="49.09503" lon="1.75654">
        <ele>184.67</ele>
        <time>2022-04-10T13:34:50Z</time>
      </trkpt>
      <trkpt lat="49.09506" lon="1.7567">
        <ele>182.82</ele>
        <time>2022-04-10T13:35:04Z</time>
      </trkpt>
      <trkpt lat="49.09507" lon="1.75693">
        <ele>181.48</ele>
        <time>2022-04-10T13:35:18Z</time>
      </trkpt>
      <trkpt lat="49.09504" lon="1.75722">
        <ele>178.94</ele>
        <time>2022-04-10T13:35:34Z</time>
      </trkpt>
      <trkpt lat="49.09502" lon="1.75754">
        <ele>176.24</ele>
        <time>2022-04-10T13:35:51Z</time>
      </trkpt>
      <trkpt lat="49.09503" lon="1.75782">
        <ele>174.32</ele>
        <time>2022-04-10T13:36:10Z</time>
      </trkpt>
      <trkpt lat="49.09504" lon="1.75807">
        <ele>172.46</ele>
        <time>2022-04-10T13:36:27Z</time>
      </trkpt>
      <trkpt lat="49.09505" lon="1.75826">
        <ele>169.75</ele>
        <time>2022-04-10T13:36:45Z</time>
      </trkpt>
      <trkpt lat="49.09506" lon="1.75843">
        <ele>168.24</ele>
        <time>2022-04-10T13:36:58Z</time>
      </trkpt>
      <trkpt lat="49.09509" lon="1.75862">
        <ele>165.1</ele>
        <time>2022-04-10T13:37:16Z</time>
      </trkpt>
      <trkpt lat="49.09511" lon="1.75882">
        <ele>163.38</ele>
        <time>2022-04-10T13:37:30Z</time>
      </trkpt>
      <trkpt lat="49.09514" lon="1.75902">
        <ele>160.56</ele>
        <time>2022-04-10T13:37:47Z</time>
      </trkpt>
      <trkpt lat="49.09513" lon="1.75932">
        <ele>159.23</ele>
        <time>2022-04-10T13:38:04Z</time>
      </trkpt>
      <trkpt lat="49.09516" lon="1.7595">
        <ele>158.3</ele>
        <time>2022-04-10T13:38:18Z</time>
      </trkpt>
      <trkpt lat="49.09515" lon="1.75975">
        <ele>155.35</ele>
        <time>2022-04-10T13:38:35Z</time>
      </trkpt>
      <trkpt lat="49.09515" lon="1.76">
        <ele>154.18</ele>
        <time>2022-04-10T13:38:50Z</time>
      </trkpt>
      <trkpt lat="49.09518" lon="1.76032">
        <ele>153.07</ele>
        <time>2022-04-10T13:39:07Z</time>
      </trkpt>
      <trkpt lat="49.09521" lon="1.7606">
        <ele>152.04</ele>
        <time>2022-04-10T13:39:23Z</time>
      </trkpt>
      <trkpt lat="49.09521" lon="1.76091">
        <ele>151.62</ele>
        <time>2022-04-10T13:39:41Z</time>
      </trkpt>
      <trkpt lat="49.09521" lon="1.76114">
        <ele>152.72</ele>
        <time>2022-04-10T13:39:56Z</time>
      </trkpt>
      <trkpt lat="49.09523" lon="1.76129">
        <ele>152.89</ele>
        <time>2022-04-10T13:40:12Z</time>
      </trkpt>
      <trkpt lat="49.09527" lon="1.76151">
        <ele>152.22</ele>
        <time>2022-04-10T13:40:29Z</time>
      </trkpt>
      <trkpt lat="49.09538" lon="1.76168">
        <ele>153.04</ele>
        <time>2022-04-10T13:40:45Z</time>
      </trkpt>
      <trkpt lat="49.09542" lon="1.76183">
        <ele>152.96</ele>
        <time>2022-04-10T13:40:59Z</time>
      </trkpt>
      <trkpt lat="49.09549" lon="1.762">
        <ele>153.11</ele>
        <time>2022-04-10T13:41:12Z</time>
      </trkpt>
      <trkpt lat="49.09555" lon="1.7622">
        <ele>152.89</ele>
        <time>2022-04-10T13:41:26Z</time>
      </trkpt>
      <trkpt lat="49.09557" lon="1.7625">
        <ele>152.87</ele>
        <time>2022-04-10T13:41:39Z</time>
      </trkpt>
      <trkpt lat="49.09553" lon="1.76252">
        <ele>153.61</ele>
        <time>2022-04-10T13:41:50Z</time>
      </trkpt>
      <trkpt lat="49.09554" lon="1.76254">
        <ele>154.22</ele>
        <time>2022-04-10T13:42:04Z</time>
      </trkpt>
      <trkpt lat="49.09555" lon="1.76251">
        <ele>153.4</ele>
        <time>2022-04-10T13:42:17Z</time>
      </trkpt>
      <trkpt lat="49.0956" lon="1.76247">
        <ele>153.38</ele>
        <time>2022-04-10T13:42:35Z</time>
      </trkpt>
      <trkpt lat="49.09557" lon="1.76245">
        <ele>153.27</ele>
        <time>2022-04-10T13:42:54Z</time>
      </trkpt>
      <trkpt lat="49.09557" lon="1.76244">
        <ele>153.34</ele>
        <time>2022-04-10T13:43:12Z</time>
      </trkpt>
      <trkpt lat="49.09558" lon="1.76246">
        <ele>153.46</ele>
        <time>2022-04-10T13:43:29Z</time>
      </trkpt>
      <trkpt lat="49.09558" lon="1.76245">
        <ele>152.98</ele>
        <time>2022-04-10T13:43:50Z</time>
      </trkpt>
      <trkpt lat="49.09557" lon="1.76245">
        <ele>153.15</ele>
        <time>2022-04-10T13:44:11Z</time>
      </trkpt>
      <trkpt lat="49.09557" lon="1.76244">
        <ele>153.29</ele>
        <time>2022-04-10T13:44:26Z</time>
      </trkpt>
      <trkpt lat="49.09558" lon="1.76245">
        <ele>152.75</ele>
        <time>2022-04-10T13:44:48Z</time>
      </trkpt>
      <trkpt lat="49.09558" lon="1.76245">
        <ele>153.25</ele>
        <time>2022-04-10T13:44:49Z</time>
      </trkpt>
      <trkpt lat="49.09558" lon="1.76246">
        <ele>153.58</ele>
        <time>2022-04-10T13:45:00Z</time>
      </trkpt>
      <trkpt lat="49.09558" lon="1.76247">
        <ele>153.06</ele>
        <time>2022-04-10T13:45:19Z</time>
      </trkpt>
      <trkpt lat="49.09556" lon="1.76244">
        <ele>152.92</ele>
        <time>2022-04-10T13:45:38Z</time>
      </trkpt>
      <trkpt lat="49.09557" lon="1.76245">
        <ele>153.22</ele>
        <time>2022-04-10T13:45:43Z</time>
      </trkpt>
      <trkpt lat="49.09559" lon="1.76254">
        <ele>152.93</ele>
        <time>2022-04-10T13:45:55Z</time>
      </trkpt>
      <trkpt lat="49.0956" lon="1.7625">
        <ele>153.12</ele>
        <time>2022-04-10T13:46:17Z</time>
      </trkpt>
      <trkpt lat="49.0956" lon="1.7625">
        <ele>153.15</ele>
        <time>2022-04-10T13:46:36Z</time>
      </trkpt>
      <trkpt lat="49.09561" lon="1.76255">
        <ele>153.03</ele>
        <time>2022-04-10T13:46:54Z</time>
      </trkpt>
      <trkpt lat="49.09559" lon="1.76251">
        <ele>153.18</ele>
        <time>2022-04-10T13:47:14Z</time>
      </trkpt>
      <trkpt lat="49.09561" lon="1.76249">
        <ele>153.26</ele>
        <time>2022-04-10T13:47:34Z</time>
      </trkpt>
      <trkpt lat="49.09563" lon="1.76258">
        <ele>152.94</ele>
        <time>2022-04-10T13:47:41Z</time>
      </trkpt>
      <trkpt lat="49.09566" lon="1.76283">
        <ele>152.91</ele>
        <time>2022-04-10T13:47:59Z</time>
      </trkpt>
      <trkpt lat="49.0957" lon="1.76304">
        <ele>153.47</ele>
        <time>2022-04-10T13:48:16Z</time>
      </trkpt>
      <trkpt lat="49.09576" lon="1.76304">
        <ele>152.78</ele>
        <time>2022-04-10T13:48:32Z</time>
      </trkpt>
      <trkpt lat="49.09577" lon="1.76303">
        <ele>152.83</ele>
        <time>2022-04-10T13:48:35Z</time>
      </trkpt>
      <trkpt lat="49.09586" lon="1.76305">
        <ele>152.05</ele>
        <time>2022-04-10T13:48:57Z</time>
      </trkpt>
      <trkpt lat="49.09586" lon="1.76303">
        <ele>152.26</ele>
        <time>2022-04-10T13:49:08Z</time>
      </trkpt>
      <trkpt lat="49.09598" lon="1.76298">
        <ele>152.42</ele>
        <time>2022-04-10T13:49:30Z</time>
      </trkpt>
      <trkpt lat="49.09598" lon="1.76301">
        <ele>153.02</ele>
        <time>2022-04-10T13:49:39Z</time>
      </trkpt>
      <trkpt lat="49.09591" lon="1.76309">
        <ele>153.14</ele>
        <time>2022-04-10T13:49:54Z</time>
      </trkpt>
      <trkpt lat="49.09589" lon="1.76314">
        <ele>152.91</ele>
        <time>2022-04-10T13:50:05Z</time>
      </trkpt>
      <trkpt lat="49.09587" lon="1.76333">
        <ele>153.26</ele>
        <time>2022-04-10T13:50:26Z</time>
      </trkpt>
      <trkpt lat="49.09594" lon="1.76349">
        <ele>152.94</ele>
        <time>2022-04-10T13:50:43Z</time>
      </trkpt>
      <trkpt lat="49.09603" lon="1.76364">
        <ele>153.02</ele>
        <time>2022-04-10T13:50:55Z</time>
      </trkpt>
      <trkpt lat="49.09606" lon="1.76368">
        <ele>152.46</ele>
        <time>2022-04-10T13:51:00Z</time>
      </trkpt>
      <trkpt lat="49.09615" lon="1.76375">
        <ele>152.21</ele>
        <time>2022-04-10T13:51:18Z</time>
      </trkpt>
      <trkpt lat="49.09621" lon="1.76391">
        <ele>152.06</ele>
        <time>2022-04-10T13:51:34Z</time>
      </trkpt>
      <trkpt lat="49.09625" lon="1.76411">
        <ele>152.44</ele>
        <time>2022-04-10T13:51:49Z</time>
      </trkpt>
      <trkpt lat="49.09629" lon="1.76433">
        <ele>151.94</ele>
        <time>2022-04-10T13:52:05Z</time>
      </trkpt>
      <trkpt lat="49.09633" lon="1.76451">
        <ele>152.12</ele>
        <time>2022-04-10T13:52:19Z</time>
      </trkpt>
      <trkpt lat="49.09639" lon="1.76457">
        <ele>150.86</ele>
        <time>2022-04-10T13:52:38Z</time>
      </trkpt>
      <trkpt lat="49.09641" lon="1.76471">
        <ele>151.12</ele>
        <time>2022-04-10T13:52:55Z</time>
      </trkpt>
      <trkpt lat="49.0964" lon="1.76474">
        <ele>151.23</ele>
        <time>2022-04-10T13:53:12Z</time>
      </trkpt>
      <trkpt lat="49.09641" lon="1.76474">
        <ele>151.32</ele>
        <time>2022-04-10T13:53:13Z</time>
      </trkpt>
      <trkpt lat="49.09644" lon="1.76477">
        <ele>152.09</ele>
        <time>2022-04-10T13:53:31Z</time>
      </trkpt>
      <trkpt lat="49.09642" lon="1.76479">
        <ele>151.38</ele>
        <time>2022-04-10T13:53:40Z</time>
      </trkpt>
      <trkpt lat="49.09644" lon="1.76487">
        <ele>151.91</ele>
        <time>2022-04-10T13:53:55Z</time>
      </trkpt>
      <trkpt lat="49.09645" lon="1.76502">
        <ele>151.04</ele>
        <time>2022-04-10T13:54:07Z</time>
      </trkpt>
      <trkpt lat="49.0965" lon="1.7652">
        <ele>151.34</ele>
        <time>2022-04-10T13:54:22Z</time>
      </trkpt>
      <trkpt lat="49.09654" lon="1.76535">
        <ele>152.08</ele>
        <time>2022-04-10T13:54:36Z</time>
      </trkpt>
      <trkpt lat="49.09657" lon="1.76553">
        <ele>151.83</ele>
        <time>2022-04-10T13:54:49Z</time>
      </trkpt>
      <trkpt lat="49.0966" lon="1.76567">
        <ele>152.19</ele>
        <time>2022-04-10T13:55:01Z</time>
      </trkpt>
      <trkpt lat="49.09664" lon="1.76582">
        <ele>151.34</ele>
        <time>2022-04-10T13:55:15Z</time>
      </trkpt>
      <trkpt lat="49.0967" lon="1.76603">
        <ele>151.87</ele>
        <time>2022-04-10T13:55:32Z</time>
      </trkpt>
      <trkpt lat="49.09675" lon="1.76623">
        <ele>152.07</ele>
        <time>2022-04-10T13:55:48Z</time>
      </trkpt>
      <trkpt lat="49.09679" lon="1.76642">
        <ele>151.73</ele>
        <time>2022-04-10T13:56:04Z</time>
      </trkpt>
      <trkpt lat="49.09681" lon="1.76653">
        <ele>151.99</ele>
        <time>2022-04-10T13:56:12Z</time>
      </trkpt>
      <trkpt lat="49.09686" lon="1.76675">
        <ele>152.28</ele>
        <time>2022-04-10T13:56:27Z</time>
      </trkpt>
      <trkpt lat="49.0969" lon="1.7669">
        <ele>151.46</ele>
        <time>2022-04-10T13:56:42Z</time>
      </trkpt>
      <trkpt lat="49.09693" lon="1.76699">
        <ele>151.63</ele>
        <time>2022-04-10T13:56:51Z</time>
      </trkpt>
      <trkpt lat="49.09695" lon="1.76713">
        <ele>151.77</ele>
        <time>2022-04-10T13:57:03Z</time>
      </trkpt>
      <trkpt lat="49.097" lon="1.76727">
        <ele>150.83</ele>
        <time>2022-04-10T13:57:16Z</time>
      </trkpt>
      <trkpt lat="49.09707" lon="1.76744">
        <ele>151.14</ele>
        <time>2022-04-10T13:57:30Z</time>
      </trkpt>
      <trkpt lat="49.09714" lon="1.76765">
        <ele>150.42</ele>
        <time>2022-04-10T13:57:43Z</time>
      </trkpt>
      <trkpt lat="49.09718" lon="1.7678">
        <ele>150.36</ele>
        <time>2022-04-10T13:57:55Z</time>
      </trkpt>
      <trkpt lat="49.09724" lon="1.76803">
        <ele>149.61</ele>
        <time>2022-04-10T13:58:12Z</time>
      </trkpt>
      <trkpt lat="49.0973" lon="1.76815">
        <ele>149.25</ele>
        <time>2022-04-10T13:58:20Z</time>
      </trkpt>
      <trkpt lat="49.09734" lon="1.76827">
        <ele>148.81</ele>
        <time>2022-04-10T13:58:28Z</time>
      </trkpt>
      <trkpt lat="49.09736" lon="1.76834">
        <ele>148.25</ele>
        <time>2022-04-10T13:58:33Z</time>
      </trkpt>
      <trkpt lat="49.09741" lon="1.76857">
        <ele>147.89</ele>
        <time>2022-04-10T13:58:47Z</time>
      </trkpt>
      <trkpt lat="49.09747" lon="1.76877">
        <ele>147.41</ele>
        <time>2022-04-10T13:59:00Z</time>
      </trkpt>
      <trkpt lat="49.09754" lon="1.76891">
        <ele>146.89</ele>
        <time>2022-04-10T13:59:13Z</time>
      </trkpt>
      <trkpt lat="49.09765" lon="1.76904">
        <ele>146.9</ele>
        <time>2022-04-10T13:59:31Z</time>
      </trkpt>
      <trkpt lat="49.09775" lon="1.76917">
        <ele>147.46</ele>
        <time>2022-04-10T13:59:47Z</time>
      </trkpt>
      <trkpt lat="49.09782" lon="1.76926">
        <ele>147.56</ele>
        <time>2022-04-10T13:59:55Z</time>
      </trkpt>
      <trkpt lat="49.0979" lon="1.76941">
        <ele>147.42</ele>
        <time>2022-04-10T14:00:08Z</time>
      </trkpt>
      <trkpt lat="49.09798" lon="1.76954">
        <ele>148.26</ele>
        <time>2022-04-10T14:00:23Z</time>
      </trkpt>
      <trkpt lat="49.09802" lon="1.76967">
        <ele>148.27</ele>
        <time>2022-04-10T14:00:35Z</time>
      </trkpt>
      <trkpt lat="49.09812" lon="1.76983">
        <ele>149.18</ele>
        <time>2022-04-10T14:00:51Z</time>
      </trkpt>
      <trkpt lat="49.0982" lon="1.76999">
        <ele>149.55</ele>
        <time>2022-04-10T14:01:05Z</time>
      </trkpt>
      <trkpt lat="49.09827" lon="1.77012">
        <ele>150.2</ele>
        <time>2022-04-10T14:01:17Z</time>
      </trkpt>
      <trkpt lat="49.09835" lon="1.77032">
        <ele>150.14</ele>
        <time>2022-04-10T14:01:34Z</time>
      </trkpt>
      <trkpt lat="49.09845" lon="1.77056">
        <ele>150.42</ele>
        <time>2022-04-10T14:01:53Z</time>
      </trkpt>
      <trkpt lat="49.09854" lon="1.77079">
        <ele>150.18</ele>
        <time>2022-04-10T14:02:11Z</time>
      </trkpt>
      <trkpt lat="49.0986" lon="1.77085">
        <ele>150.29</ele>
        <time>2022-04-10T14:02:33Z</time>
      </trkpt>
      <trkpt lat="49.09865" lon="1.77089">
        <ele>149.64</ele>
        <time>2022-04-10T14:02:45Z</time>
      </trkpt>
      <trkpt lat="49.09873" lon="1.77101">
        <ele>150.28</ele>
        <time>2022-04-10T14:03:00Z</time>
      </trkpt>
      <trkpt lat="49.09877" lon="1.77107">
        <ele>149.78</ele>
        <time>2022-04-10T14:03:06Z</time>
      </trkpt>
      <trkpt lat="49.09883" lon="1.77125">
        <ele>149.14</ele>
        <time>2022-04-10T14:03:23Z</time>
      </trkpt>
      <trkpt lat="49.09891" lon="1.77136">
        <ele>149.17</ele>
        <time>2022-04-10T14:03:35Z</time>
      </trkpt>
      <trkpt lat="49.09895" lon="1.77145">
        <ele>148.71</ele>
        <time>2022-04-10T14:03:51Z</time>
      </trkpt>
      <trkpt lat="49.09901" lon="1.77156">
        <ele>148.11</ele>
        <time>2022-04-10T14:04:05Z</time>
      </trkpt>
      <trkpt lat="49.09911" lon="1.77165">
        <ele>148.44</ele>
        <time>2022-04-10T14:04:20Z</time>
      </trkpt>
      <trkpt lat="49.09916" lon="1.77171">
        <ele>147.67</ele>
        <time>2022-04-10T14:04:29Z</time>
      </trkpt>
      <trkpt lat="49.09923" lon="1.77186">
        <ele>147.89</ele>
        <time>2022-04-10T14:04:43Z</time>
      </trkpt>
      <trkpt lat="49.0993" lon="1.77199">
        <ele>147.72</ele>
        <time>2022-04-10T14:04:57Z</time>
      </trkpt>
      <trkpt lat="49.09937" lon="1.7722">
        <ele>146.63</ele>
        <time>2022-04-10T14:05:14Z</time>
      </trkpt>
      <trkpt lat="49.09942" lon="1.77237">
        <ele>146.51</ele>
        <time>2022-04-10T14:05:26Z</time>
      </trkpt>
      <trkpt lat="49.09951" lon="1.77263">
        <ele>146.95</ele>
        <time>2022-04-10T14:05:43Z</time>
      </trkpt>
      <trkpt lat="49.09958" lon="1.77275">
        <ele>147.03</ele>
        <time>2022-04-10T14:05:55Z</time>
      </trkpt>
      <trkpt lat="49.09961" lon="1.7729">
        <ele>148.06</ele>
        <time>2022-04-10T14:06:05Z</time>
      </trkpt>
      <trkpt lat="49.09967" lon="1.77308">
        <ele>148.2</ele>
        <time>2022-04-10T14:06:22Z</time>
      </trkpt>
      <trkpt lat="49.09971" lon="1.77316">
        <ele>148.81</ele>
        <time>2022-04-10T14:06:37Z</time>
      </trkpt>
      <trkpt lat="49.09977" lon="1.77331">
        <ele>149.73</ele>
        <time>2022-04-10T14:06:55Z</time>
      </trkpt>
      <trkpt lat="49.09981" lon="1.7735">
        <ele>150.55</ele>
        <time>2022-04-10T14:07:12Z</time>
      </trkpt>
      <trkpt lat="49.0998" lon="1.77373">
        <ele>150.94</ele>
        <time>2022-04-10T14:07:27Z</time>
      </trkpt>
      <trkpt lat="49.09979" lon="1.77377">
        <ele>151.47</ele>
        <time>2022-04-10T14:07:30Z</time>
      </trkpt>
      <trkpt lat="49.0998" lon="1.77402">
        <ele>152.38</ele>
        <time>2022-04-10T14:07:47Z</time>
      </trkpt>
      <trkpt lat="49.0998" lon="1.77423">
        <ele>152.62</ele>
        <time>2022-04-10T14:08:04Z</time>
      </trkpt>
      <trkpt lat="49.09978" lon="1.77445">
        <ele>153.22</ele>
        <time>2022-04-10T14:08:17Z</time>
      </trkpt>
      <trkpt lat="49.09979" lon="1.77454">
        <ele>154.01</ele>
        <time>2022-04-10T14:08:25Z</time>
      </trkpt>
      <trkpt lat="49.0998" lon="1.77461">
        <ele>154.09</ele>
        <time>2022-04-10T14:08:29Z</time>
      </trkpt>
      <trkpt lat="49.09982" lon="1.77477">
        <ele>155.22</ele>
        <time>2022-04-10T14:08:42Z</time>
      </trkpt>
      <trkpt lat="49.09982" lon="1.77483">
        <ele>155.22</ele>
        <time>2022-04-10T14:08:45Z</time>
      </trkpt>
      <trkpt lat="49.09978" lon="1.77491">
        <ele>154.73</ele>
        <time>2022-04-10T14:08:57Z</time>
      </trkpt>
      <trkpt lat="49.09977" lon="1.7749">
        <ele>155.98</ele>
        <time>2022-04-10T14:09:04Z</time>
      </trkpt>
      <trkpt lat="49.09967" lon="1.77504">
        <ele>157.15</ele>
        <time>2022-04-10T14:09:18Z</time>
      </trkpt>
      <trkpt lat="49.09959" lon="1.77527">
        <ele>157.89</ele>
        <time>2022-04-10T14:09:32Z</time>
      </trkpt>
      <trkpt lat="49.09965" lon="1.77545">
        <ele>157.4</ele>
        <time>2022-04-10T14:09:46Z</time>
      </trkpt>
      <trkpt lat="49.0997" lon="1.77562">
        <ele>157.67</ele>
        <time>2022-04-10T14:10:00Z</time>
      </trkpt>
      <trkpt lat="49.09976" lon="1.7758">
        <ele>157.55</ele>
        <time>2022-04-10T14:10:15Z</time>
      </trkpt>
      <trkpt lat="49.09975" lon="1.77588">
        <ele>158.25</ele>
        <time>2022-04-10T14:10:33Z</time>
      </trkpt>
      <trkpt lat="49.09972" lon="1.77593">
        <ele>157.99</ele>
        <time>2022-04-10T14:10:53Z</time>
      </trkpt>
      <trkpt lat="49.09973" lon="1.77594">
        <ele>157.7</ele>
        <time>2022-04-10T14:11:11Z</time>
      </trkpt>
      <trkpt lat="49.09978" lon="1.77594">
        <ele>157.73</ele>
        <time>2022-04-10T14:11:20Z</time>
      </trkpt>
      <trkpt lat="49.09986" lon="1.77597">
        <ele>157.98</ele>
        <time>2022-04-10T14:11:31Z</time>
      </trkpt>
    </trkseg>
  </trk>
</gpx>